[[{"header":{"parameterUnit":"m.s-1","parameterCategory":1,"la1":30.6,"la2":29.2853,"lo1":-89.7004,"lo2":-87.6739,"dy":0.0162,"dx":0.0183,"nx":112,"ny":82,"refTime":"2024-03-17T06:00:00:Z","depth":0,"parameterNumber":2,"parameterNumberName":"U-component_of_WINDS"},"data":[0.0,0.0,0.0,0.0,0.0,0.0,0.0,0.0,0.0,0.0,0.0,0.0,0.0,0.0,0.0,0.0,0.0,0.0,0.0,0.0,0.0,0.0,0.0,0.0,0.0,0.0,0.0,0.0,0.0,0.0,0.0,0.0,0.0,0.0,0.0,0.0,0.0,0.0,0.0,0.0,0.0,0.0,0.0,0.0,0.0,0.0,0.0,0.0,0.0,0.0,0.0,0.0,0.0,0.0,0.0,0.0,0.0,0.0,0.0,0.0,0.0,0.0,0.0,0.0,0.0,0.0,0.0,0.0,0.0,0.0,0.0,0.0,0.0,0.0,0.0,0.0,0.0,0.0,0.0,0.0,0.0,0.0,0.0,0.0,0.0,0.0,0.0,0.0,0.0,0.0,0.63,0.63,0.63,0.63,0.63,0.63,0.63,0.63,0.0,0.0,0.0,0.0,0.0,0.0,0.0,0.0,0.0,0.0,0.0,0.0,0.0,0.0,0.0,0.0,0.0,0.0,0.0,0.0,0.0,0.0,0.0,0.0,0.0,0.0,0.0,0.0,0.0,0.0,0.0,0.0,0.0,0.0,0.0,0.0,0.0,0.0,0.0,0.0,0.0,0.0,0.0,0.0,0.0,0.0,0.0,0.0,0.0,0.0,0.0,0.0,0.0,0.0,0.0,0.0,0.0,0.0,0.0,0.0,0.0,0.0,0.0,0.0,0.0,0.0,0.0,0.0,0.0,0.0,0.0,0.0,0.0,0.0,0.0,0.0,0.0,0.0,0.0,0.0,0.0,0.0,0.0,0.0,0.0,0.0,0.0,0.0,0.0,0.0,0.0,0.0,0.0,0.0,0.0,0.0,0.0,0.0,0.0,0.0,0.0,0.0,0.0,0.0,0.63,0.63,0.63,0.63,0.63,0.63,0.63,0.63,0.0,0.0,0.0,0.0,0.0,0.0,0.0,0.0,0.0,0.0,0.0,0.0,0.0,0.0,0.0,0.0,0.0,0.0,0.0,0.0,0.0,0.0,0.0,0.0,0.0,0.0,0.0,0.0,0.0,0.0,0.0,0.0,0.0,0.0,0.0,0.0,0.0,0.0,0.0,0.0,0.0,0.0,0.0,0.0,0.0,0.0,0.0,0.0,0.0,0.0,0.0,0.0,0.0,0.0,0.0,0.0,0.0,0.0,0.0,0.0,0.0,0.0,0.0,0.0,0.0,0.0,0.0,0.0,0.0,0.0,0.0,0.0,0.0,0.0,0.0,0.0,0.0,0.0,0.0,0.0,0.0,0.0,0.0,0.0,0.0,0.0,0.0,0.0,0.0,0.0,0.0,0.0,0.0,0.0,0.0,0.0,0.0,0.0,0.0,0.0,0.0,0.0,0.0,0.642,0.6488,0.6422,0.6467,0.6522,0.6522,0.6522,0.6522,0.6522,0.644,0.0,0.0,0.0,0.0,0.0,0.0,0.0,0.0,0.0,0.0,0.0,0.0,0.0,0.0,0.0,0.0,0.0,0.0,0.0,0.0,0.0,0.0,0.0,0.0,0.0,0.0,0.0,0.0,0.0,0.0,0.0,0.0,0.0,0.0,0.0,0.0,0.0,0.0,0.0,0.0,0.0,0.0,0.0,0.0,0.0,0.0,0.0,0.0,0.0,0.0,0.0,0.0,0.0,0.0,0.0,0.0,0.0,0.0,0.0,0.0,0.0,0.0,0.0,0.0,0.0,0.0,0.0,0.0,0.0,0.0,0.0,0.0,0.0,0.0,0.0,0.0,0.0,0.0,0.0,0.0,0.0,0.0,0.0,0.0,0.0,0.0,0.0,0.0,0.0,0.0,0.0,0.0,0.0,0.0,0.0,0.0,0.0,0.0,0.0,0.0,0.0,0.0,0.6583,0.6654,0.6559,0.663,0.6702,0.6702,0.6702,0.6702,0.6702,0.661,0.0,0.0,0.0,0.0,0.0,0.0,0.0,0.0,0.0,0.0,0.0,0.0,0.0,0.0,0.0,0.0,0.0,0.0,0.0,0.0,0.0,0.0,0.0,0.0,0.0,0.0,0.0,0.0,0.0,0.0,0.0,0.0,0.0,0.0,0.0,0.0,0.0,0.0,0.0,0.0,0.0,0.0,0.0,0.0,0.0,0.0,0.0,0.0,0.0,0.0,0.0,0.0,0.0,0.0,0.0,0.0,0.0,0.0,0.0,0.0,0.0,0.0,0.0,0.0,0.0,0.0,0.0,0.0,0.0,0.0,0.0,0.0,0.0,0.0,0.0,0.0,0.0,0.0,0.0,0.0,0.0,0.0,0.0,0.0,0.0,0.0,0.0,0.0,0.0,0.0,0.0,0.0,0.0,0.0,0.0,0.0,0.0,0.0,0.0,0.0,0.0,0.0,0.6688,0.6698,0.6685,0.6695,0.6702,0.6702,0.6702,0.6702,0.6702,0.6692,0.0,0.0,0.0,0.0,0.0,0.0,0.0,0.0,0.0,0.0,0.0,0.0,0.0,0.0,0.0,0.0,0.0,0.0,0.0,0.0,0.0,0.0,0.0,0.0,0.0,0.0,0.0,0.0,0.0,0.0,0.0,0.0,0.0,0.0,0.0,0.0,0.0,0.0,0.0,0.0,0.0,0.0,0.0,0.0,0.0,0.0,0.0,0.0,0.0,0.0,0.0,0.0,0.0,0.0,0.0,0.0,0.0,0.0,0.0,0.0,0.0,0.0,0.0,0.0,0.0,0.0,0.0,0.0,0.0,0.0,0.0,0.0,0.0,0.0,0.0,0.0,0.0,0.0,0.0,0.0,0.0,0.0,0.0,0.0,0.0,0.0,0.0,0.0,0.0,0.0,0.0,0.0,0.0,0.0,0.0,0.0,0.0,0.0,0.0,0.0,0.0,0.0,0.684,0.6921,0.683,0.6901,0.6951,0.6951,0.6951,0.6951,0.6951,0.0,0.0,0.0,0.0,0.0,0.0,0.0,0.0,0.0,0.0,0.0,0.0,0.0,0.0,0.0,0.0,0.0,0.0,0.0,0.0,0.0,0.0,0.0,0.0,0.0,0.0,0.0,0.0,0.0,0.0,0.0,0.0,0.0,0.0,0.0,0.0,0.0,0.0,0.0,0.0,0.0,0.0,0.0,0.0,0.0,0.0,0.0,0.0,0.0,0.0,0.0,0.0,0.0,0.0,0.0,0.0,0.0,0.0,0.0,0.0,0.0,0.0,0.0,0.0,0.0,0.0,0.0,0.0,0.0,0.0,0.0,0.0,0.0,0.0,0.0,0.0,0.0,0.0,0.0,0.0,0.0,0.0,0.0,0.0,0.0,0.0,0.0,0.0,0.0,0.0,0.0,0.0,0.0,0.0,0.0,0.0,0.0,0.0,0.0,0.0,0.0,0.0,0.6833,0.6992,0.7058,0.6964,0.7038,0.7095,0.7095,0.7095,0.7095,0.7095,0.0,0.0,0.0,0.0,0.0,0.0,0.0,0.0,0.0,0.0,0.0,0.0,0.0,0.0,0.0,0.0,0.0,0.0,0.0,0.0,0.0,0.0,0.0,0.0,0.0,0.0,0.0,0.0,0.0,0.0,0.0,0.0,0.0,0.0,0.0,0.0,0.0,0.0,0.0,0.0,0.0,0.0,0.0,0.0,0.0,0.0,0.0,0.0,0.0,0.0,0.0,0.0,0.0,0.0,0.0,0.0,0.0,0.0,0.0,0.0,0.0,0.0,0.0,0.0,0.0,0.0,0.0,0.0,0.0,0.0,0.0,0.0,0.0,0.0,0.0,0.0,0.0,0.0,0.0,0.0,0.0,0.0,0.0,0.0,0.0,0.0,0.0,0.0,0.0,0.0,0.0,0.0,0.0,0.0,0.0,0.0,0.0,0.0,0.0,0.0,0.0,0.0,0.7095,0.7095,0.7095,0.7095,0.7095,0.7095,0.7095,0.7095,0.7095,0.0,0.0,0.0,0.0,0.0,0.0,0.0,0.0,0.0,0.0,0.0,0.0,0.0,0.0,0.0,0.0,0.0,0.0,0.0,0.0,0.0,0.0,0.0,0.0,0.0,0.0,0.0,0.0,0.0,0.0,0.0,0.0,0.0,0.0,0.0,0.0,0.0,0.0,0.0,0.0,0.0,0.0,0.0,0.0,0.0,0.0,0.0,0.0,0.0,0.0,0.0,0.0,0.0,0.0,0.0,0.0,0.0,0.0,0.0,0.0,0.0,0.0,0.0,0.0,0.0,0.0,0.0,0.0,0.0,0.0,0.0,0.0,0.0,0.0,0.0,0.0,0.0,0.0,0.0,0.0,0.0,0.0,0.0,0.0,0.0,0.0,0.0,0.0,0.0,0.0,0.0,0.0,0.0,0.0,0.0,0.0,0.0,0.0,0.0,0.0,0.0,0.0,0.0,0.7095,0.7095,0.7095,0.7095,0.7095,0.7095,0.7095,0.7095,0.7095,0.7095,0.0,0.0,0.0,0.0,0.0,0.0,0.0,0.0,0.0,0.0,0.0,0.0,0.0,0.0,0.0,0.0,0.0,0.0,0.0,0.0,0.0,0.0,0.0,0.0,0.0,0.0,0.0,0.0,0.0,0.0,0.0,0.0,0.0,0.0,0.0,0.0,0.0,0.0,0.0,0.0,0.0,0.0,0.0,0.0,0.0,0.0,0.0,0.0,0.0,0.0,0.0,0.0,0.0,0.0,0.0,0.0,0.0,0.0,0.0,0.0,0.0,0.0,0.0,0.0,0.0,0.0,0.0,0.0,0.0,0.0,0.0,0.0,0.0,0.0,0.0,0.0,0.0,0.0,0.0,0.0,0.0,0.0,0.0,0.0,0.0,0.0,0.0,0.0,0.0,0.0,0.0,0.0,0.0,0.0,0.0,0.0,0.0,0.0,0.0,0.0,0.0,0.0,0.7095,0.7095,0.7095,0.7095,0.7095,0.7095,0.7095,0.7095,0.7095,0.7095,0.0,0.0,0.0,0.0,0.0,0.0,0.0,0.0,0.0,0.0,0.0,0.0,0.0,0.0,0.0,0.0,0.0,0.0,0.0,0.0,0.0,0.0,0.0,0.0,0.0,0.0,0.0,0.0,0.0,0.0,0.0,0.0,0.0,0.0,0.0,0.0,0.0,0.0,0.0,0.0,0.0,0.0,0.0,0.0,0.0,0.0,0.0,0.0,0.0,0.0,0.0,0.0,0.0,0.0,0.0,0.0,0.0,0.0,0.0,0.0,0.0,0.0,0.0,0.0,0.0,0.0,0.0,0.0,0.0,0.0,0.0,0.0,0.0,0.0,0.0,0.0,0.0,0.0,0.0,0.0,0.0,0.0,0.0,0.0,0.0,0.0,0.0,0.0,0.0,0.0,0.0,0.0,0.0,0.0,0.0,0.0,0.0,0.0,0.0,0.0,0.0,0.0,0.7136,0.7125,0.7122,0.7136,0.7139,0.7139,0.7139,0.7139,0.7139,0.7139,0.0,0.0,0.0,0.0,0.0,0.0,0.0,0.0,0.0,0.0,0.0,0.0,0.0,0.0,0.0,0.0,0.0,0.0,0.0,0.0,0.0,0.0,0.0,0.0,0.0,0.0,0.0,0.0,0.0,0.0,0.0,0.0,0.0,0.0,0.0,0.0,0.0,0.0,0.0,0.0,0.0,0.0,0.0,0.0,0.0,0.0,0.0,0.0,0.0,0.0,0.0,0.0,0.0,0.0,0.0,0.0,0.0,0.0,0.0,0.0,1.3171,0.0,0.0,0.0,0.0,0.0,0.0,0.0,0.0,0.0,0.0,0.0,0.0,0.0,0.0,0.0,0.0,0.0,0.0,0.0,0.0,0.0,0.0,0.0,0.0,0.0,0.0,0.0,0.0,0.0,0.0,0.0,0.0,0.0,0.0,0.0,0.0,0.0,0.0,0.0,0.0,0.0,0.7448,0.7397,0.737,0.7489,0.7502,0.7502,0.7502,0.7502,0.7502,0.7502,0.7502,0.0,0.0,0.0,0.0,0.0,0.0,0.0,0.0,0.0,0.0,0.0,0.0,0.0,0.0,0.0,0.0,0.0,0.0,0.0,0.0,0.0,0.0,0.0,0.0,0.0,0.0,0.0,0.0,0.0,0.0,0.0,0.0,0.0,0.0,0.0,0.0,0.0,0.0,0.0,0.0,0.0,0.0,0.0,0.0,0.0,0.0,0.0,0.0,0.0,0.0,0.0,0.0,0.0,0.0,0.0,0.0,0.0,0.0,0.0,0.0,1.3328,0.0,0.0,0.0,0.0,0.0,0.0,0.0,0.0,0.0,0.0,0.0,0.0,0.0,0.0,0.0,0.0,0.0,0.0,0.0,0.0,0.0,0.0,0.0,0.0,0.0,0.0,0.0,0.0,0.0,0.0,0.0,0.0,0.0,0.0,0.0,0.0,0.0,0.0,0.0,0.0,0.758,0.7529,0.7512,0.759,0.76,0.76,0.76,0.76,0.76,0.76,0.76,0.0,0.0,0.0,0.0,0.0,0.0,0.0,0.0,0.0,0.0,0.0,0.0,0.0,0.0,0.0,0.0,0.0,0.0,0.0,0.0,0.0,0.0,0.0,0.0,0.0,0.0,0.0,0.0,0.0,0.0,0.0,0.0,0.0,0.0,0.0,0.0,0.0,0.0,0.0,0.0,0.0,0.0,0.0,0.0,0.0,0.0,0.0,0.0,0.0,0.0,0.0,0.0,0.0,1.2397,1.2312,1.2153,1.2153,1.2053,1.184,1.184,1.192,1.2033,1.2033,0.0,0.0,0.0,0.0,0.0,0.0,0.0,0.0,0.0,0.0,0.0,0.0,0.0,0.0,0.0,0.0,0.0,0.0,0.0,0.0,0.0,0.0,0.0,0.0,0.7011,0.7065,0.6968,0.0,0.0,0.0,0.0,0.0,0.0,0.0,0.0,0.0,0.0,0.0,0.7672,0.7651,0.7648,0.7675,0.7678,0.7678,0.7678,0.7678,0.7678,0.7678,0.7678,0.7678,0.0,0.0,0.0,0.0,0.0,0.0,0.0,0.0,0.0,0.0,0.0,0.0,0.0,0.0,0.0,0.0,0.0,0.0,0.0,0.0,0.0,0.0,0.0,0.0,0.0,0.0,0.0,0.0,0.0,0.0,0.0,0.0,1.2677,1.2677,0.0,0.0,0.0,0.0,0.0,0.0,0.0,0.0,0.0,0.0,0.0,0.0,0.0,1.2305,1.2305,1.2305,1.245,1.2723,1.2723,1.235,1.1603,1.1603,1.1022,1.0043,1.0043,0.0,1.0994,1.0994,0.0,0.0,0.0,0.0,0.0,0.0,0.0,0.0,0.0,0.0,0.0,0.0,0.0,0.0,0.0,0.0,0.0,0.0,0.0,0.0,0.0,0.0,0.7068,0.7068,0.7082,0.7092,0.0,0.7085,0.7095,0.7095,0.7248,0.0,0.0,0.0,0.0,0.0,0.0,0.0,0.7922,0.7841,0.781,0.7942,0.7956,0.7956,0.7956,0.7956,0.7956,0.7956,0.7956,0.7956,0.7956,0.7827,0.0,0.0,0.0,0.0,0.0,0.0,0.0,0.0,0.0,0.0,0.0,0.0,0.0,0.0,0.0,0.0,0.0,0.0,0.0,0.0,0.0,0.0,0.0,0.0,0.0,0.0,0.0,0.0,0.0,1.2556,1.2305,1.2305,1.2305,1.2305,0.0,0.0,0.0,0.0,0.0,0.0,0.0,0.0,0.0,1.2806,1.2812,1.2492,1.1856,1.1856,1.1581,1.1058,1.1058,1.0857,1.0494,1.0494,1.0191,0.9705,0.9705,0.9557,0.938,0.995,1.0249,1.0305,0.0,0.0,0.0,0.0,0.9705,0.9624,0.9059,0.8855,0.8692,0.7679,0.0,0.0,0.0,0.0,0.0,0.0,0.0,0.0,0.0,0.0,0.7119,0.7248,0.7272,0.7292,0.7357,0.7374,0.735,0.0,0.7394,0.7549,0.7604,0.0,0.0,0.0,0.0,0.7596,0.6968,0.6834,0.6819,0.6877,0.6201,0.5747,0.5747,0.5747,0.5747,0.5747,0.6454,0.6883,0.6883,0.7551,0.7915,0.0,0.0,0.0,0.0,0.0,0.0,0.0,0.0,0.0,0.0,0.0,0.0,0.0,0.0,0.0,0.0,0.0,0.0,0.0,0.0,0.0,0.0,0.0,0.0,0.0,0.0,0.0,0.0,1.2305,1.2305,1.2305,1.2305,1.2331,0.0,0.0,0.0,0.0,0.0,0.0,1.2891,1.2904,1.2869,1.2771,1.2777,1.2238,1.1138,1.1118,1.0725,0.9931,0.9931,0.9814,0.9599,0.9599,0.9431,0.9161,0.9161,0.8738,0.8119,0.8961,0.9373,0.9425,0.9096,0.919,0.946,0.9149,0.9045,0.8921,0.818,0.7908,0.7786,0.7038,0.687,0.6962,0.6962,0.0,0.0,0.0,0.0,0.7178,0.7178,0.7205,0.7266,0.7427,0.7454,0.7389,0.7145,0.7125,0.7204,0.0,0.755,0.7566,0.7329,0.0,0.0,0.0,0.0,0.6628,0.5625,0.55,0.55,0.55,0.4593,0.3991,0.3991,0.3991,0.3991,0.3991,0.4945,0.55,0.55,0.6454,0.698,0.698,0.0,0.0,0.0,0.0,0.0,0.0,0.0,0.0,0.0,0.0,0.0,0.0,0.0,0.0,0.0,0.0,0.0,0.0,0.0,0.0,0.0,0.0,0.0,0.0,0.0,0.0,0.0,0.0,0.0,1.2305,1.2305,0.0,0.0,0.0,0.0,1.314,1.314,1.3153,1.3186,1.3186,1.2698,1.163,1.159,1.11,1.0089,1.0089,1.0244,1.0551,1.0551,1.0124,0.9311,0.9311,0.8718,0.7716,0.7716,0.767,0.7671,0.8097,0.8454,0.8636,0.7485,0.7814,0.8795,0.7661,0.7226,0.7226,0.7182,0.716,0.7141,0.7097,0.7078,0.7085,0.7085,0.7092,0.0,0.0,0.7248,0.7382,0.7382,0.7468,0.758,0.7587,0.7587,0.7255,0.597,0.5798,0.623,0.0,0.7702,0.7387,0.6125,0.0,0.5645,0.4291,0.4166,0.4166,0.4116,0.4091,0.4091,0.4091,0.4041,0.3991,0.3991,0.3991,0.3991,0.3991,0.4066,0.4091,0.4091,0.4166,0.4191,0.4191,0.4187,0.0,0.0,0.0,0.0,0.0,0.0,0.0,0.0,0.0,0.0,0.0,0.0,0.0,0.0,0.0,0.0,0.0,0.0,0.0,0.0,0.0,0.0,0.0,0.0,0.0,0.0,0.0,0.0,1.1841,1.1781,0.0,1.0863,1.0809,1.0842,1.0942,1.0948,1.1035,1.1258,1.1352,1.1297,1.1059,1.1185,1.0706,0.9566,0.9544,0.9252,0.8659,0.8659,0.8509,0.8196,0.8196,0.7993,0.76,0.76,0.76,0.7607,0.775,0.7889,0.794,0.7516,0.7642,0.8005,0.7572,0.7411,0.7411,0.7411,0.7411,0.7411,0.7411,0.7411,0.7411,0.7411,0.7411,0.7411,0.7411,0.6864,0.6237,0.6237,0.5636,0.5045,0.5135,0.515,0.5045,0.4661,0.4599,0.4761,0.5199,0.5317,0.5192,0.4722,0.4673,0.4268,0.2914,0.3441,0.369,0.2815,0.2715,0.2715,0.2715,0.1938,0.1436,0.1436,0.1436,0.1436,0.1436,0.2238,0.2715,0.2715,0.3541,0.3991,0.3991,0.3991,0.3991,0.0,0.0,0.0,0.0,0.0,0.0,0.0,0.0,0.0,0.0,0.0,0.0,0.0,0.0,0.0,0.0,0.0,0.0,0.0,0.0,0.0,0.0,0.0,0.0,0.0,1.1741,1.1534,1.096,1.0897,1.0627,0.9932,0.9875,0.9919,1.0068,1.0077,1.0193,1.0498,1.0582,1.0531,1.0311,1.042,0.9949,0.8808,0.8785,0.8441,0.7722,0.7722,0.7722,0.7722,0.7722,0.7722,0.7722,0.7722,0.7722,0.7722,0.7722,0.7722,0.7716,0.7638,0.76,0.76,0.76,0.76,0.76,0.76,0.76,0.76,0.76,0.76,0.7527,0.7073,0.6929,0.6832,0.6382,0.5647,0.5005,0.5005,0.4378,0.3762,0.3836,0.3872,0.376,0.3406,0.3316,0.319,0.274,0.3391,0.3865,0.3416,0.3316,0.2864,0.1536,0.2088,0.2339,0.1436,0.1335,0.1335,0.1335,0.053,0.0,0.0,0.0,0.0,0.0,0.0832,0.1335,0.1335,0.2188,0.2639,0.2639,0.2639,0.2639,0.2639,0.0,0.0,0.0,0.0,0.0,0.0,0.0,0.0,0.0,0.0,0.0,0.0,0.0,0.0,0.0,0.0,0.0,0.0,0.0,0.0,0.0,0.0,0.0,0.9715,0.972,0.97,0.9689,0.9674,0.9798,1.0073,1.0123,1.0281,1.0662,1.0691,1.078,1.0982,1.1002,1.0454,0.9281,0.9266,0.8796,0.7824,0.7824,0.7878,0.8005,0.8005,0.8005,0.8005,0.8005,0.8005,0.8005,0.8005,0.8005,0.8005,0.8005,0.8005,0.8,0.7729,0.7614,0.7614,0.7614,0.7614,0.7614,0.7564,0.754,0.754,0.7493,0.7493,0.7254,0.5936,0.5554,0.527,0.3967,0.3687,0.3743,0.3746,0.382,0.387,0.3872,0.3872,0.3522,0.2217,0.1941,0.1564,0.0253,0.2091,0.347,0.2163,0.1938,0.1486,0.0202,0.0,0.0,0.0,0.0,0.0,0.0,0.0,0.0,0.0,0.0,0.0,0.0,0.0,0.0,0.0,0.0,0.0,0.0,0.0,0.0,0.0,0.0,0.0,0.0,0.0,0.0,0.0,0.0,0.0,0.0,0.0,0.0,0.0,0.0,0.0,0.0,0.0,0.0,0.0,0.0,0.0,0.0,0.988,0.9344,0.9966,1.0066,0.9834,0.9188,0.9217,0.8971,0.8235,0.8264,0.8356,0.8471,0.8478,0.8497,0.8563,0.8654,0.8552,0.8221,0.8312,0.8305,0.8168,0.8172,0.8243,0.836,0.836,0.836,0.836,0.836,0.836,0.836,0.836,0.836,0.836,0.836,0.836,0.8333,0.801,0.7895,0.7895,0.7895,0.7895,0.7744,0.6778,0.6435,0.6284,0.5315,0.4993,0.4917,0.4546,0.4447,0.4373,0.4004,0.3203,0.2504,0.2488,0.1791,0.1109,0.1098,0.1101,0.0997,0.063,0.0551,0.0446,0.0079,0.0604,0.0988,0.0608,0.0555,0.0429,0.005,0.0,0.0,0.0,0.0,0.0,0.0,0.0,0.0,0.0,0.0,0.0,0.0,0.0,0.0,0.0,0.0,0.0,0.0,0.0,0.0,0.0,0.0,0.0,0.0,0.0,0.0,0.0,0.0,0.0,0.0,0.0,0.0,0.0,0.0,0.0,0.0,0.0,0.0,0.0,0.0,0.0,0.0,0.8908,0.8352,0.8952,0.8961,0.8745,0.8323,0.8339,0.8159,0.755,0.7546,0.7624,0.7685,0.7689,0.7716,0.7756,0.7923,0.8004,0.8004,0.8147,0.8269,0.8386,0.8386,0.8427,0.8509,0.8509,0.8509,0.8509,0.8509,0.8509,0.8509,0.8509,0.8509,0.8453,0.7842,0.7577,0.0,0.0,0.0,0.0,0.0,0.6317,0.6218,0.5421,0.5165,0.5037,0.4265,0.4008,0.3906,0.3343,0.3162,0.3035,0.2471,0.1752,0.1163,0.115,0.0577,0.0,0.0,0.0,0.0,0.0,0.0,0.0,0.0,0.0,0.0,0.0,0.0,0.0,0.0,0.0,0.0,0.0,0.0,0.0,0.0,0.0,0.0,0.0,0.0,0.0,0.0,0.0,0.0,0.0,0.0,0.0,0.0,0.0,0.0,0.0,0.0,0.0,0.0,0.0,0.0,0.0,0.0,0.0,0.0,0.0,0.0,0.0,0.0,0.0,0.0,0.0,0.0,0.0,0.0,0.0,0.0,0.79,0.7192,0.7376,0.7268,0.7222,0.7403,0.7433,0.7498,0.7611,0.7638,0.7709,0.7851,0.7862,0.7905,0.8057,0.8221,0.0,0.0,0.0,0.8515,0.8536,0.8536,0.8516,0.8533,0.8533,0.8533,0.8533,0.8533,0.8533,0.8533,0.8533,0.8454,0.8183,0.6876,0.6237,0.6235,0.7484,0.7179,0.5881,0.4506,0.4004,0.3978,0.3819,0.0,0.0,0.3607,0.3554,0.3317,0.2126,0.1781,0.1516,0.0346,0.0,0.0,0.0,0.0,0.0,0.0,0.0,0.0,0.0,0.0,0.0,0.0,0.0,0.0,0.0,0.0,0.0,0.0,0.0,0.0,0.0,0.0,0.0,0.0,0.0,0.0,0.0,0.0,0.0,0.0,0.0,0.0,0.0,0.0,0.0,0.0,0.0,0.0,0.0,0.0,0.0,0.0,0.0,0.0,0.0,0.0,0.0,0.0,0.0,0.0,0.0,0.0,0.0,0.0,0.0,0.0,0.0,0.0,0.0,0.8934,0.802,0.7359,0.7389,0.7451,0.7522,0.7553,0.7655,0.7736,0.7767,0.7858,0.7993,0.8196,0.8209,0.827,0.8387,0.8451,0.8468,0.8468,0.8495,0.854,0.8665,0.8665,0.8726,0.8825,0.8825,0.0,0.8825,0.8825,0.8825,0.8825,0.8825,0.8157,0.7021,0.6746,0.5916,0.4854,0.4878,0.4691,0.4399,0.411,0.4004,0.3845,0.276,0.239,0.2205,0.1118,0.0772,0.0719,0.0453,0.04,0.0,0.008,0.0,0.0,0.0,0.0,0.0,0.0,0.0,0.0,0.0,0.0,0.0,0.0,0.0,0.0,0.0,0.0,0.0,0.0,0.0,0.0,0.0,0.0,0.0,0.0,0.0,0.0,0.0,0.0,0.0,0.0,0.0,0.0,0.0,0.0,0.0,0.0,0.0,0.0,0.0,0.0,0.0,0.0,0.0,0.0,0.0,0.0,0.0,0.0,0.0,0.0,0.0,0.0,0.0,0.0,0.0,1.0438,0.9857,0.0,0.8726,0.822,0.7726,0.7444,0.757,0.7658,0.7706,0.7706,0.777,0.7817,0.7895,0.804,0.8187,0.8291,0.8362,0.8434,0.8505,0.8554,0.8598,0.8598,0.8669,0.872,0.8798,0.8798,0.8835,0.8912,0.8912,0.8912,0.8881,0.8128,0.7789,0.7762,0.7008,0.6283,0.553,0.4775,0.3575,0.2234,0.2058,0.2451,0.3022,0.2262,0.1989,0.1908,0.1228,0.101,0.0901,0.0219,0.0,0.0,0.0,0.0,0.0,0.0,0.0,0.0,0.0,0.0,0.0,0.0,0.0,0.0,0.0,0.0,0.0,0.0,0.0,0.0,0.0,0.0,0.0,0.0,0.0,0.0,0.0,0.0,0.0,0.0,0.0,0.0,0.0,0.0,0.0,0.0,0.0,0.0,0.0,0.0,0.0,0.0,0.0,0.0,0.0,0.0,0.0,0.0,0.0,0.0,0.0,0.0,0.0,0.0,0.0,0.0,0.0,1.1959,1.1381,1.0459,1.007,0.964,0.8715,0.8594,0.8335,0.7531,0.744,0.7563,0.7777,0.7814,0.7844,0.7899,0.7902,0.795,0.8047,0.8221,0.8349,0.8379,0.8488,0.854,0.857,0.8686,0.8727,0.8727,0.8845,0.8912,0.8912,0.8912,0.8912,0.8912,0.8912,0.8743,0.8436,0.7232,0.6533,0.62,0.4693,0.4052,0.394,0.2404,0.1063,0.0,0.0,0.0728,0.1622,0.0448,0.0,0.0,0.0,0.0,0.0,0.0,0.0,0.0,0.0,0.0,0.0,0.0,0.0,0.0,0.0,0.0,0.0,0.0,0.0,0.0,0.0,0.0,0.0,0.0,0.0,0.0,0.0,0.0,0.0,0.0,0.0,0.0,0.0,0.0,0.0,0.0,0.0,0.0,0.0,0.0,0.0,0.0,0.0,0.0,0.0,0.0,0.0,0.0,0.0,0.0,0.0,0.0,0.0,0.0,0.0,0.0,1.3968,1.4062,1.4109,1.4109,1.3294,1.2477,0.0,1.074,0.9235,0.9109,0.8233,0.7445,0.7316,0.7453,0.7531,0.7415,0.759,0.7773,0.7807,0.7905,0.804,0.823,0.8243,0.8253,0.827,0.84,0.8516,0.8652,0.8676,0.8716,0.8852,0.8875,0.8885,0.8885,0.8902,0.8912,0.8912,0.8912,0.8912,0.8912,0.8912,0.8211,0.6952,0.6785,0.5975,0.4665,0.3129,0.2459,0.2347,0.0868,0.014,0.0,0.0,0.0112,0.0224,0.0056,0.0,0.0,0.0,0.0,0.0,0.0,0.0,0.0,0.0,0.0,0.0,0.0,0.0,0.0,0.0,0.0,0.0,0.0,0.0,0.0,0.0,0.0,0.0,0.0,0.0,0.0,0.0,0.0,0.0,0.0,0.0,0.0,0.0,0.0,0.0,0.0,0.0,0.0,0.0,0.0,0.0,0.0,0.0,0.0,0.0,0.0,0.0,0.0,0.0,0.0,0.0,0.0,0.0,0.0,0.0,0.0,1.4055,1.3597,1.3048,1.3048,1.2163,1.1144,1.0459,0.9579,0.8693,0.7995,0.7445,0.7144,0.7258,0.7348,0.745,0.76,0.7729,0.7817,0.7908,0.7973,0.8071,0.8277,0.8369,0.842,0.842,0.8526,0.8642,0.8706,0.8767,0.8845,0.8906,0.8912,0.8912,0.8912,0.8912,0.8912,0.8912,0.8912,0.8463,0.7623,0.7623,0.6841,0.5391,0.4495,0.3268,0.1847,0.1203,0.0924,0.0868,0.0252,0.0,0.0,0.0,0.0,0.0,0.0,0.0,0.0,0.0,0.0,0.0,0.0,0.0,0.0,0.0,0.0,0.0,0.0,0.0,0.0,0.0,0.0,0.0,0.0,0.0,0.0,0.0,0.0,0.0,0.0,0.0,0.0,0.0,0.0,0.0,0.0,0.0,0.0,0.0,0.0,0.0,0.0,0.0,0.0,0.0,0.0,0.0,0.0,0.0,0.0,0.0,0.0,0.0,0.0,0.0,0.0,0.0,0.0,0.0,0.0,0.0,-0.0447,1.3688,1.2963,1.2215,1.1916,1.0972,0.9923,0.9082,0.8649,0.8149,0.7272,0.7095,0.7164,0.7365,0.743,0.7539,0.777,0.782,0.7888,0.7975,0.805,0.816,0.8335,0.8485,0.856,0.8604,0.871,0.8747,0.8747,0.8848,0.8912,0.8912,0.8912,0.8912,0.8912,0.8912,0.8716,0.8294,0.8294,0.7568,0.6089,0.6089,0.5306,0.3827,0.2292,0.1008,0.0,0.0,0.0,0.0,0.0,0.0,0.0,0.0,0.0,0.0,0.0,0.0,0.0,0.0,0.0,0.0,0.0,0.0,0.0,0.0,0.0,0.0,0.0,0.0,0.0,0.0,0.0,0.0,0.0,0.0,0.0,0.0,0.0,0.0,0.0,0.0,0.0,0.0,-0.0336,-0.0616,-0.0616,-0.098,-0.0952,-0.0112,0.0,0.0,0.0,-0.0364,-0.0616,-0.0616,-0.1008,-0.1232,-0.1232,-0.084,-0.0784,-0.1232,-0.084,-0.0812,-0.1232,-0.1232,-0.1232,-0.1232,-0.1232,-0.1232,-0.1232,-0.1232,-0.1819,1.2681,1.2328,1.2023,1.0929,0.9797,0.8934,0.8912,0.7995,0.7139,0.7117,0.7095,0.7164,0.7365,0.7515,0.7641,0.7787,0.7912,0.7985,0.7988,0.817,0.8342,0.8485,0.8611,0.8733,0.8882,0.8902,0.8902,0.8902,0.8909,0.8912,0.8912,0.8912,0.8912,0.8912,0.8912,0.8211,0.6785,0.6758,0.6031,0.4554,0.4554,0.3772,0.2208,0.0728,0.0056,0.0,0.0,0.0,0.0,0.0,0.0,0.0,0.0,0.0,0.0,0.0,0.0,0.0,0.0,0.0,0.0,0.0,0.0,0.0,0.0,0.0,0.0,0.0,0.0,0.0,0.0,0.0,0.0,0.0,0.0,0.0,0.0,0.0,0.0,0.0,0.0,0.0,0.0,-0.1175,-0.2124,-0.2124,-0.3409,-0.3299,-0.0364,0.0,0.0,0.0,-0.1287,-0.2124,-0.2124,-0.3493,-0.4359,-0.4359,-0.2961,-0.2794,-0.4303,-0.2933,-0.2822,-0.4331,-0.4359,-0.4359,-0.4359,-0.4359,-0.4359,-0.4359,-0.4359,-0.4387,1.2413,1.1209,0.9944,0.9579,0.858,0.7709,0.7709,0.7382,0.7095,0.7095,0.7198,0.7339,0.7495,0.7641,0.7787,0.7912,0.7983,0.7988,0.7988,0.8174,0.7985,0.7139,0.8021,0.7973,0.616,0.7762,0.8491,0.7512,0.8349,0.8463,0.7485,0.7426,0.7426,0.7426,0.6478,0.5753,0.5252,0.525,0.4468,0.2961,0.1986,0.1232,0.0728,0.0227,0.0,0.0,0.0,0.0,0.0,0.0,0.0,0.0,0.0,0.0,0.0,0.0,0.0,0.0,0.0,0.0,0.0,0.0,0.0,0.0,0.0,0.0,0.0,0.0,0.0,0.0,0.0,0.0,0.0,0.0,0.0,0.0,0.0,0.0,-0.028,-0.1259,-0.1454,-0.179,-0.2796,-0.3409,-0.3716,-0.3716,-0.4164,-0.4136,-0.3103,-0.2991,-0.2991,-0.2991,-0.3437,-0.3716,-0.3716,-0.4191,-0.4498,-0.4498,-0.4023,-0.3967,-0.447,-0.3995,-0.3967,-0.4498,-0.4498,-0.4498,-0.4498,-0.4498,-0.4498,-0.45,-0.4604,-0.5164,1.1209,1.0031,0.8803,0.8364,0.7665,0.7095,0.7095,0.7095,0.7112,0.7188,0.7302,0.7457,0.7638,0.775,0.7837,0.7989,0.7988,0.7839,0.736,0.747,0.7067,0.5716,0.6523,0.6483,0.4689,0.6225,0.6924,0.5975,0.6785,0.6924,0.5975,0.5919,0.5919,0.5919,0.5001,0.4247,0.3688,0.3688,0.2915,0.1411,0.0452,0.0,0.0,0.0,0.0,0.0,0.0,0.0,0.0,0.0,0.0,0.0,0.0,0.0,0.0,0.0,0.0,0.0,0.0,0.0,0.0,0.0,0.0,0.0,0.0,0.0,0.0,0.0,0.0,0.0,0.0,0.0,0.0,0.0,0.0,0.0,0.0,-0.0485,-0.1168,-0.2134,-0.2759,-0.3467,-0.4463,-0.5089,-0.5627,-0.6167,-0.6219,-0.5762,-0.4641,-0.4498,-0.4498,-0.4498,-0.4973,-0.528,-0.528,-0.578,-0.6061,-0.6061,-0.5586,-0.553,-0.6058,-0.5558,-0.553,-0.6061,-0.6061,-0.6061,-0.6061,-0.6151,-0.6168,-0.617,-0.6327,-0.6893,0.9213,0.8846,0.854,0.7382,0.7095,0.7095,0.7095,0.7102,0.7171,0.7365,0.7406,0.7502,0.776,0.7745,0.7747,0.7865,0.7836,0.736,0.6079,0.6063,0.567,0.4242,0.4324,0.4442,0.4275,0.4331,0.4359,0.4275,0.4416,0.447,0.4387,0.4387,0.4387,0.4387,0.4303,0.3576,0.2096,0.2097,0.1384,0.0,0.0,0.0,0.0,0.0,0.0,0.0,0.0,0.0,0.0,0.0,0.0,0.0,0.0,0.0,0.0,0.0,0.0,0.0,0.0,0.0,0.0,0.0,0.0,0.0,0.0,0.0,0.0,0.0,0.0,0.0,0.0,0.0,0.0,0.0,0.0,-0.0029,-0.0118,-0.1382,-0.2555,-0.2701,-0.4018,-0.513,-0.513,-0.63,-0.7706,-0.9175,-0.9288,-0.8141,-0.5128,-0.4724,-0.4721,-0.4721,-0.5977,-0.6813,-0.6813,-0.8097,-0.8912,-0.8912,-0.7595,-0.7426,-0.8857,-0.7568,-0.7487,-0.8892,-0.8923,-0.8926,-0.8933,-0.9124,-0.9221,-0.9224,-0.9349,-0.9424,0.9213,0.8237,0.7489,0.7183,0.7095,0.7095,0.7095,0.7205,0.7345,0.7386,0.757,0.7723,0.7797,0.7064,0.647,0.6501,0.5672,0.4893,0.4568,0.4638,0.4189,0.2735,0.3695,0.3606,0.1372,0.2153,0.232,0.1232,0.3243,0.3995,0.285,0.2794,0.2794,0.2794,0.1707,0.0952,0.056,0.0567,0.0372,0.0,0.0,0.0,0.0,0.0,0.0,0.0,0.0,0.0,0.0,0.0,0.0,0.0,0.0,0.0,0.0,0.0,0.0,0.0,0.0,0.0,0.0,0.0,0.0,0.0,0.0,0.0,0.0,0.0,0.0,0.0,0.0,0.0,0.0,0.0,0.0,-0.0353,-0.1587,-0.2203,-0.3169,-0.5481,-0.7177,-0.8261,-0.8261,-0.8555,-0.8939,-0.9352,-0.9376,-0.9033,-0.8119,-0.7877,-0.7789,-0.7789,-0.8125,-0.8349,-0.8349,-0.8688,-0.8912,-0.8912,-0.8546,-0.8519,-0.8881,-0.8546,-0.8595,-0.9124,-0.9124,-0.9182,-0.9269,-0.9335,-0.9352,-0.9356,-0.9479,-0.9551,0.8273,0.7621,0.7095,0.7095,0.7095,0.7112,0.7202,0.7309,0.743,0.7563,0.7695,0.7634,0.7107,0.6459,0.5802,0.5222,0.4493,0.379,0.3215,0.3191,0.2709,0.1304,0.1946,0.1847,0.0168,0.0756,0.0896,0.0056,0.1567,0.2153,0.1287,0.1231,0.1231,0.1231,0.042,0.0,0.0,0.0,0.0,0.0,0.0,0.0,0.0,0.0,0.0,0.0,0.0,0.0,0.0,0.0,0.0,0.0,0.0,0.0,0.0,0.0,0.0,0.0,0.0,0.0,0.0,0.0,0.0,0.0,0.0,0.0,0.0,0.0,0.0,0.0,0.0,0.0,0.0,0.0,-0.0571,-0.1351,-0.2309,-0.3623,-0.5383,-0.7803,-0.8972,-0.9574,-0.9574,-0.9574,-0.9574,-0.9574,-0.952,-0.9449,-0.9393,-0.9225,-0.9105,-0.9105,-0.9105,-0.9105,-0.9105,-0.9105,-0.9105,-0.9105,-0.9105,-0.9105,-0.9105,-0.9105,-0.9171,-0.9281,-0.9281,-0.9325,-0.941,-0.9449,-0.9483,-0.9486,-0.9632,-0.9703,0.7139,0.7095,0.7095,0.7095,0.7112,0.7185,0.7365,0.7423,0.7525,0.7756,0.7804,0.7461,0.6235,0.5854,0.53,0.3941,0.359,0.3065,0.1887,0.1738,0.13,0.0133,0.0,0.0,0.0,0.0,0.0,0.0,0.0,0.0,0.0,0.0,0.0,0.0,0.0,0.0,0.0,0.0,0.0,0.0,0.0,0.0,0.0,0.0,0.0,0.0,0.0,0.0,0.0,0.0,0.0,0.0,0.0,0.0,0.0,0.0,0.0,0.0,0.0,0.0,0.0,0.0,0.0,0.0,0.0,0.0,0.0,0.0,0.0,0.0,0.0,0.0,-0.0062,-0.0278,-0.1448,-0.2616,-0.3045,-0.5556,-0.8127,-0.9542,-0.9792,-0.9792,-0.9792,-0.9792,-0.9792,-0.9792,-0.9687,-0.9639,-0.9639,-0.949,-0.941,-0.941,-0.941,-0.941,-0.941,-0.941,-0.941,-0.941,-0.941,-0.941,-0.941,-0.941,-0.942,-0.9441,-0.9441,-0.9422,-0.9439,-0.9574,-0.9639,-0.9642,-0.9734,-0.9792,0.7382,0.7095,0.7095,0.7095,0.7238,0.7359,0.7389,0.756,0.775,0.7801,0.7888,0.7558,0.6251,0.5097,0.3917,0.2564,0.1411,0.0605,0.0379,0.0334,0.0262,0.0027,0.0,0.0,0.0,0.0,0.0,0.0,0.0,0.0,0.0,0.0,0.0,0.0,0.0,0.0,0.0,0.0,0.0,0.0,0.0,0.0,0.0,0.0,0.0,0.0,0.0,0.0,0.0,0.0,0.0,0.0,0.0,0.0,0.0,0.0,0.0,0.0,0.0,0.0,0.0,0.0,0.0,0.0,0.0,0.0,0.0,0.0,0.0,0.0,0.0,0.0,-0.0339,-0.1725,-0.2278,-0.3229,-0.5953,-0.8036,-0.9451,-0.9758,-0.9792,-0.9792,-0.9792,-0.9792,-0.9792,-0.9792,-0.9768,-0.9754,-0.9754,-0.9547,-0.941,-0.941,-0.941,-0.941,-0.941,-0.941,-0.941,-0.941,-0.941,-0.941,-0.941,-0.941,-0.9442,-0.9568,-0.9568,-0.9629,-0.9744,-0.9741,-0.9754,-0.9754,-0.9778,-0.9792,0.725,0.7095,0.7095,0.7095,0.7258,0.7416,0.7495,0.7655,0.781,0.7888,0.7962,0.7587,0.6257,0.4895,0.3565,0.2213,0.0882,0.0,0.0,0.0,0.0,0.0,0.0,0.0,0.0,0.0,0.0,0.0,0.0,0.0,0.0,0.0,0.0,0.0,0.0,0.0,0.0,0.0,0.0,0.0,0.0,0.0,0.0,0.0,0.0,0.0,0.0,0.0,0.0,0.0,0.0,0.0,0.0,0.0,0.0,0.0,0.0,0.0,0.0,0.0,0.0,0.0,0.0,0.0,0.0,0.0,0.0,0.0,0.0,0.0,0.0,0.0,-0.0432,-0.2094,-0.3812,-0.5708,-0.813,-0.9265,-0.9792,-0.9792,-0.9792,-0.9792,-0.9792,-0.9792,-0.9792,-0.9792,-0.9792,-0.9792,-0.9792,-0.9696,-0.9608,-0.9608,-0.9608,-0.9608,-0.9608,-0.9608,-0.9608,-0.9608,-0.9608,-0.9608,-0.9608,-0.9608,-0.9646,-0.969,-0.972,-0.9721,-0.9792,-0.9792,-0.9792,-0.9792,-0.9792,-0.9832,0.7095,0.7095,0.7102,0.7158,0.7305,0.7481,0.7611,0.7756,0.7868,0.7989,0.7988,0.7587,0.6257,0.4895,0.3565,0.2213,0.0882,0.0,0.0,0.0,0.0,0.0,0.0,0.0,0.0,0.0,0.0,0.0,0.0,0.0,0.0,0.0,0.0,0.0,0.0,0.0,0.0,0.0,0.0,0.0,0.0,0.0,0.0,0.0,0.0,0.0,0.0,0.0,0.0,0.0,0.0,0.0,0.0,0.0,0.0,0.0,0.0,0.0,0.0,0.0,0.0,0.0,0.0,0.0,0.0,0.0,0.0,0.0,0.0,0.0,0.0,-0.0278,-0.1048,-0.3076,-0.58,-0.8252,-0.9511,-0.9792,-0.9792,-0.9792,-0.9792,-0.9792,-0.9792,-0.9792,-0.9792,-0.9792,-0.9792,-0.9792,-0.9792,-0.9792,-0.9792,-0.9792,-0.9792,-0.9792,-0.9792,-0.9792,-0.9792,-0.9792,-0.9792,-0.9792,-0.9792,-0.9792,-0.9792,-0.9792,-0.9792,-0.9792,-0.9792,-0.9792,-0.9792,-0.9792,-0.9822,-0.9903,0.7095,0.7095,0.7151,0.7338,0.7488,0.7614,0.7756,0.7885,0.7996,0.7985,0.7988,0.7587,0.6257,0.4895,0.3565,0.2213,0.0882,0.0,0.0,0.0,0.0,0.0,0.0,0.0,0.0,0.0,0.0,0.0,0.0,0.0,0.0,0.0,0.0,0.0,0.0,0.0,0.0,0.0,0.0,0.0,0.0,0.0,0.0,0.0,0.0,0.0,0.0,0.0,0.0,0.0,0.0,0.0,0.0,0.0,0.0,0.0,0.0,0.0,0.0,0.0,0.0,0.0,0.0,0.0,0.0,0.0,0.0,0.0,0.0,0.0,0.0,-0.1141,-0.3076,-0.6198,-0.8282,-0.9606,-0.9758,-0.9792,-0.9792,-0.9792,-0.9792,-0.9792,-0.9792,-0.9792,-0.9792,-0.9792,-0.9792,-0.9792,-0.9792,-0.9792,-0.9792,-0.9792,-0.9792,-0.9792,-0.9792,-0.9792,-0.9792,-0.9792,-0.9792,-0.9792,-0.9792,-0.9792,-0.9792,-0.9792,-0.9792,-0.9792,-0.9792,-0.9792,-0.9792,-0.9795,-0.9934,-0.9974,0.7095,0.7095,0.7154,0.7355,0.7512,0.7638,0.778,0.7905,0.7988,0.7988,0.7988,0.7587,0.6257,0.5575,0.4495,0.2339,0.1561,0.0932,0.0101,0.0,0.0,0.0,0.0,0.0,0.0,0.0,0.0,0.0,0.0,0.0,0.0,0.0,0.0,0.0,0.0,0.0,0.0,0.0,0.0,0.0,0.0,0.0,0.0,0.0,0.0,0.0,0.0,0.0,0.0,0.0,0.0,0.0,0.0,0.0,0.0,0.0,0.0,0.0,0.0,0.0,0.0,0.0,0.0,0.0,0.0,0.0,0.0,0.0,0.0,-0.0247,-0.1233,-0.3474,-0.577,-0.7085,-0.862,-0.9792,-0.9792,-0.9792,-0.9792,-0.9792,-0.9792,-0.9792,-0.9792,-0.9792,-0.9792,-0.9792,-0.9792,-0.9792,-0.9792,-0.9792,-0.9792,-0.9792,-0.9792,-0.9792,-0.9792,-0.9792,-0.9792,-0.9792,-0.9792,-0.9792,-0.9792,-0.9792,-0.9792,-0.9792,-0.9792,-0.9792,-0.9792,-0.9792,-0.9839,-0.993,-0.9991,-1.0113,0.7095,0.7151,0.7222,0.7423,0.755,0.7699,0.782,0.7939,0.7988,0.7988,0.7988,0.7711,0.6756,0.5952,0.4797,0.289,0.1938,0.1084,0.0126,0.0,0.0,0.0,0.0,0.0,0.0,0.0,0.0,0.0,0.0,0.0,0.0,0.0,0.0,0.0,0.0,0.0,0.0,0.0,0.0,0.0,0.0,0.0,0.0,0.0,0.0,0.0,0.0,0.0,0.0,0.0,0.0,0.0,0.0,0.0,0.0,0.0,0.0,0.0,0.0,0.0,0.0,0.0,0.0,0.0,0.0,0.0,0.0,0.0,-0.037,-0.1233,-0.3382,-0.5678,-0.7512,-0.8005,-0.8988,-0.9792,-0.9792,-0.9792,-0.9792,-0.9792,-0.9792,-0.9792,-0.9792,-0.9792,-0.9792,-0.9792,-0.9792,-0.9792,-0.9792,-0.9792,-0.9792,-0.9792,-0.9792,-0.9792,-0.9792,-0.9792,-0.9792,-0.9792,-0.9792,-0.9792,-0.9792,-0.9792,-0.9792,-0.9792,-0.9792,-0.9792,-0.9792,-0.9836,-0.9913,-0.9987,-1.0109,-1.0285,0.7095,0.7251,0.743,0.756,0.7702,0.7824,0.7976,0.7988,0.7988,0.7988,0.7988,0.7988,0.7988,0.5822,0.4016,0.3991,0.1762,0.0025,0.0,0.0,0.0,0.0,0.0,0.0,0.0,0.0,0.0,0.0,0.0,0.0,0.0,0.0,0.0,0.0,0.0,0.0,0.0,0.0,0.0,0.0,0.0,0.0,0.0,0.0,0.0,0.0,0.0,0.0,0.0,0.0,0.0,0.0,0.0,0.0,0.0,0.0,0.0,0.0,0.0,0.0,0.0,0.0,0.0,0.0,0.0,0.0,0.0,0.0,-0.1202,-0.323,-0.6503,-0.736,-0.7789,-0.939,-0.9792,-0.9792,-0.9792,-0.9792,-0.9792,-0.9792,-0.9792,-0.9792,-0.9792,-0.9792,-0.9792,-0.9792,-0.9792,-0.9792,-0.9792,-0.9792,-0.9792,-0.9792,-0.9792,-0.9792,-0.9792,-0.9792,-0.9792,-0.9792,-0.9792,-0.9792,-0.9792,-0.9792,-0.9792,-0.9792,-0.9792,-0.9792,-0.9792,-0.9944,-0.9984,-1.0025,-1.0351,-1.0571,0.7272,0.7355,0.7454,0.7682,0.7777,0.7827,0.7979,0.7988,0.7988,0.7988,0.7988,0.7711,0.6808,0.5927,0.4772,0.2939,0.1913,0.1058,0.0126,0.0,0.0,0.0,0.0,0.0,0.0,0.0,0.0,0.0,0.0,0.0,0.0,0.0,0.0,0.0,0.0,0.0,0.0,0.0,0.0,0.0,0.0,0.0,0.0,0.0,0.0,0.0,0.0,0.0,0.0,0.0,0.0,0.0,0.0,0.0,0.0,0.0,0.0,0.0,0.0,0.0,0.0,0.0,-0.0771,-0.1694,-0.1694,-0.1694,-0.194,-0.3045,-0.4547,-0.6075,-0.7116,-0.8218,-0.9174,-0.9667,-0.9792,-0.9792,-0.9792,-0.9792,-0.9792,-0.9792,-0.9792,-0.9792,-0.9792,-0.9792,-0.9792,-0.9792,-0.9792,-0.9792,-0.9792,-0.9792,-0.9792,-0.9792,-0.9792,-0.9792,-0.9792,-0.9792,-0.9792,-0.9792,-0.9792,-0.9792,-0.9792,-0.9792,-0.9792,-0.9792,-0.9792,-0.9842,-0.9947,-0.9963,-1.0123,-1.0358,-1.0555,-1.0673,0.7369,0.7437,0.7536,0.775,0.7831,0.7898,0.7993,0.7988,0.7988,0.7988,0.7988,0.7739,0.6908,0.6331,0.53,0.3116,0.2339,0.1536,0.0177,0.0,0.0,0.0,0.0,0.0,0.0,0.0,0.0,0.0,0.0,0.0,0.0,0.0,0.0,0.0,0.0,0.0,0.0,0.0,0.0,0.0,0.0,0.0,0.0,0.0,0.0,0.0,0.0,0.0,0.0,0.0,0.0,0.0,0.0,0.0,0.0,0.0,0.0,0.0,0.0,0.0,0.0,0.0,-0.1141,-0.2739,-0.3964,-0.3903,-0.3751,-0.5374,-0.6597,-0.7543,-0.8158,-0.9049,-0.9792,-0.9792,-0.9792,-0.9792,-0.9792,-0.9792,-0.9792,-0.9792,-0.9792,-0.9792,-0.9792,-0.9792,-0.9792,-0.9792,-0.9792,-0.9792,-0.9792,-0.9792,-0.9792,-0.9792,-0.9792,-0.9792,-0.9792,-0.9792,-0.9792,-0.9792,-0.9792,-0.9792,-0.9792,-0.9792,-0.9792,-0.9792,-0.9846,-0.9923,-0.9987,-1.013,-1.0309,-1.0578,-1.0677,-1.0688,0.0,0.7529,0.7648,0.779,0.7908,0.7988,0.7988,0.7988,0.0,0.7988,0.7988,0.7988,0.7988,0.683,0.545,0.4191,0.279,0.1436,0.0177,0.0,0.0,0.0,0.0,0.0,0.0,0.0,0.0,0.0,0.0,0.0,0.0,0.0,0.0,0.0,0.0,0.0,0.0,0.0,0.0,0.0,0.0,0.0,0.0,0.0,0.0,0.0,0.0,0.0,0.0,0.0,0.0,0.0,0.0,0.0,0.0,0.0,0.0,0.0,0.0,-0.0093,-0.0216,-0.0463,-0.1571,-0.3444,-0.6625,-0.6414,-0.5437,-0.7085,-0.7576,-0.7914,-0.942,-0.9792,-0.9792,-0.9792,-0.9792,-0.9792,-0.9792,-0.9792,-0.9792,-0.9792,-0.9792,-0.9792,-0.9792,-0.9792,-0.9792,-0.9792,-0.9792,-0.9792,-0.9792,-0.9792,-0.9792,-0.9792,-0.9792,-0.9792,-0.9792,-0.9792,-0.9792,-0.9792,-0.9792,-0.9792,-0.9792,-0.9792,-0.9795,-0.9805,-0.9964,-1.0049,-1.0049,-1.0368,-1.0582,-1.0688,-1.0688,-1.0688,0.7645,0.0,0.7797,0.7922,0.7989,0.7988,0.0,0.7988,0.7988,0.7988,0.7988,0.7988,0.7988,0.6074,0.4368,0.4041,0.2013,0.0353,0.0051,0.0,0.0,0.0,0.0,0.0,0.0,0.0,0.0,0.0,0.0,0.0,0.0,0.0,0.0,0.0,0.0,0.0,0.0,0.0,0.0,0.0,0.0,0.0,0.0,0.0,0.0,0.0,0.0,0.0,0.0,0.0,0.0,0.0,0.0,0.0,0.0,0.0,0.0,0.0,0.0,-0.0833,-0.2339,-0.4851,-0.592,-0.6625,-0.862,-0.8097,-0.7146,-0.8775,-0.9235,-0.9329,-0.9697,-0.9792,-0.9792,-0.9792,-0.9792,-0.9792,-0.9792,-0.9792,-0.9792,-0.9792,-0.9792,-0.9792,-0.9792,-0.9792,-0.9792,-0.9792,-0.9792,-0.9792,-0.9792,-0.9792,-0.9792,-0.9792,-0.9792,-0.9792,-0.9792,-0.9792,-0.9792,-0.9792,-0.9792,-0.9792,-0.9792,-0.9792,-0.9846,-0.9961,-1.0253,-1.0388,-1.0388,-1.0575,-1.0683,-1.0688,-1.0688,-1.0688,0.8666,0.8262,0.7824,0.7976,0.7988,0.7988,0.7988,0.7988,0.7988,0.7988,0.7988,0.7988,0.7988,0.6301,0.4718,0.4091,0.2264,0.0706,0.0076,0.0,0.0,0.0,0.0,0.0,0.0,0.0,0.0,0.0,0.0,0.0,0.0,0.0,0.0,0.0,0.0,0.0,0.0,0.0,0.0,0.0,0.0,0.0,0.0,0.0,0.0,0.0,0.0,0.0,0.0,0.0,0.0,0.0,0.0,0.0,0.0,0.0,0.0,-0.0123,-0.0894,-0.2217,-0.4027,-0.6564,-0.739,-0.7698,-0.9295,-0.9204,-0.8681,-0.9545,-0.9792,-0.9792,-0.9792,-0.9792,-0.9792,-0.9792,-0.9792,-0.9792,-0.9792,-0.9792,-0.9792,-0.9792,-0.9792,-0.9792,-0.9792,-0.9792,-0.9792,-0.9792,-0.9792,-0.9792,-0.9792,-0.9792,-0.9792,-0.9792,-0.9792,-0.9792,-0.9792,-0.9792,-0.9792,-0.9792,-0.9792,-0.9792,-0.9792,-0.9856,-0.9998,-1.0214,-1.0409,-1.0527,-1.0599,-1.0647,-1.0688,-1.0688,-1.0688,-1.0688,0.982,0.885,0.7854,0.7983,0.7988,0.7988,0.7988,0.7988,0.7988,0.7988,0.7988,0.7939,0.7739,0.6756,0.55,0.3942,0.2564,0.131,0.0151,0.0,0.0,0.0,0.0,0.0,0.0,0.0,0.0,0.0,0.0,0.0,0.0,0.0,0.0,0.0,0.0,0.0,0.0,0.0,0.0,0.0,0.0,0.0,0.0,0.0,0.0,0.0,0.0,0.0,0.0,0.0,0.0,0.0,0.0,0.0,0.0,0.0,-0.0154,-0.0648,-0.2585,-0.4149,-0.5557,-0.7238,-0.7759,-0.8036,-0.939,-0.9792,-0.9792,-0.9792,-0.9792,-0.9792,-0.9792,-0.9792,-0.9792,-0.9792,-0.9792,-0.9792,-0.9792,-0.9792,-0.9792,-0.9792,-0.9792,-0.9792,-0.9792,-0.9792,-0.9792,-0.9792,-0.9792,-0.9792,-0.9792,-0.9792,-0.9792,-0.9792,-0.9792,-0.9792,-0.9792,-0.9792,-0.9802,-0.9822,-0.9802,-0.9802,-0.9822,-0.9991,-1.0204,-1.0487,-1.0514,-1.0592,-1.0688,-1.0688,-1.0688,-1.0688,-1.0688,-1.0688,0.9937,0.8981,0.7986,0.7985,0.7988,0.7988,0.7988,0.7988,0.7988,0.7988,0.7988,0.7662,0.6506,0.6129,0.52,0.2715,0.1184,0.0227,0.0025,0.0,0.0,0.0,0.0,0.0,0.0,0.0,0.0,0.0,0.0,0.0,0.0,0.0,0.0,0.0,0.0,0.0,0.0,0.0,0.0,0.0,0.0,0.0,0.0,0.0,0.0,0.0,0.0,0.0,0.0,0.0,0.0,0.0,0.0,0.0,0.0,0.0,-0.0894,-0.2554,-0.5586,-0.6808,-0.7268,-0.8897,-0.942,-0.9481,-0.9727,-0.9792,-0.9792,-0.9792,-0.9792,-0.9792,-0.9792,-0.9792,-0.9792,-0.9792,-0.9792,-0.9792,-0.9792,-0.9792,-0.9792,-0.9792,-0.9792,-0.9792,-0.9792,-0.9792,-0.9792,-0.9792,-0.9792,-0.9792,-0.9792,-0.9792,-0.9792,-0.9792,-0.9792,-0.9792,-0.9792,-0.9792,-0.9846,-0.9974,-0.9863,-0.9849,-0.9978,-1.0245,-1.0446,-1.049,-1.0619,-1.0664,-1.0688,-1.0688,-1.0688,-1.0688,-1.0688,-1.0688,1.102,0.9534,0.7988,0.7988,0.7988,0.7988,0.7988,0.7988,0.7988,0.7988,0.7988,0.7587,0.6257,0.54,0.4044,0.136,0.0404,0.0,0.0,0.0,0.0,0.0,0.0,0.0,0.0,0.0,0.0,0.0,0.0,0.0,0.0,0.0,0.0,0.0,0.0,0.0,0.0,0.0,0.0,0.0,0.0,0.0,0.0,0.0,0.0,0.0,0.0,0.0,0.0,0.0,0.0,0.0,0.0,0.0,-0.0123,-0.1017,-0.2953,-0.5372,-0.6869,-0.7972,-0.8803,-0.9576,-0.9792,-0.9792,-0.9792,-0.9792,-0.9792,-0.9792,-0.9792,-0.9792,-0.9792,-0.9792,-0.9792,-0.9792,-0.9792,-0.9792,-0.9792,-0.9792,-0.9792,-0.9792,-0.9792,-0.9792,-0.9792,-0.9792,-0.9792,-0.9792,-0.9792,-0.9792,-0.9792,-0.9792,-0.9792,-0.9792,-0.9863,-0.9913,-0.9913,-1.0019,-1.0063,-0.9987,-1.0032,-1.0134,-1.0251,-1.0419,-1.0531,-1.0612,-1.0683,-1.0688,-1.0688,-1.0688,-1.0688,-1.0688,-1.0688,-1.0688,1.1896,0.9998,0.7988,0.7988,0.7988,0.7988,0.7988,0.7988,0.7988,0.7988,0.7988,0.7587,0.6257,0.4645,0.2864,0.0807,0.0202,0.0,0.0,0.0,0.0,0.0,0.0,0.0,0.0,0.0,0.0,0.0,0.0,0.0,0.0,0.0,0.0,0.0,0.0,0.0,0.0,0.0,0.0,0.0,0.0,0.0,0.0,0.0,0.0,0.0,0.0,0.0,0.0,0.0,0.0,0.0,0.0,-0.0247,-0.0833,-0.2892,-0.525,-0.7451,-0.782,-0.8775,-0.9792,-0.9792,-0.9792,-0.9792,-0.9792,-0.9792,-0.9792,-0.9792,-0.9792,-0.9792,-0.9792,-0.9792,-0.9792,-0.9792,-0.9792,-0.9792,-0.9792,-0.9792,-0.9792,-0.9792,-0.9792,-0.9792,-0.9792,-0.9792,-0.9792,-0.9792,-0.9819,-0.9842,-0.9842,-0.9876,-0.9927,-0.9927,-1.0005,-1.0072,-1.0072,-1.0243,-1.028,-1.013,-1.0263,-1.0378,-1.0487,-1.0527,-1.0602,-1.0684,-1.0688,-1.0688,-1.0688,-1.0688,-1.0688,-1.0688,-1.0688,-1.0688,1.1896,0.9998,0.7988,0.7988,0.7988,0.7988,0.7988,0.7988,0.7988,0.7988,0.7988,0.7587,0.6257,0.3895,0.2088,0.1887,0.0807,0.0,0.0,0.0,0.0,0.0,0.0,0.0,0.0,0.0,0.0,0.0,0.0,0.0,0.0,0.0,0.0,0.0,0.0,0.0,0.0,0.0,0.0,0.0,0.0,0.0,0.0,0.0,0.0,0.0,0.0,0.0,0.0,0.0,0.0,0.0,0.0,-0.0956,-0.2708,-0.5892,-0.7207,-0.7604,-0.9113,-0.9697,-0.9792,-0.9792,-0.9792,-0.9792,-0.9792,-0.9792,-0.9792,-0.9792,-0.9792,-0.9792,-0.9792,-0.9792,-0.9792,-0.9792,-0.9792,-0.9792,-0.9792,-0.9792,-0.9792,-0.9792,-0.9792,-0.9792,-0.9792,-0.9792,-0.9792,-0.9792,-0.991,-0.997,-0.997,-1.0158,-1.0246,-1.0246,-1.0256,-1.0263,-1.0263,-1.0395,-1.0473,-1.046,-1.047,-1.048,-1.049,-1.0629,-1.0677,-1.0688,-1.0688,-1.0688,-1.0688,-1.0688,-1.0688,-1.0688,-1.0688,-1.0688,1.1896,0.9998,0.7988,0.7988,0.7988,0.7988,0.7988,0.7988,0.7988,0.7988,0.7988,0.7332,0.5145,0.2565,0.0756,0.0756,0.0328,0.0,0.0,0.0,0.0,0.0,0.0,0.0,0.0,0.0,0.0,0.0,0.0,0.0,0.0,0.0,0.0,0.0,0.0,0.0,0.0,0.0,0.0,0.0,0.0,0.0,0.0,0.0,0.0,0.0,0.0,0.0,0.0,0.0,0.0,-0.0093,-0.1141,-0.3198,-0.5708,-0.6933,-0.8036,-0.8988,-0.9576,-0.9792,-0.9792,-0.9792,-0.9792,-0.9792,-0.9792,-0.9792,-0.9792,-0.9792,-0.9792,-0.9792,-0.9792,-0.9792,-0.9792,-0.9792,-0.9792,-0.9792,-0.9792,-0.9792,-0.9792,-0.9792,-0.9792,-0.9792,-0.9792,-0.9869,-0.9934,-0.9934,-1.0062,-1.0195,-1.0195,-1.0246,-1.0312,-1.0312,-1.0358,-1.0453,-1.0544,-1.0602,-1.0633,-1.0633,-1.0633,-1.0633,-1.0633,-1.0654,-1.0688,-1.0688,-1.0688,-1.0688,-1.0688,-1.0688,-1.0688,-1.0688,-1.0688,-1.0688,1.1292,0.9678,0.7988,0.7988,0.7988,0.7988,0.7988,0.7988,0.7988,0.7988,0.7988,0.7182,0.4491,0.2489,0.0983,0.0126,0.0,0.0,0.0,0.0,0.0,0.0,0.0,0.0,0.0,0.0,0.0,0.0,0.0,0.0,0.0,0.0,0.0,0.0,0.0,0.0,0.0,0.0,0.0,0.0,0.0,0.0,0.0,0.0,0.0,0.0,0.0,0.0,0.0,0.0,-0.0309,-0.1017,-0.3198,-0.5433,-0.7451,-0.7972,-0.8867,-0.9792,-0.9792,-0.9792,-0.9792,-0.9792,-0.9792,-0.9792,-0.9792,-0.9792,-0.9792,-0.9792,-0.9792,-0.9792,-0.9792,-0.9792,-0.9792,-0.9792,-0.9792,-0.9792,-0.9792,-0.9792,-0.9792,-0.9792,-0.9792,-0.9805,-0.9852,-0.995,-1.0035,-1.0082,-1.0249,-1.0348,-1.0348,-1.0388,-1.0419,-1.0419,-1.0507,-1.0605,-1.0677,-1.0688,-1.0688,-1.0688,-1.0688,-1.0688,-1.0688,-1.0688,-1.0688,-1.0688,-1.0688,-1.0688,-1.0688,-1.0688,-1.0688,-1.0688,-1.0688,-1.0688,0.9998,0.9019,0.7988,0.7988,0.7988,0.7988,0.7988,0.7988,0.7988,0.7988,0.7988,0.7154,0.4491,0.3991,0.309,0.0429,0.0,0.0,0.0,0.0,0.0,0.0,0.0,0.0,0.0,0.0,0.0,0.0,0.0,0.0,0.0,0.0,0.0,0.0,0.0,-0.0028,0.0,-0.0028,-0.0028,0.0,-0.0028,0.0,0.0,0.0,0.0,0.0,0.0,0.0,-0.0031,-0.0031,-0.1048,-0.2861,-0.6137,-0.7421,-0.7606,-0.9204,-0.9792,-0.9792,-0.9792,-0.9792,-0.9792,-0.9792,-0.9792,-0.9792,-0.9792,-0.9792,-0.9792,-0.9792,-0.9792,-0.9792,-0.9792,-0.9792,-0.9792,-0.9792,-0.9792,-0.9792,-0.9792,-0.9792,-0.9792,-0.9792,-0.9792,-0.9842,-0.9991,-0.9987,-1.0076,-1.0259,-1.0437,-1.0493,-1.0493,-1.0626,-1.0688,-1.0688,-1.0688,-1.0688,-1.0688,-1.0688,-1.0688,-1.0688,-1.0688,-1.0688,-1.0688,-1.0688,-1.0688,-1.0688,-1.0688,-1.0688,-1.0688,-1.0688,-1.0688,-1.0688,-1.0688,-1.0688,0.9998,0.9019,0.7988,0.7988,0.7988,0.7988,0.7988,0.7988,0.7988,0.7988,0.6501,0.4943,0.4141,0.2464,0.0932,0.0126,0.0,0.0,0.0,0.0,0.0,0.0,0.0,0.0,0.0,0.0,0.0,0.0,0.0,0.0,0.0,0.0,0.0,0.0,-0.1008,-0.1035,0.0,-0.2098,-0.2098,0.0,-0.1063,-0.1017,0.0,0.0,0.0,0.0,0.0,-0.0672,-0.1848,-0.2985,-0.4424,-0.6045,-0.7024,-0.8097,-0.9143,-0.9636,-0.9792,-0.9792,-0.9792,-0.9792,-0.9792,-0.9792,-0.9792,-0.9792,-0.9792,-0.9792,-0.9792,-0.9792,-0.9792,-0.9792,-0.9792,-0.9792,-0.9792,-0.9792,-0.9792,-0.9792,-0.9792,-0.9792,-0.9792,-0.9792,-0.9879,-0.9964,-0.998,-1.0191,-1.0378,-1.0422,-1.0558,-1.0653,-1.0653,-1.0694,-1.0688,-1.0688,-1.0688,-1.0688,-1.0688,-1.0688,-1.0688,-1.0688,-1.0688,-1.0688,-1.0688,-1.0688,-1.0688,-1.0688,-1.0688,-1.0688,-1.0688,-1.0688,-1.0688,-1.0688,-1.0688,-1.0688,0.9217,0.8602,0.7988,0.7988,0.7988,0.7988,0.7988,0.7988,0.7839,0.731,0.5924,0.4468,0.3391,0.1887,0.0631,0.0076,0.0,0.0,0.0,0.0,0.0,0.0,0.0,0.0,0.0,0.0,0.0,0.0,0.0,0.0,0.0,0.0,0.0,0.0,-0.1426,-0.1761,-0.0896,-0.3297,-0.3578,-0.1791,-0.2069,-0.1743,-0.0853,-0.0258,-0.0319,-0.0917,-0.1586,-0.2449,-0.3506,-0.5208,-0.6475,-0.7451,-0.8097,-0.8958,-0.9792,-0.9792,-0.9792,-0.9792,-0.9792,-0.9792,-0.9792,-0.9792,-0.9792,-0.9792,-0.9792,-0.9792,-0.9792,-0.9792,-0.9792,-0.9792,-0.9792,-0.9792,-0.9792,-0.9792,-0.9792,-0.9792,-0.9792,-0.9792,-0.9792,-0.9792,-0.9913,-1.0038,-1.0099,-1.0337,-1.0514,-1.0571,-1.066,-1.0688,-1.0688,-1.0688,-1.0688,-1.0688,-1.0688,-1.0688,-1.0688,-1.0688,-1.0688,-1.0688,-1.0688,-1.0688,-1.0688,-1.0688,-1.0688,-1.0688,-1.0688,-1.0688,-1.0688,-1.0688,-1.0688,-1.0688,-1.0688,-1.0688,0.7988,0.7988,0.7988,0.7988,0.7914,0.7814,0.7814,0.7711,0.7335,0.6232,0.5802,0.4897,0.244,0.1913,0.1411,0.0202,0.0,0.0,0.0,0.0,0.0,0.0,0.0,0.0,0.0,0.0,0.0,0.0,0.0,0.0,0.0,0.0,-0.0056,-0.0196,-0.165,-0.2403,-0.2403,-0.4078,-0.4778,-0.4498,-0.3212,-0.2543,-0.2348,-0.0882,-0.1003,-0.2497,-0.4168,-0.4915,-0.5047,-0.685,-0.7596,-0.7759,-0.9235,-0.9792,-0.9792,-0.9792,-0.9792,-0.9792,-0.9792,-0.9792,-0.9792,-0.9792,-0.9792,-0.9792,-0.9792,-0.9792,-0.9792,-0.9792,-0.9792,-0.9792,-0.9792,-0.9792,-0.9792,-0.9792,-0.9792,-0.9792,-0.9792,-0.9792,-0.9792,-0.9792,-0.9927,-1.0082,-1.0256,-1.0409,-1.0561,-1.0667,-1.0688,-1.0688,-1.0688,-1.0688,-1.0688,-1.0688,-1.0688,-1.0688,-1.0688,-1.0688,-1.0688,-1.0688,-1.0688,-1.0688,-1.0688,-1.0688,-1.0688,-1.0688,-1.0688,-1.0688,-1.0688,-1.0688,-1.0688,-1.0688,-1.0688,-1.0688,0.7988,0.7988,0.7988,0.7988,0.721,0.6431,0.6431,0.5625,0.507,0.5852,0.4321,0.2691,0.2113,0.1134,0.0328,0.0051,0.0,0.0,0.0,0.0,0.0,0.0,0.0,0.0,0.0,0.0,0.0,0.0,0.0,0.0,0.0,0.0,-0.0532,-0.1677,-0.3214,-0.3995,-0.3995,-0.6644,-0.6785,-0.4498,-0.5333,-0.5137,-0.3968,-0.2413,-0.2574,-0.4095,-0.5722,-0.6493,-0.6722,-0.8432,-0.9202,-0.9326,-0.9667,-0.9792,-0.9792,-0.9792,-0.9792,-0.9792,-0.9792,-0.9792,-0.9792,-0.9792,-0.9792,-0.9792,-0.9792,-0.9792,-0.9792,-0.9792,-0.9792,-0.9792,-0.9792,-0.9792,-0.9792,-0.9792,-0.9792,-0.9792,-0.9792,-0.9792,-0.9792,-0.9792,-1.0042,-1.0243,-1.0276,-1.0497,-1.068,-1.0714,-1.0688,-1.0688,-1.0688,-1.0688,-1.0688,-1.0688,-1.0688,-1.0688,-1.0688,-1.0688,-1.0688,-1.0688,-1.0688,-1.0688,-1.0688,-1.0688,-1.0688,-1.0688,-1.0688,-1.0688,-1.0688,-1.0688,-1.0688,-1.0688,-1.0688,-1.0688,0.7988,0.7988,0.7988,0.7988,0.6983,0.6004,0.6004,0.447,0.3242,0.3944,0.2967,0.1812,0.1159,0.0479,0.0,0.0,0.0,0.0,0.0,0.0,0.0,0.0,0.0,0.0,0.0,0.0,0.0,0.0,0.0,-0.0308,-0.1008,-0.1063,-0.1734,-0.3242,-0.4777,-0.5558,-0.5558,-0.7789,-0.8128,-0.6616,-0.6672,-0.6311,-0.553,-0.4717,-0.4795,-0.5658,-0.7304,-0.8031,-0.8186,-0.9111,-0.9588,-0.969,-0.969,-0.9731,-0.9792,-0.9792,-0.9792,-0.9792,-0.9792,-0.9792,-0.9792,-0.9792,-0.9792,-0.9792,-0.9792,-0.9792,-0.9792,-0.9792,-0.9792,-0.9792,-0.9792,-0.9792,-0.9792,-0.9792,-0.9792,-0.9792,-0.9792,-0.9792,-0.9792,-0.9792,-1.007,-1.0312,-1.0312,-1.0524,-1.0688,-1.0688,-1.0688,-1.0688,-1.0688,-1.0688,-1.0688,-1.0688,-1.0688,-1.0688,-1.0688,-1.0688,-1.0688,-1.0688,-1.0688,-1.0688,-1.0688,-1.0688,-1.0688,-1.0688,-1.0688,-1.0688,-1.0688,-1.0688,-1.0688,-1.0688,-1.0688,-1.0688,0.7988,0.7988,0.7939,0.7711,0.6656,0.56,0.5352,0.3419,0.1661,0.1661,0.1661,0.131,0.0202,0.0,0.0,0.0,0.0,0.0,0.0,0.0,0.0,0.0,0.0,0.0,0.0,0.0,0.0,0.0,0.0,-0.0644,-0.2124,-0.2208,-0.3017,-0.4832,-0.6061,-0.6813,-0.7066,-0.8294,-0.8912,-0.8881,-0.7651,-0.7093,-0.7093,-0.7093,-0.7093,-0.7154,-0.8551,-0.9158,-0.9221,-0.9318,-0.9432,-0.9571,-0.9571,-0.9656,-0.9754,-0.9754,-0.9768,-0.9792,-0.9792,-0.9792,-0.9792,-0.9792,-0.9792,-0.9792,-0.9792,-0.9792,-0.9792,-0.9792,-0.9792,-0.9792,-0.9792,-0.9792,-0.9792,-0.9792,-0.9792,-0.9792,-0.9792,-0.9792,-0.9792,-0.9792,-1.007,-1.0297,-1.0348,-1.0558,-1.0688,-1.0688,-1.0688,-1.0688,-1.0688,-1.0688,-1.0688,-1.0688,-1.0688,-1.0688,-1.0688,-1.0688,-1.0688,-1.0688,-1.0688,-1.0688,-1.0688,-1.0688,-1.0688,-1.0688,-1.0688,-1.0688,-1.0688,-1.0688,-1.0688,-1.0688,-1.0688,-1.0688,0.7988,0.7988,0.7711,0.6556,0.5247,0.3967,0.279,0.136,0.0278,0.0278,0.0278,0.0202,0.0025,0.0,0.0,0.0,0.0,0.0,0.0,0.0,0.0,0.0,0.0,0.0,0.0,0.0,0.0,0.0,0.0,-0.0644,-0.2124,-0.2208,-0.349,-0.6311,-0.6589,-0.7315,-0.8602,-0.8799,-0.8912,-0.8912,-0.8688,-0.8602,-0.8602,-0.8602,-0.8602,-0.8633,-0.8846,-0.9039,-0.921,-0.9231,-0.9301,-0.9441,-0.9441,-0.9503,-0.9639,-0.9639,-0.9687,-0.9792,-0.9792,-0.9792,-0.9792,-0.9792,-0.9792,-0.9792,-0.9792,-0.9792,-0.9792,-0.9792,-0.9792,-0.9792,-0.9792,-0.9792,-0.9792,-0.9792,-0.9792,-0.9792,-0.9792,-0.9792,-0.9792,-0.9792,-1.007,-1.0361,-1.0619,-1.0694,-1.0688,-1.0688,-1.0688,-1.0688,-1.0688,-1.0688,-1.0688,-1.0688,-1.0688,-1.0688,-1.0688,-1.0688,-1.0688,-1.0688,-1.0688,-1.0688,-1.0688,-1.0688,-1.0688,-1.0688,-1.0688,-1.0688,-1.0688,-1.0688,-1.0688,-1.0688,-1.0688,-1.0688,0.7083,0.6883,0.6556,0.5222,0.3867,0.2715,0.2138,0.0958,0.0,0.0,0.0,0.0,0.0,0.0,0.0,0.0,0.0,0.0,0.0,0.0,0.0,0.0,0.0,0.0,0.0,0.0,-0.0336,-0.1175,-0.1231,-0.2263,-0.4606,-0.4717,-0.5721,-0.7873,-0.7931,-0.8239,-0.8881,-0.8912,-0.8912,-0.8912,-0.8912,-0.8912,-0.8912,-0.8912,-0.8912,-0.8912,-0.8912,-0.8946,-0.9032,-0.9032,-0.912,-0.9281,-0.9281,-0.9376,-0.9493,-0.9578,-0.9649,-0.9713,-0.9761,-0.9792,-0.9792,-0.9792,-0.9792,-0.9792,-0.9792,-0.9792,-0.9792,-0.9792,-0.9792,-0.9792,-0.9792,-0.9792,-0.9792,-0.9792,-0.9792,-0.9792,-0.9792,-0.9792,-0.9815,-0.99,-1.0127,-1.0348,-1.0558,-1.0663,-1.0688,-1.0688,-1.0688,-1.0688,-1.0688,-1.0688,-1.0688,-1.0688,-1.0688,-1.0688,-1.0688,-1.0688,-1.0688,-1.0688,-1.0688,-1.0688,-1.0688,-1.0688,-1.0688,-1.0688,-1.0688,-1.0688,-1.0688,-1.0688,-1.0688,-1.0688,-1.0688,-1.0688,0.5852,0.55,0.5172,0.3817,0.274,0.1913,0.1561,0.0706,0.0,0.0,0.0,0.0,0.0,0.0,0.0,0.0,0.0,0.0,0.0,0.0,0.0,0.0,0.0,0.0,0.0,-0.0336,-0.1008,-0.2124,-0.2571,-0.3937,-0.6561,-0.6702,-0.7371,-0.8854,-0.8912,-0.8912,-0.8912,-0.8912,-0.8912,-0.8912,-0.8912,-0.8912,-0.8912,-0.8912,-0.8912,-0.8912,-0.8912,-0.8912,-0.8912,-0.8912,-0.9001,-0.9128,-0.9128,-0.922,-0.9366,-0.9452,-0.9517,-0.9571,-0.9717,-0.9737,-0.9744,-0.9778,-0.9792,-0.9792,-0.9792,-0.9792,-0.9792,-0.9792,-0.9792,-0.9792,-0.9792,-0.9792,-0.9792,-0.9792,-0.9792,-0.9792,-0.9792,-0.9792,-0.9836,-0.9988,-1.0109,-1.028,-1.046,-1.0585,-1.0673,-1.0681,-1.0688,-1.0688,-1.0688,-1.0688,-1.0688,-1.0688,-1.0688,-1.0688,-1.0688,-1.0688,-1.0688,-1.0688,-1.0688,-1.0688,-1.0688,-1.0688,-1.0688,-1.0688,-1.0688,-1.0688,-1.0688,-1.0688,-1.0688,-1.0688,-1.0688,-1.0688,0.4468,0.4116,0.3792,0.244,0.2063,0.1661,0.0404,0.005,0.0,0.0,0.0,0.0,0.0,0.0,0.0,0.0,0.0,0.0,0.0,0.0,0.0,0.0,0.0,0.0,0.0,-0.1259,-0.2124,-0.2208,-0.3548,-0.5057,-0.6619,-0.6702,-0.7371,-0.8854,-0.8912,-0.8912,-0.8912,-0.8912,-0.8912,-0.8912,-0.8912,-0.8912,-0.8912,-0.8912,-0.8912,-0.8912,-0.8912,-0.8912,-0.8912,-0.8912,-0.8916,-0.8923,-0.8923,-0.9039,-0.9221,-0.9231,-0.9298,-0.9444,-0.9568,-0.9618,-0.9642,-0.9748,-0.9792,-0.9792,-0.9792,-0.9792,-0.9792,-0.9792,-0.9792,-0.9792,-0.9792,-0.9792,-0.9792,-0.9792,-0.9792,-0.9792,-0.9792,-0.9792,-0.9836,-0.9988,-1.0025,-1.0123,-1.0443,-1.05,-1.0555,-1.0667,-1.0688,-1.0688,-1.0688,-1.0688,-1.0688,-1.0688,-1.0688,-1.0688,-1.0688,-1.0688,-1.0688,-1.0688,-1.0688,-1.0688,-1.0688,-1.0688,-1.0688,-1.0688,-1.0688,-1.0688,-1.0688,-1.0688,-1.0688,-1.0688,-1.0688,-1.0688,0.3085,0.2712,0.2388,0.1041,0.0725,0.0591,0.0103,0.0,0.0,0.0,0.0,0.0,0.0,0.0,0.0,0.0,0.0,0.0,0.0,0.0,0.0,0.0,-0.0837,-0.1399,-0.1399,-0.2795,-0.4078,-0.5023,-0.5611,-0.6561,-0.8042,-0.8097,-0.8349,-0.8881,-0.8912,-0.8912,-0.8912,-0.8912,-0.8912,-0.8912,-0.8912,-0.8912,-0.8912,-0.8912,-0.8912,-0.8912,-0.8912,-0.8912,-0.8912,-0.8912,-0.8912,-0.8912,-0.8912,-0.8943,-0.9025,-0.9148,-0.9216,-0.9284,-0.9437,-0.9527,-0.9618,-0.9669,-0.9717,-0.9792,-0.9792,-0.9792,-0.9792,-0.9792,-0.9792,-0.9792,-0.9792,-0.9792,-0.9792,-0.9792,-0.9792,-0.9792,-0.9792,-0.9792,-0.9805,-0.9863,-0.995,-1.0082,-1.0321,-1.0432,-1.0544,-1.0664,-1.0688,-1.0688,-1.0688,-1.0688,-1.0688,-1.0688,-1.0688,-1.0688,-1.0688,-1.0688,-1.0688,-1.0688,-1.0688,-1.0688,-1.0688,-1.0688,-1.0688,-1.0688,-1.0688,-1.0688,-1.0688,-1.0688,-1.0688,-1.0688,-1.0688,-1.0688,0.1692,0.1333,0.1127,0.0213,0.0,0.0,0.0,0.0,0.0,0.0,0.0,0.0,0.0,0.0,0.0,0.0,0.0,0.0,0.0,-0.044,-0.0747,-0.0727,-0.2069,-0.2961,-0.2961,-0.4357,-0.5641,-0.6619,-0.7149,-0.7873,-0.8854,-0.8912,-0.8912,-0.8912,-0.8912,-0.8912,-0.8912,-0.8912,-0.8912,-0.8912,-0.8912,-0.8912,-0.8912,-0.8912,-0.8912,-0.8912,-0.8912,-0.8912,-0.8912,-0.8912,-0.8912,-0.8912,-0.8912,-0.8912,-0.8923,-0.9045,-0.9111,-0.9131,-0.9281,-0.94,-0.9473,-0.9578,-0.9673,-0.9727,-0.9775,-0.9792,-0.9792,-0.9792,-0.9792,-0.9792,-0.9792,-0.9792,-0.9792,-0.9792,-0.9792,-0.9792,-0.9792,-0.9792,-0.9792,-0.9792,-0.9873,-0.9991,-1.0175,-1.0324,-1.0473,-1.0622,-1.0654,-1.0688,-1.0688,-1.0688,-1.0688,-1.0688,-1.0688,-1.0688,-1.0688,-1.0688,-1.0688,-1.0688,-1.0688,-1.0688,-1.0688,-1.1273,-1.1567,-1.1567,-1.2153,-1.2446,-1.2446,-1.1273,-1.0688,-1.0721,-1.1306,-1.1567,0.0,0.0,0.0,0.0,0.0,0.0,0.0,0.0,0.0,0.0,0.0,0.0,0.0,0.0,0.0,0.0,0.0,0.0,0.0,-0.1274,-0.2208,-0.2208,-0.3604,-0.4554,-0.4554,-0.5892,-0.6755,-0.6755,-0.8097,-0.8912,-0.8912,-0.8912,-0.8912,-0.8912,-0.8912,-0.8912,-0.8912,-0.8912,-0.8912,-0.8912,-0.8912,-0.8912,-0.8912,-0.8912,-0.8912,-0.8912,-0.8912,-0.8912,-0.8912,-0.8912,-0.8912,-0.8912,-0.8912,-0.8912,-0.8912,-0.8912,-0.8912,-0.8929,-0.9124,-0.9207,-0.923,-0.95,-0.9602,-0.9635,-0.9744,-0.9788,-0.9792,-0.9792,-0.9792,-0.9792,-0.9792,-0.9792,-0.9792,-0.9792,-0.9792,-0.9792,-0.9792,-0.9792,-0.9792,-0.9792,-0.9792,-0.9839,-0.9991,-1.0175,-1.0356,-1.047,-1.0619,-1.0714,-1.0688,-1.0688,-1.0688,-1.0688,-1.0688,-1.0688,-1.0688,-1.0688,-1.0688,-1.0688,-1.0754,-1.0787,-1.0787,-1.2446,-1.3386,-1.3386,-1.5042,-1.5913,-1.5881,-1.2508,-1.085,-1.0883,-1.2574,-1.3386,0.0108,0.0,0.0,0.0,0.0,0.0,0.0,0.0,0.0,0.0,0.0,0.0,0.0,0.0,0.0,0.0,0.0,0.0,0.0,-0.1283,-0.2208,-0.2208,-0.4495,-0.6089,-0.6089,-0.7426,-0.8294,-0.8294,-0.866,-0.8912,-0.8912,-0.8912,-0.8912,-0.8912,-0.8912,-0.8912,-0.8912,-0.8912,-0.8912,-0.8912,-0.8912,-0.8912,-0.8912,-0.8912,-0.8912,-0.8912,-0.8912,-0.8912,-0.8912,-0.8912,-0.8912,-0.8912,-0.8912,-0.8912,-0.8912,-0.8912,-0.8912,-0.8916,-0.8956,-0.9066,-0.9224,-0.9281,-0.9429,-0.9615,-0.9656,-0.971,-0.9792,-0.9792,-0.9792,-0.9792,-0.9792,-0.9792,-0.9792,-0.9792,-0.9792,-0.9792,-0.9792,-0.9792,-0.9792,-0.9792,-0.9792,-0.9839,-0.9991,-1.0055,-1.0167,-1.0453,-1.0527,-1.0595,-1.0707,-1.0688,-1.0688,-1.0688,-1.0688,-1.0688,-1.0688,-1.0688,-1.0688,-1.0688,-1.1894,-1.2574,-1.2574,-1.426,-1.5167,-1.5167,-1.5659,-1.5913,-1.5913,-1.4944,-1.446,-1.4456,-1.4977,-1.5167,0.0,0.0,0.0,0.0,0.0,0.0,0.0,0.0,0.0,0.0,0.0,0.0,0.0,0.0,-0.0196,-0.0812,-0.0924,-0.0924,-0.0924,-0.2208,-0.338,-0.3992,-0.6167,-0.7623,-0.7623,-0.8408,-0.8912,-0.8912,-0.8912,-0.8912,-0.8912,-0.8912,-0.8912,-0.8912,-0.8912,-0.8912,-0.8912,-0.8912,-0.8912,-0.8912,-0.8912,-0.8912,-0.8912,-0.8912,-0.8912,-0.8912,-0.8912,-0.8912,-0.8912,-0.8912,-0.8912,-0.8912,-0.8912,-0.8912,-0.8912,-0.8912,-0.8912,-0.8912,-0.8912,-0.8967,-0.91,-0.9162,-0.9301,-0.9442,-0.9571,-0.9666,-0.9714,-0.9775,-0.9792,-0.9792,-0.9792,-0.9792,-0.9792,-0.9792,-0.9792,-0.9792,-0.9792,-0.9792,-0.9792,-0.9792,-0.9792,-0.9819,-0.9907,-0.9978,-1.0096,-1.0368,-1.0456,-1.0548,-1.0667,-1.0688,-1.0979,-1.1699,-1.1795,-1.1795,-1.1795,-1.1795,-1.1795,-1.1795,-1.2738,-1.3615,-1.4362,-1.6048,-1.6985,-1.6985,-1.7699,-1.8052,-1.8052,-1.6598,-1.6269,-1.6985,-1.6237,-1.6307,0.0,0.0,0.0,0.0,0.0,0.0,0.0,0.0,0.0,0.0,0.0,0.0,0.0,0.0,-0.042,-0.1733,-0.2096,-0.2263,-0.2431,-0.377,-0.5222,-0.6533,-0.8014,-0.8912,-0.8912,-0.8912,-0.8912,-0.8912,-0.8912,-0.8912,-0.8912,-0.8912,-0.8912,-0.8912,-0.8912,-0.8912,-0.8912,-0.8912,-0.8912,-0.8912,-0.8912,-0.8912,-0.8912,-0.8912,-0.8912,-0.8912,-0.8912,-0.8912,-0.8912,-0.8912,-0.8912,-0.8912,-0.8912,-0.8912,-0.8912,-0.8912,-0.8912,-0.8912,-0.8912,-0.8912,-0.8933,-0.9114,-0.9169,-0.9233,-0.9476,-0.9585,-0.9639,-0.9751,-0.9792,-0.9792,-0.9792,-0.9792,-0.9792,-0.9792,-0.9792,-0.9792,-0.9792,-0.9792,-0.9792,-0.9792,-0.9792,-0.9792,-0.9792,-0.9903,-1.0045,-1.0232,-1.0378,-1.0586,-1.0934,-1.0969,-1.1666,-1.3386,-1.3582,-1.3582,-1.3582,-1.3582,-1.3582,-1.3582,-1.3774,-1.4553,-1.6108,-1.7859,-1.88,-1.88,-2.0297,-2.1109,-2.1077,-1.7988,-1.7275,-1.8768,-1.7211,-1.7307,0.0,0.0,0.0,0.0,0.0,0.0,0.0,0.0,0.0,0.0,0.0,0.0,0.0,0.0,-0.0084,-0.0392,-0.1426,-0.2626,-0.3883,-0.5333,-0.6366,-0.6672,-0.8014,-0.8912,-0.8912,-0.8912,-0.8912,-0.8912,-0.8912,-0.8912,-0.8912,-0.8912,-0.8912,-0.8912,-0.8912,-0.8912,-0.8912,-0.8912,-0.8912,-0.8912,-0.8912,-0.8912,-0.8912,-0.8912,-0.8912,-0.8912,-0.8912,-0.8912,-0.8912,-0.8912,-0.8912,-0.8912,-0.8912,-0.8912,-0.8912,-0.8912,-0.8912,-0.8912,-0.8912,-0.8912,-0.8916,-0.8943,-0.9059,-0.9221,-0.925,-0.9415,-0.9639,-0.9751,-0.9792,-0.9792,-0.9792,-0.9792,-0.9792,-0.9792,-0.9792,-0.9792,-0.9792,-0.9792,-0.9792,-0.9792,-0.9792,-0.9792,-0.9792,-0.9815,-0.9886,-1.0038,-1.0222,-1.0877,-1.2435,-1.2743,-1.3451,-1.5204,-1.5399,-1.5399,-1.5399,-1.5399,-1.5399,-1.5399,-1.6722,-1.7629,-1.7988,-1.968,-2.0589,-2.0589,-2.0912,-2.1109,-2.1109,-2.0424,-2.0265,-2.0589,-2.0227,-2.0259,0.0,0.0,0.0,0.0,0.0,0.0,0.0,0.0,0.0,0.0,0.0,-0.0224,-0.0952,-0.1091,-0.1594,-0.3102,-0.3965,-0.497,-0.6478,-0.6702,-0.698,-0.7706,-0.8463,-0.8912,-0.8912,-0.8912,-0.8912,-0.8912,-0.8912,-0.8912,-0.8912,-0.8912,-0.8912,-0.8912,-0.8912,-0.8912,-0.8912,-0.8912,-0.8912,-0.8912,-0.8912,-0.8912,-0.8912,-0.8912,-0.8912,-0.8912,-0.8912,-0.8912,-0.8912,-0.8912,-0.8912,-0.8912,-0.8912,-0.8912,-0.8912,-0.8912,-0.8912,-0.8912,-0.8912,-0.8912,-0.8912,-0.8912,-0.896,-0.9059,-0.9158,-0.9396,-0.9639,-0.9751,-0.9792,-0.9792,-0.9792,-0.9792,-0.9792,-0.9792,-0.9792,-0.9792,-0.9792,-1.0418,-1.0989,-1.0989,-1.1645,-1.1675,-1.0092,-1.0479,-1.0777,-1.0087,-1.0925,-1.1964,-1.2984,-1.3976,-1.5265,-1.7017,-1.7211,-1.7211,-1.7211,-1.7211,-1.7211,-1.7211,-1.802,-1.8896,-1.9776,-2.0652,-2.1109,-2.1109,-2.1109,-2.1109,-2.1109,-2.1109,-2.1109,-2.1109,-2.1109,-2.1109,0.0,0.0,0.0,0.0,0.0,0.0,0.0,0.0,0.0,0.0,0.0,-0.0448,-0.1928,-0.2208,-0.3069,-0.5782,-0.6493,-0.711,-0.8287,-0.7689,-0.7568,-0.8771,-0.8912,-0.8912,-0.8912,-0.8912,-0.8912,-0.8912,-0.8912,-0.8912,-0.8912,-0.8912,-0.8912,-0.8912,-0.8912,-0.8912,-0.8912,-0.8912,-0.8912,-0.8912,-0.8912,-0.8912,-0.8912,-0.8912,-0.8912,-0.8912,-0.8912,-0.8912,-0.8912,-0.8912,-0.8912,-0.8912,-0.8912,-0.8912,-0.8912,-0.8912,-0.8912,-0.8912,-0.8912,-0.8912,-0.8912,-0.8912,-0.8912,-0.8936,-0.9138,-0.9376,-0.9595,-0.971,-0.9768,-0.9792,-0.9792,-0.9792,-0.9792,-0.9792,-0.9792,-0.9879,-1.021,-1.1287,-1.2303,-1.2603,-1.3974,-1.4153,-1.1227,-1.1796,-1.2268,-1.1083,-1.2293,-1.3514,-1.3979,-1.5426,-1.7082,-1.88,-1.8998,-1.8998,-1.8998,-1.8998,-1.8998,-1.8998,-1.8998,-1.9642,-2.1046,-2.1109,-2.1109,-2.1109,-2.1109,-2.1109,-2.1109,-2.1109,-2.1109,-2.1109,-2.1109,-2.1109,0.0,0.0,0.0,0.0,0.0,0.0,0.0,0.0,0.0,0.0,0.0,-0.0448,-0.1928,0.0,0.0,-0.4242,-0.5723,-0.6719,-0.6755,-0.7856,-0.8716,-0.8881,-0.8912,-0.8912,-0.8912,-0.8912,-0.8912,-0.8912,-0.8912,-0.8912,-0.8912,-0.8912,-0.8912,-0.8912,-0.8912,-0.8912,-0.8912,-0.8912,-0.8912,-0.8912,-0.8912,-0.8912,-0.8912,-0.8912,-0.8912,-0.8912,-0.8912,-0.8912,-0.8912,-0.8912,-0.8912,-0.8912,-0.8912,-0.8912,-0.8912,-0.8912,-0.8912,-0.8912,-0.8912,-0.8912,-0.8912,-0.8912,-0.8912,-0.8936,-0.9138,-0.9301,-0.9439,-0.9591,-0.9694,-0.9792,-0.9792,-0.9792,-0.9792,-0.9792,-0.9792,-1.0179,-1.1619,-1.2067,-1.2633,-1.4038,-1.5636,-1.6168,-1.4361,-1.4217,-1.4282,-1.4097,-1.4622,-1.5603,-1.7151,-1.7854,-1.8864,-2.0621,-2.0817,-2.0817,-2.0817,-2.0817,-2.0817,-2.0817,-2.0817,-2.0881,-2.1077,-2.1109,-2.1109,-2.1109,-2.1109,-2.1109,-2.1109,-2.1109,-2.1109,-2.1109,-2.1109,-2.1109,0.0,0.0,0.0,0.0,0.0,0.0,-0.0196,0.0,0.0,0.0,0.0,0.0,0.0,0.0,0.0,0.0,-0.753,-0.7968,-0.7907,-0.848,-0.8912,-0.8912,-0.8912,-0.8912,-0.8912,-0.8912,-0.8912,-0.8912,-0.8912,-0.8912,-0.8912,-0.8912,-0.8912,-0.8912,-0.8912,-0.8912,-0.8912,-0.8912,-0.8912,-0.8912,-0.8912,-0.8912,-0.8912,-0.8912,-0.8912,-0.8912,-0.8912,-0.8912,-0.8912,-0.8912,-0.8912,-0.8912,-0.8912,-0.8912,-0.8912,-0.8912,-0.8912,-0.8912,-0.8912,-0.8912,-0.8912,-0.8912,-0.8912,-0.8936,-0.9138,-0.9226,-0.9328,-0.954,-0.9652,-0.9924,-1.0936,-1.1197,-1.1438,-1.2363,-1.2603,-1.2783,-1.3441,-1.4326,-1.5187,-1.5873,-1.7302,-1.8169,-1.7484,-1.6621,-1.5666,-1.4753,-1.5855,-1.708,-1.7798,-1.9143,-2.0297,-2.1014,-2.1109,-2.1109,-2.1109,-2.1109,-2.1109,-2.1109,-2.1109,-2.1109,-2.1109,-2.1109,-2.1109,-2.1109,-2.1109,-2.1109,-2.1109,-2.1109,-2.1109,-2.1109,-2.1109,-2.1109,-0.0112,0.0,0.0,0.0,0.0,0.0,0.0,0.0,0.0,0.0,0.0,0.0,0.0,0.0,0.0,0.0,0.0,-0.8896,-0.8855,-0.8885,-0.8912,-0.8912,-0.8912,-0.8912,-0.8912,-0.8912,-0.8912,-0.8912,-0.8912,-0.8912,-0.8912,-0.8912,-0.8912,-0.8912,-0.8912,-0.8912,-0.8912,-0.8912,-0.8912,-0.8912,-0.8912,-0.8912,-0.8912,-0.8912,-0.8912,-0.8912,-0.8912,-0.8912,-0.8912,-0.8912,-0.8912,-0.8912,-0.8912,-0.8912,-0.8912,-0.8912,-0.8912,-0.8912,-0.8912,-0.8912,-0.8912,-0.8912,-0.8912,-0.8929,-0.9062,-0.9152,-0.9312,-0.991,-1.0152,-1.0628,-1.2307,-1.2798,-1.3138,-1.4336,-1.4604,-1.4718,-1.5163,-1.6168,-1.7114,-1.7566,-1.8613,-1.9395,-1.9395,-1.8431,-1.7267,-1.6085,-1.7408,-1.8515,-1.8515,-2.0043,-2.1109,-2.1109,-2.1109,-2.1109,-2.1109,-2.1109,-2.1109,-2.1109,-2.1109,-2.1109,-2.1109,-2.1109,-2.1109,-2.1109,-2.1109,-2.1109,-2.1109,-2.1109,-2.1109,-2.1109,-2.1109,-2.1109,0.0,0.0,0.0,-0.0364,0.0,0.0,0.0,0.0,0.0,0.0,0.0,0.0,0.0,0.0,0.0,0.0,0.0,0.0,0.0,-0.8818,-0.8912,-0.8912,-0.8912,-0.8912,-0.8912,-0.8912,-0.8912,-0.8912,-0.8912,-0.8912,-0.8912,-0.8912,-0.8912,-0.8912,-0.8912,-0.8912,-0.8912,-0.8912,-0.8912,-0.8912,-0.8912,-0.8912,-0.8912,-0.8912,-0.8912,-0.8912,-0.8912,-0.8912,-0.8912,-0.8912,-0.8912,-0.8912,-0.8912,-0.8912,-0.8912,-0.8912,-0.8912,-0.8912,-0.8912,-0.8912,-0.8912,-0.8912,-0.8912,-0.8912,-0.8916,-0.9042,-0.949,-1.086,-1.1565,-1.2252,-1.3737,-1.4344,-1.4545,-1.4604,-1.4604,-1.502,-1.658,-1.6968,-1.7472,-1.9033,-1.9366,-1.9395,-1.9395,-1.9366,-1.9307,-1.9249,-1.9741,-2.0143,-2.0143,-2.0711,-2.1109,-2.1109,-2.1109,-2.1109,-2.1109,-2.1109,-2.1109,-2.1109,-2.1109,-2.1109,-2.1109,-2.1109,-2.1109,-2.1109,-2.1109,-2.1109,-2.1109,-2.1109,-2.1109,-2.1109,-2.1109,-2.1109,0.0,0.0,-0.4578,-0.2069,0.0,0.0,0.0,0.0,0.0,0.0,0.0,0.0,0.0,0.0,0.0,0.0,0.0,0.0,0.0,-0.8879,-0.8912,-0.8912,-0.8912,-0.8912,-0.8912,-0.8912,-0.8912,-0.8912,-0.8912,-0.8912,-0.8912,-0.8912,-0.8912,-0.8912,-0.8912,-0.8912,-0.8912,-0.8912,-0.8912,-0.8912,-0.8912,-0.8912,-0.8912,-0.8912,-0.8912,-0.8912,-0.8912,-0.8912,-0.8912,-0.8912,-0.8912,-0.8912,-0.8912,-0.8912,-0.8912,-0.8912,-0.8912,-0.8912,-0.8912,-0.8912,-0.8912,-0.8912,-0.8912,-0.9075,-1.0049,-1.0386,-1.0785,-1.2312,-1.2993,-1.3643,-1.5288,-1.5948,-1.6468,-1.7513,-1.7783,-1.7935,-1.8467,-1.8583,-1.8765,-1.9278,-1.9395,-1.9395,-1.9395,-1.9395,-1.9395,-1.9395,-1.986,-2.0204,-2.0204,-2.0742,-2.1109,-2.1109,-2.1109,-2.1109,-2.1109,-2.1109,-2.1109,-2.1109,-2.1109,-2.1109,-2.1109,-2.1109,-2.1109,-2.1109,-2.1109,-2.1109,-2.1109,-2.1109,-2.1109,-2.1109,-2.1109,-2.1109,-0.4639,-0.5586,0.0,-0.3631,-0.3772,0.0,-0.1343,0.0,-0.1456,0.0,0.0,0.0,0.0,0.0,0.0,0.0,0.0,0.0,0.0,-0.8912,-0.8912,-0.8912,-0.8912,-0.8912,-0.8912,-0.8912,-0.8912,-0.8912,-0.8912,-0.8912,0.0,-0.8912,-0.8912,-0.8912,-0.8912,-0.8912,-0.8912,-0.8912,-0.8912,-0.8912,-0.8912,-0.8912,-0.8912,-0.8912,-0.8912,-0.8912,-0.8912,-0.8912,-0.8912,-0.8912,-0.8912,-0.8912,-0.8912,-0.921,-0.9616,-0.9103,-0.9237,-0.9671,-0.9671,-1.0025,-1.0457,-1.0457,-1.0457,-1.0644,-1.1592,-1.1892,-1.2187,-1.3742,-1.4387,-1.502,-1.6754,-1.7426,-1.7985,-1.9129,-1.9395,-1.9395,-1.9395,-1.9395,-1.9395,-1.9395,-1.9395,-1.9395,-1.9395,-1.9395,-1.9395,-1.9395,-1.986,-2.0204,-2.0204,-2.0742,-2.1109,-2.1109,-2.1109,-2.1109,-2.1109,-2.1109,-2.1109,-2.1109,-2.1109,-2.1109,-2.1109,-2.1109,-2.1109,-2.1109,-2.1109,-2.1109,-2.1109,-2.1109,-2.1109,-2.1109,-2.1216,-2.1269]},{"header":{"parameterUnit":"m.s-1","parameterCategory":1,"la1":30.6,"la2":29.2853,"lo1":-89.7004,"lo2":-87.6739,"dy":0.0162,"dx":0.0183,"nx":112,"ny":82,"refTime":"2024-03-17T06:00:00:Z","depth":0,"parameterNumber":3,"parameterNumberName":"V-component_of_WINDS"},"data":[0.0,0.0,0.0,0.0,0.0,0.0,0.0,0.0,0.0,0.0,0.0,0.0,0.0,0.0,0.0,0.0,0.0,0.0,0.0,0.0,0.0,0.0,0.0,0.0,0.0,0.0,0.0,0.0,0.0,0.0,0.0,0.0,0.0,0.0,0.0,0.0,0.0,0.0,0.0,0.0,0.0,0.0,0.0,0.0,0.0,0.0,0.0,0.0,0.0,0.0,0.0,0.0,0.0,0.0,0.0,0.0,0.0,0.0,0.0,0.0,0.0,0.0,0.0,0.0,0.0,0.0,0.0,0.0,0.0,0.0,0.0,0.0,0.0,0.0,0.0,0.0,0.0,0.0,0.0,0.0,0.0,0.0,0.0,0.0,0.0,0.0,0.0,0.0,0.0,0.0,3.55,3.55,3.55,3.55,3.55,3.55,3.55,3.55,0.0,0.0,0.0,0.0,0.0,0.0,0.0,0.0,0.0,0.0,0.0,0.0,0.0,0.0,0.0,0.0,0.0,0.0,0.0,0.0,0.0,0.0,0.0,0.0,0.0,0.0,0.0,0.0,0.0,0.0,0.0,0.0,0.0,0.0,0.0,0.0,0.0,0.0,0.0,0.0,0.0,0.0,0.0,0.0,0.0,0.0,0.0,0.0,0.0,0.0,0.0,0.0,0.0,0.0,0.0,0.0,0.0,0.0,0.0,0.0,0.0,0.0,0.0,0.0,0.0,0.0,0.0,0.0,0.0,0.0,0.0,0.0,0.0,0.0,0.0,0.0,0.0,0.0,0.0,0.0,0.0,0.0,0.0,0.0,0.0,0.0,0.0,0.0,0.0,0.0,0.0,0.0,0.0,0.0,0.0,0.0,0.0,0.0,0.0,0.0,0.0,0.0,0.0,0.0,3.55,3.55,3.55,3.55,3.55,3.55,3.55,3.55,0.0,0.0,0.0,0.0,0.0,0.0,0.0,0.0,0.0,0.0,0.0,0.0,0.0,0.0,0.0,0.0,0.0,0.0,0.0,0.0,0.0,0.0,0.0,0.0,0.0,0.0,0.0,0.0,0.0,0.0,0.0,0.0,0.0,0.0,0.0,0.0,0.0,0.0,0.0,0.0,0.0,0.0,0.0,0.0,0.0,0.0,0.0,0.0,0.0,0.0,0.0,0.0,0.0,0.0,0.0,0.0,0.0,0.0,0.0,0.0,0.0,0.0,0.0,0.0,0.0,0.0,0.0,0.0,0.0,0.0,0.0,0.0,0.0,0.0,0.0,0.0,0.0,0.0,0.0,0.0,0.0,0.0,0.0,0.0,0.0,0.0,0.0,0.0,0.0,0.0,0.0,0.0,0.0,0.0,0.0,0.0,0.0,0.0,0.0,0.0,0.0,0.0,0.0,3.6292,3.6677,3.6192,3.6561,3.6869,3.6869,3.6869,3.6869,3.6869,3.6407,0.0,0.0,0.0,0.0,0.0,0.0,0.0,0.0,0.0,0.0,0.0,0.0,0.0,0.0,0.0,0.0,0.0,0.0,0.0,0.0,0.0,0.0,0.0,0.0,0.0,0.0,0.0,0.0,0.0,0.0,0.0,0.0,0.0,0.0,0.0,0.0,0.0,0.0,0.0,0.0,0.0,0.0,0.0,0.0,0.0,0.0,0.0,0.0,0.0,0.0,0.0,0.0,0.0,0.0,0.0,0.0,0.0,0.0,0.0,0.0,0.0,0.0,0.0,0.0,0.0,0.0,0.0,0.0,0.0,0.0,0.0,0.0,0.0,0.0,0.0,0.0,0.0,0.0,0.0,0.0,0.0,0.0,0.0,0.0,0.0,0.0,0.0,0.0,0.0,0.0,0.0,0.0,0.0,0.0,0.0,0.0,0.0,0.0,0.0,0.0,0.0,0.0,3.7215,3.7738,3.7081,3.7603,3.8007,3.8007,3.8007,3.8007,3.8007,3.7369,0.0,0.0,0.0,0.0,0.0,0.0,0.0,0.0,0.0,0.0,0.0,0.0,0.0,0.0,0.0,0.0,0.0,0.0,0.0,0.0,0.0,0.0,0.0,0.0,0.0,0.0,0.0,0.0,0.0,0.0,0.0,0.0,0.0,0.0,0.0,0.0,0.0,0.0,0.0,0.0,0.0,0.0,0.0,0.0,0.0,0.0,0.0,0.0,0.0,0.0,0.0,0.0,0.0,0.0,0.0,0.0,0.0,0.0,0.0,0.0,0.0,0.0,0.0,0.0,0.0,0.0,0.0,0.0,0.0,0.0,0.0,0.0,0.0,0.0,0.0,0.0,0.0,0.0,0.0,0.0,0.0,0.0,0.0,0.0,0.0,0.0,0.0,0.0,0.0,0.0,0.0,0.0,0.0,0.0,0.0,0.0,0.0,0.0,0.0,0.0,0.0,0.0,3.793,3.7988,3.7911,3.7969,3.8007,3.8007,3.8007,3.8007,3.8007,3.795,0.0,0.0,0.0,0.0,0.0,0.0,0.0,0.0,0.0,0.0,0.0,0.0,0.0,0.0,0.0,0.0,0.0,0.0,0.0,0.0,0.0,0.0,0.0,0.0,0.0,0.0,0.0,0.0,0.0,0.0,0.0,0.0,0.0,0.0,0.0,0.0,0.0,0.0,0.0,0.0,0.0,0.0,0.0,0.0,0.0,0.0,0.0,0.0,0.0,0.0,0.0,0.0,0.0,0.0,0.0,0.0,0.0,0.0,0.0,0.0,0.0,0.0,0.0,0.0,0.0,0.0,0.0,0.0,0.0,0.0,0.0,0.0,0.0,0.0,0.0,0.0,0.0,0.0,0.0,0.0,0.0,0.0,0.0,0.0,0.0,0.0,0.0,0.0,0.0,0.0,0.0,0.0,0.0,0.0,0.0,0.0,0.0,0.0,0.0,0.0,0.0,0.0,3.8915,3.9377,3.8857,3.9261,3.955,3.955,3.955,3.955,3.955,0.0,0.0,0.0,0.0,0.0,0.0,0.0,0.0,0.0,0.0,0.0,0.0,0.0,0.0,0.0,0.0,0.0,0.0,0.0,0.0,0.0,0.0,0.0,0.0,0.0,0.0,0.0,0.0,0.0,0.0,0.0,0.0,0.0,0.0,0.0,0.0,0.0,0.0,0.0,0.0,0.0,0.0,0.0,0.0,0.0,0.0,0.0,0.0,0.0,0.0,0.0,0.0,0.0,0.0,0.0,0.0,0.0,0.0,0.0,0.0,0.0,0.0,0.0,0.0,0.0,0.0,0.0,0.0,0.0,0.0,0.0,0.0,0.0,0.0,0.0,0.0,0.0,0.0,0.0,0.0,0.0,0.0,0.0,0.0,0.0,0.0,0.0,0.0,0.0,0.0,0.0,0.0,0.0,0.0,0.0,0.0,0.0,0.0,0.0,0.0,0.0,0.0,3.8877,3.9781,4.0285,3.9746,4.0169,4.0496,4.0496,4.0496,4.0496,4.0496,0.0,0.0,0.0,0.0,0.0,0.0,0.0,0.0,0.0,0.0,0.0,0.0,0.0,0.0,0.0,0.0,0.0,0.0,0.0,0.0,0.0,0.0,0.0,0.0,0.0,0.0,0.0,0.0,0.0,0.0,0.0,0.0,0.0,0.0,0.0,0.0,0.0,0.0,0.0,0.0,0.0,0.0,0.0,0.0,0.0,0.0,0.0,0.0,0.0,0.0,0.0,0.0,0.0,0.0,0.0,0.0,0.0,0.0,0.0,0.0,0.0,0.0,0.0,0.0,0.0,0.0,0.0,0.0,0.0,0.0,0.0,0.0,0.0,0.0,0.0,0.0,0.0,0.0,0.0,0.0,0.0,0.0,0.0,0.0,0.0,0.0,0.0,0.0,0.0,0.0,0.0,0.0,0.0,0.0,0.0,0.0,0.0,0.0,0.0,0.0,0.0,0.0,4.0496,4.0496,4.0496,4.0496,4.0496,4.0496,4.0496,4.0496,4.0496,0.0,0.0,0.0,0.0,0.0,0.0,0.0,0.0,0.0,0.0,0.0,0.0,0.0,0.0,0.0,0.0,0.0,0.0,0.0,0.0,0.0,0.0,0.0,0.0,0.0,0.0,0.0,0.0,0.0,0.0,0.0,0.0,0.0,0.0,0.0,0.0,0.0,0.0,0.0,0.0,0.0,0.0,0.0,0.0,0.0,0.0,0.0,0.0,0.0,0.0,0.0,0.0,0.0,0.0,0.0,0.0,0.0,0.0,0.0,0.0,0.0,0.0,0.0,0.0,0.0,0.0,0.0,0.0,0.0,0.0,0.0,0.0,0.0,0.0,0.0,0.0,0.0,0.0,0.0,0.0,0.0,0.0,0.0,0.0,0.0,0.0,0.0,0.0,0.0,0.0,0.0,0.0,0.0,0.0,0.0,0.0,0.0,0.0,0.0,0.0,0.0,0.0,0.0,4.0496,4.0496,4.0496,4.0496,4.0496,4.0496,4.0496,4.0496,4.0496,4.0496,0.0,0.0,0.0,0.0,0.0,0.0,0.0,0.0,0.0,0.0,0.0,0.0,0.0,0.0,0.0,0.0,0.0,0.0,0.0,0.0,0.0,0.0,0.0,0.0,0.0,0.0,0.0,0.0,0.0,0.0,0.0,0.0,0.0,0.0,0.0,0.0,0.0,0.0,0.0,0.0,0.0,0.0,0.0,0.0,0.0,0.0,0.0,0.0,0.0,0.0,0.0,0.0,0.0,0.0,0.0,0.0,0.0,0.0,0.0,0.0,0.0,0.0,0.0,0.0,0.0,0.0,0.0,0.0,0.0,0.0,0.0,0.0,0.0,0.0,0.0,0.0,0.0,0.0,0.0,0.0,0.0,0.0,0.0,0.0,0.0,0.0,0.0,0.0,0.0,0.0,0.0,0.0,0.0,0.0,0.0,0.0,0.0,0.0,0.0,0.0,0.0,0.0,4.0496,4.0496,4.0496,4.0496,4.0496,4.0496,4.0496,4.0496,4.0496,4.0496,0.0,0.0,0.0,0.0,0.0,0.0,0.0,0.0,0.0,0.0,0.0,0.0,0.0,0.0,0.0,0.0,0.0,0.0,0.0,0.0,0.0,0.0,0.0,0.0,0.0,0.0,0.0,0.0,0.0,0.0,0.0,0.0,0.0,0.0,0.0,0.0,0.0,0.0,0.0,0.0,0.0,0.0,0.0,0.0,0.0,0.0,0.0,0.0,0.0,0.0,0.0,0.0,0.0,0.0,0.0,0.0,0.0,0.0,0.0,0.0,0.0,0.0,0.0,0.0,0.0,0.0,0.0,0.0,0.0,0.0,0.0,0.0,0.0,0.0,0.0,0.0,0.0,0.0,0.0,0.0,0.0,0.0,0.0,0.0,0.0,0.0,0.0,0.0,0.0,0.0,0.0,0.0,0.0,0.0,0.0,0.0,0.0,0.0,0.0,0.0,0.0,0.0,4.0727,4.0669,4.065,4.0727,4.0746,4.0746,4.0746,4.0746,4.0746,4.0746,0.0,0.0,0.0,0.0,0.0,0.0,0.0,0.0,0.0,0.0,0.0,0.0,0.0,0.0,0.0,0.0,0.0,0.0,0.0,0.0,0.0,0.0,0.0,0.0,0.0,0.0,0.0,0.0,0.0,0.0,0.0,0.0,0.0,0.0,0.0,0.0,0.0,0.0,0.0,0.0,0.0,0.0,0.0,0.0,0.0,0.0,0.0,0.0,0.0,0.0,0.0,0.0,0.0,0.0,0.0,0.0,0.0,0.0,0.0,0.0,3.3437,0.0,0.0,0.0,0.0,0.0,0.0,0.0,0.0,0.0,0.0,0.0,0.0,0.0,0.0,0.0,0.0,0.0,0.0,0.0,0.0,0.0,0.0,0.0,0.0,0.0,0.0,0.0,0.0,0.0,0.0,0.0,0.0,0.0,0.0,0.0,0.0,0.0,0.0,0.0,0.0,0.0,4.2378,4.195,4.1797,4.247,4.2547,4.2547,4.2547,4.2547,4.2547,4.2547,4.2547,0.0,0.0,0.0,0.0,0.0,0.0,0.0,0.0,0.0,0.0,0.0,0.0,0.0,0.0,0.0,0.0,0.0,0.0,0.0,0.0,0.0,0.0,0.0,0.0,0.0,0.0,0.0,0.0,0.0,0.0,0.0,0.0,0.0,0.0,0.0,0.0,0.0,0.0,0.0,0.0,0.0,0.0,0.0,0.0,0.0,0.0,0.0,0.0,0.0,0.0,0.0,0.0,0.0,0.0,0.0,0.0,0.0,0.0,0.0,0.0,3.3354,0.0,0.0,0.0,0.0,0.0,0.0,0.0,0.0,0.0,0.0,0.0,0.0,0.0,0.0,0.0,0.0,0.0,0.0,0.0,0.0,0.0,0.0,0.0,0.0,0.0,0.0,0.0,0.0,0.0,0.0,0.0,0.0,0.0,0.0,0.0,0.0,0.0,0.0,0.0,0.0,4.2989,4.2701,4.2604,4.3047,4.3104,4.3104,4.3104,4.3104,4.3104,4.3104,4.3104,0.0,0.0,0.0,0.0,0.0,0.0,0.0,0.0,0.0,0.0,0.0,0.0,0.0,0.0,0.0,0.0,0.0,0.0,0.0,0.0,0.0,0.0,0.0,0.0,0.0,0.0,0.0,0.0,0.0,0.0,0.0,0.0,0.0,0.0,0.0,0.0,0.0,0.0,0.0,0.0,0.0,0.0,0.0,0.0,0.0,0.0,0.0,0.0,0.0,0.0,0.0,0.0,0.0,3.4002,3.4116,3.4318,3.4318,3.4333,3.4386,3.4386,3.4193,3.3863,3.3863,0.0,0.0,0.0,0.0,0.0,0.0,0.0,0.0,0.0,0.0,0.0,0.0,0.0,0.0,0.0,0.0,0.0,0.0,0.0,0.0,0.0,0.0,0.0,0.0,4.0015,4.0323,3.9646,0.0,0.0,0.0,0.0,0.0,0.0,0.0,0.0,0.0,0.0,0.0,4.3508,4.3393,4.3374,4.3528,4.3547,4.3547,4.3547,4.3547,4.3547,4.3547,4.3547,4.3547,0.0,0.0,0.0,0.0,0.0,0.0,0.0,0.0,0.0,0.0,0.0,0.0,0.0,0.0,0.0,0.0,0.0,0.0,0.0,0.0,0.0,0.0,0.0,0.0,0.0,0.0,0.0,0.0,0.0,0.0,0.0,0.0,3.3627,3.3627,0.0,0.0,0.0,0.0,0.0,0.0,0.0,0.0,0.0,0.0,0.0,0.0,0.0,3.3807,3.3807,3.3807,3.4149,3.4839,3.4839,3.5366,3.6316,3.6316,3.6477,3.6758,3.6758,0.0,3.4153,3.4153,0.0,0.0,0.0,0.0,0.0,0.0,0.0,0.0,0.0,0.0,0.0,0.0,0.0,0.0,0.0,0.0,0.0,0.0,0.0,0.0,0.0,0.0,4.0342,4.0342,4.0419,4.0477,0.0,4.0439,4.0496,4.0496,4.1104,0.0,0.0,0.0,0.0,0.0,0.0,0.0,4.5071,4.4609,4.4436,4.5186,4.5263,4.5263,4.5263,4.5263,4.5263,4.5263,4.5263,4.5263,4.5263,4.4532,0.0,0.0,0.0,0.0,0.0,0.0,0.0,0.0,0.0,0.0,0.0,0.0,0.0,0.0,0.0,0.0,0.0,0.0,0.0,0.0,0.0,0.0,0.0,0.0,0.0,0.0,0.0,0.0,0.0,3.3694,3.3807,3.3807,3.3807,3.3807,0.0,0.0,0.0,0.0,0.0,0.0,0.0,0.0,0.0,3.5183,3.5202,3.5275,3.5432,3.5432,3.5708,3.6241,3.6241,3.6506,3.6977,3.6977,3.7062,3.7192,3.7192,3.6787,3.6106,3.5953,3.6113,3.6462,0.0,0.0,0.0,0.0,3.7192,3.7213,3.7375,3.7424,3.7462,3.7742,0.0,0.0,0.0,0.0,0.0,0.0,0.0,0.0,0.0,0.0,4.0631,4.1104,4.1239,4.1354,4.1858,4.1954,4.182,0.0,4.1931,4.2677,4.3124,0.0,0.0,0.0,0.0,4.479,4.5603,4.5387,4.529,4.5676,4.5753,4.5773,4.5773,4.5773,4.5773,4.5773,4.5738,4.5715,4.5715,4.5273,4.5032,0.0,0.0,0.0,0.0,0.0,0.0,0.0,0.0,0.0,0.0,0.0,0.0,0.0,0.0,0.0,0.0,0.0,0.0,0.0,0.0,0.0,0.0,0.0,0.0,0.0,0.0,0.0,0.0,3.3807,3.3807,3.3807,3.3807,3.388,0.0,0.0,0.0,0.0,0.0,0.0,3.5298,3.5334,3.5659,3.6378,3.6397,3.6643,3.7155,3.7161,3.748,3.8142,3.8142,3.8294,3.859,3.859,3.8631,3.8716,3.8716,3.8814,3.8928,3.778,3.7418,3.7627,3.7707,3.7825,3.794,3.8016,3.8041,3.807,3.8276,3.8333,3.8378,3.8562,3.9088,3.9608,3.9608,0.0,0.0,0.0,0.0,4.0839,4.0839,4.0993,4.1339,4.1985,4.2139,4.2309,4.2984,4.3304,4.3192,0.0,4.2816,4.3606,4.4241,0.0,0.0,0.0,0.0,4.5713,4.5808,4.5823,4.5823,4.5823,4.5864,4.5901,4.5901,4.5901,4.5901,4.5901,4.5847,4.5823,4.5823,4.5738,4.5681,4.5681,0.0,0.0,0.0,0.0,0.0,0.0,0.0,0.0,0.0,0.0,0.0,0.0,0.0,0.0,0.0,0.0,0.0,0.0,0.0,0.0,0.0,0.0,0.0,0.0,0.0,0.0,0.0,0.0,0.0,3.3807,3.3807,0.0,0.0,0.0,0.0,3.6101,3.6163,3.62,3.6229,3.6229,3.6362,3.6677,3.6689,3.7248,3.8404,3.8404,3.9171,4.0706,4.0706,4.1276,4.2328,4.2328,4.2494,4.2806,4.2806,4.2814,4.2556,3.9032,3.8037,3.8756,3.9075,3.9508,3.9981,4.0234,4.0334,4.0334,4.0342,4.0346,4.0369,4.0377,4.04,4.0439,4.0439,4.0477,0.0,0.0,4.1104,4.1735,4.1735,4.2354,4.2989,4.3028,4.3028,4.3065,4.3163,4.3857,4.4152,0.0,4.3682,4.429,4.4463,0.0,4.5766,4.5874,4.5885,4.5885,4.589,4.5892,4.5892,4.5892,4.5897,4.5901,4.5901,4.5901,4.5901,4.5901,4.5894,4.5892,4.5892,4.5885,4.5883,4.5883,4.5844,0.0,0.0,0.0,0.0,0.0,0.0,0.0,0.0,0.0,0.0,0.0,0.0,0.0,0.0,0.0,0.0,0.0,0.0,0.0,0.0,0.0,0.0,0.0,0.0,0.0,0.0,0.0,0.0,3.5581,3.5663,0.0,3.6381,3.6418,3.653,3.6867,3.6886,3.7105,3.7629,3.8172,3.8758,3.9375,3.9908,4.0483,4.1129,4.1134,4.1521,4.2326,4.2326,4.2536,4.2916,4.2916,4.2994,4.3104,4.3104,4.3104,4.3004,4.1688,4.1304,4.1573,4.1691,4.1867,4.2038,4.2137,4.2166,4.2166,4.2166,4.2166,4.2166,4.2166,4.2166,4.2166,4.2166,4.2166,4.2166,4.2166,4.2437,4.2691,4.2691,4.2991,4.3438,4.3998,4.4134,4.4284,4.4817,4.5177,4.5297,4.4974,4.5137,4.5348,4.54,4.566,4.5896,4.6001,4.5965,4.5926,4.6027,4.6033,4.6033,4.6033,4.6112,4.6169,4.6169,4.6169,4.6169,4.6169,4.6078,4.6033,4.6033,4.5957,4.5901,4.5901,4.5901,4.5901,0.0,0.0,0.0,0.0,0.0,0.0,0.0,0.0,0.0,0.0,0.0,0.0,0.0,0.0,0.0,0.0,0.0,0.0,0.0,0.0,0.0,0.0,0.0,0.0,0.0,3.5738,3.6031,3.678,3.686,3.7061,3.7557,3.7592,3.7843,3.8409,3.8447,3.8801,3.9609,4.0193,4.0812,4.1452,4.1988,4.2564,4.3173,4.3178,4.3425,4.3936,4.3936,4.3936,4.3936,4.3936,4.3936,4.3936,4.3936,4.3936,4.3936,4.3936,4.3936,4.3897,4.3316,4.3104,4.3104,4.3104,4.3104,4.3104,4.3104,4.3104,4.3104,4.3104,4.3104,4.3098,4.3135,4.3138,4.3134,4.3183,4.3443,4.3718,4.3718,4.3962,4.4392,4.4973,4.5107,4.5254,4.5831,4.5974,4.5983,4.6032,4.5969,4.5912,4.5967,4.5974,4.6005,4.6146,4.6085,4.6073,4.6169,4.6172,4.6172,4.6172,4.6247,4.6308,4.6308,4.6308,4.6308,4.6308,4.6223,4.6172,4.6172,4.6081,4.6038,4.6038,4.6038,4.6038,4.6038,0.0,0.0,0.0,0.0,0.0,0.0,0.0,0.0,0.0,0.0,0.0,0.0,0.0,0.0,0.0,0.0,0.0,0.0,0.0,0.0,0.0,0.0,0.0,3.723,3.7249,3.7254,3.7297,3.7321,3.7632,3.8428,3.8536,3.9222,4.0858,4.0972,4.1312,4.2087,4.2162,4.2322,4.2634,4.2677,4.3235,4.4374,4.4374,4.4821,4.5691,4.5691,4.5691,4.5691,4.5691,4.5691,4.5691,4.5691,4.5691,4.5691,4.5691,4.5691,4.5513,4.3835,4.3181,4.3181,4.3181,4.3181,4.3181,4.317,4.3175,4.3175,4.3183,4.3183,4.3204,4.3266,4.3278,4.3313,4.3432,4.4084,4.4746,4.4785,4.5367,4.597,4.599,4.599,4.6037,4.6158,4.619,4.6223,4.6366,4.6163,4.6022,4.6082,4.6112,4.6148,4.6289,4.6308,0.0,4.6308,4.6308,4.6308,4.6348,4.6348,4.6348,4.6348,4.6348,4.6328,4.6308,4.6308,4.6308,4.6308,4.6308,4.6308,4.6308,4.6308,4.6308,4.6308,0.0,0.0,0.0,0.0,0.0,0.0,0.0,0.0,0.0,0.0,0.0,0.0,0.0,0.0,0.0,0.0,0.0,0.0,0.0,0.0,0.0,3.9083,3.9014,3.8194,3.8066,3.8369,3.9211,3.9826,4.0363,4.0818,4.143,4.2009,4.2464,4.2502,4.2598,4.2804,4.3383,4.3742,4.3825,4.4444,4.522,4.6178,4.6197,4.6601,4.7413,4.7413,4.7413,4.7413,4.7413,4.7413,4.7413,4.7413,4.7413,4.7413,4.7413,4.7413,4.7259,4.5571,4.4917,4.4917,4.4917,4.4917,4.4923,4.502,4.507,4.5072,4.5118,4.5135,4.5123,4.5143,4.5153,4.516,4.5194,4.5454,4.5869,4.6496,4.6899,4.7292,4.7917,4.8073,4.8095,4.8121,4.8122,4.8142,4.8183,4.8121,4.7685,4.6461,4.6247,4.6267,4.6289,4.6308,0.0,4.6308,4.6308,4.6543,4.7187,4.7246,4.7246,4.7246,4.7246,4.6973,4.6348,4.6308,4.6308,4.6308,4.6308,4.6308,4.6308,4.6308,4.6308,0.0,0.0,0.0,0.0,0.0,0.0,0.0,0.0,0.0,0.0,0.0,0.0,0.0,0.0,0.0,0.0,0.0,0.0,0.0,0.0,0.0,0.0,4.0077,4.0156,3.9866,3.9504,3.9652,4.0681,4.1216,4.1729,4.228,4.2797,4.3239,4.3585,4.3605,4.3758,4.4128,4.4932,4.5393,4.5393,4.6201,4.6894,4.7408,4.7408,4.7639,4.8101,4.8101,4.8101,4.8101,4.8101,4.8101,4.8101,4.8101,4.8101,4.8091,4.8155,4.8177,0.0,0.0,0.0,0.0,0.0,4.6802,4.6835,4.6895,4.6924,4.6937,4.6975,4.6997,4.7006,4.7069,4.7062,4.709,4.7142,4.7213,4.7388,4.7896,4.8082,4.8262,4.8789,4.8906,4.8906,4.8906,4.8906,4.8906,4.8906,4.8906,0.0,4.7558,4.7383,4.7383,4.7383,4.7383,4.7383,4.7383,4.7383,4.7578,4.8086,4.8144,4.8144,4.8144,4.8144,0.0,0.0,0.0,4.668,4.6328,4.6308,0.0,0.0,0.0,4.6308,4.6308,0.0,0.0,0.0,4.6055,4.6035,0.0,0.0,0.0,0.0,0.0,0.0,0.0,0.0,0.0,0.0,0.0,0.0,0.0,0.0,0.0,0.0,4.0407,4.0916,4.1696,4.1219,4.1089,4.185,4.2023,4.2389,4.3162,4.3316,4.372,4.4528,4.4586,4.4975,4.584,4.6624,0.0,0.0,0.0,4.8139,4.8255,4.8255,4.8298,4.8394,4.8394,4.8394,4.8394,4.8394,4.8394,4.8394,4.8394,4.8408,4.8415,4.8539,4.8605,4.8586,4.8271,4.8218,4.8335,4.8463,4.8507,4.8509,4.8522,0.0,0.0,4.8538,4.8542,4.8578,4.8684,4.8717,4.8746,4.8866,4.8906,4.8926,4.9023,4.9043,4.9062,4.916,4.918,4.918,4.918,4.918,4.918,4.918,4.918,4.918,4.918,4.9023,4.8906,4.8906,4.8906,4.8906,4.8906,4.8906,4.8945,4.9043,0.0,0.0,4.9043,4.9043,4.9004,4.8906,4.8164,4.7402,4.6621,4.6582,4.6582,4.6582,4.6582,4.6582,4.6582,4.6582,4.6582,4.6582,4.6484,4.6445,0.0,0.0,0.0,0.0,0.0,0.0,0.0,0.0,0.0,0.0,0.0,0.0,0.0,0.0,0.0,4.0091,4.0901,4.16,4.1773,4.2258,4.2662,4.2835,4.3412,4.3874,4.4047,4.4705,4.5475,4.6331,4.6408,4.6755,4.7567,4.7774,4.787,4.787,4.8024,4.8432,4.9144,4.9144,4.949,5.0207,5.0207,0.0,5.0207,5.0207,5.0207,5.0207,5.0207,5.026,5.0353,5.039,5.0455,5.0411,4.8976,4.8445,4.8453,4.8498,4.8507,4.852,4.8613,4.8652,4.868,4.8796,4.8822,4.8823,4.8845,4.8865,0.0,4.8887,4.8906,4.9062,4.9766,4.9941,5.0117,5.0762,5.0918,5.0918,5.0918,5.0918,5.0918,5.0918,5.0918,5.0918,5.0918,4.9805,4.8906,4.8906,4.8906,4.8906,4.8906,4.8906,4.918,4.9863,4.9941,4.9941,4.9941,4.9941,4.9648,4.8945,4.873,4.8574,4.8398,4.8398,4.8398,4.8398,4.8398,4.8398,4.8398,4.8398,4.8398,4.8379,4.7676,4.7344,0.0,0.0,0.0,0.0,0.0,0.0,0.0,0.0,0.0,0.0,0.0,3.9645,3.9813,0.0,4.0296,4.0861,4.1434,4.2081,4.2931,4.3431,4.3701,4.3701,4.4066,4.4474,4.4917,4.5744,4.6432,4.687,4.7274,4.7678,4.8082,4.8509,4.8759,4.8759,4.9163,4.961,5.0053,5.0053,5.0265,5.0707,5.0707,5.0707,5.0693,5.0779,5.0793,5.0797,5.0867,5.0942,5.101,5.1047,5.1125,5.1162,5.029,4.9901,4.985,4.9929,4.9941,4.9963,5.0024,5.0048,5.005,5.0136,5.0156,5.0156,5.0156,5.0156,5.0156,5.0156,5.0156,5.0254,5.0683,5.0801,5.0898,5.1308,5.1406,5.1406,5.1406,5.1406,5.1406,5.1406,5.1406,5.1406,5.1406,5.0703,5.0156,5.0156,5.0156,5.0156,5.0156,5.0156,5.0312,5.0742,5.0801,5.0801,5.0801,5.0801,5.0449,4.9609,4.9551,4.9355,4.8926,4.8906,4.8906,4.8906,4.8906,4.8906,4.8906,4.8906,4.8906,4.8906,4.8906,4.8672,0.0,0.0,0.0,0.0,0.0,0.0,0.0,3.9193,3.9364,3.9639,3.974,3.9867,4.0139,4.0325,4.0738,4.1649,4.2062,4.2754,4.4105,4.4455,4.4628,4.4797,4.4816,4.5086,4.5782,4.6624,4.7197,4.737,4.7985,4.8432,4.8606,4.926,4.9649,4.9649,5.0322,5.0707,5.0707,5.0707,5.0707,5.0707,5.0707,5.0717,5.0749,5.0855,5.0911,5.0952,5.1074,5.1129,5.1137,5.1213,5.1297,5.1406,5.1406,5.1323,5.1244,5.1365,5.1406,5.1406,5.1406,5.1406,5.1406,5.1406,5.1406,5.1406,5.1406,5.1406,5.1406,5.1406,5.1406,5.1406,5.1406,5.1406,5.1406,5.1406,5.1406,5.1406,5.1406,5.1406,5.1406,5.1406,5.1406,5.1406,5.1406,5.1406,5.1406,5.1406,5.1406,5.1406,5.1406,5.1406,5.1406,5.1406,5.1406,5.1406,5.1406,5.1406,5.1113,5.0469,5.043,5.0117,4.9414,4.9394,4.9394,4.9394,4.9394,4.9394,4.9394,4.9394,4.9394,4.9394,5.0117,4.9961,3.8377,3.8634,3.8699,3.8699,3.8884,3.9051,0.0,3.9564,4.0002,4.0051,4.0241,4.0414,4.0457,4.1087,4.1649,4.1788,4.3047,4.4085,4.4278,4.4975,4.5744,4.6524,4.6601,4.6658,4.6755,4.7485,4.8298,4.9067,4.9202,4.9591,5.0361,5.0495,5.0553,5.0553,5.0649,5.0707,5.0707,5.0707,5.0707,5.0707,5.0707,5.0766,5.0875,5.0897,5.0959,5.1076,5.1154,5.1191,5.1196,5.1321,5.1386,5.1406,5.1406,5.1386,5.1386,5.1387,5.1406,5.1406,5.1406,5.1406,5.1406,5.1406,5.1406,5.1406,5.1406,5.1406,5.1406,5.1406,5.1406,5.1406,5.1406,5.1406,5.1406,5.1406,5.1406,5.1406,5.1406,5.1406,5.1406,5.1406,5.1406,5.1406,5.1406,5.1406,5.1406,5.1406,5.1406,5.1406,5.1406,5.1406,5.1406,5.1406,5.1406,5.1406,5.1406,5.1406,5.1367,5.1269,5.1269,5.1211,5.1113,5.1113,5.1113,5.1113,5.1113,5.1113,5.1113,5.1113,5.1113,5.1113,5.1211,5.082,3.8615,3.88,3.8926,3.8926,3.9171,3.9432,3.9639,3.9901,4.0144,4.0308,4.0414,4.0646,4.1162,4.1542,4.2119,4.3104,4.3835,4.4474,4.4994,4.5359,4.5917,4.6793,4.7312,4.7601,4.7601,4.8355,4.9009,4.9375,4.988,5.0322,5.0668,5.0707,5.0707,5.0707,5.0707,5.0707,5.0707,5.0707,5.0744,5.0818,5.0818,5.089,5.1024,5.1052,5.1146,5.1275,5.1294,5.132,5.1321,5.1386,5.1406,5.1406,5.1406,5.1406,5.1406,5.1406,5.1406,5.1406,5.1406,5.1406,5.1406,5.1406,5.1406,5.1406,5.1406,5.1406,5.1406,5.1406,5.1406,5.1406,5.1406,5.1406,5.1406,5.1406,5.1406,5.1406,5.1406,5.1406,5.1406,5.1406,5.1406,5.1406,5.1406,5.1406,5.1406,5.1406,5.1406,5.1406,5.1406,5.1406,5.1406,5.1406,5.1406,5.1406,5.1406,5.1406,5.1406,5.1406,5.1406,5.1406,5.1406,5.1406,5.1406,5.1406,5.1406,5.1406,5.1406,5.1406,5.1406,5.1406,5.1406,5.1189,3.8788,3.8954,3.9113,3.9206,3.948,3.9797,4.0037,4.0153,4.0278,4.0465,4.0496,4.0762,4.1639,4.2004,4.262,4.4066,4.4494,4.4878,4.5518,4.5802,4.6278,4.712,4.7966,4.8548,4.8798,4.9394,4.9764,4.9764,5.0341,5.0707,5.0707,5.0707,5.0707,5.0707,5.0707,5.0721,5.0752,5.0752,5.0826,5.0966,5.0966,5.1014,5.1126,5.1218,5.1318,5.1406,5.1406,5.1406,5.1406,5.1406,5.1406,5.1406,5.1406,5.1406,5.1406,5.1406,5.1406,5.1406,5.1406,5.1406,5.1406,5.1406,5.1406,5.1406,5.1406,5.1406,5.1406,5.1406,5.1406,5.1406,5.1406,5.1406,5.1406,5.1406,5.1406,5.1406,5.1406,5.1406,5.1406,5.1406,5.1406,5.1406,5.1406,5.1366,5.1344,5.1344,5.1338,5.1339,5.1386,5.1406,5.1406,5.1406,5.1366,5.1344,5.1344,5.1338,5.1313,5.1313,5.1321,5.1342,5.1313,5.1341,5.1341,5.1313,5.1313,5.1313,5.1313,5.1313,5.1313,5.1313,5.1313,5.1276,3.9027,3.9099,3.9173,3.9492,3.9848,4.0091,4.0096,4.0308,4.0489,4.0492,4.0496,4.0762,4.1639,4.2485,4.3335,4.4162,4.5013,4.5575,4.5594,4.6336,4.7158,4.7966,4.8836,4.9687,5.0534,5.0649,5.0649,5.0649,5.0688,5.0707,5.0707,5.0707,5.0707,5.0707,5.0707,5.0766,5.0897,5.0901,5.0953,5.1086,5.1086,5.113,5.1202,5.1323,5.1406,5.1406,5.1406,5.1406,5.1406,5.1406,5.1406,5.1406,5.1406,5.1406,5.1406,5.1406,5.1406,5.1406,5.1406,5.1406,5.1406,5.1406,5.1406,5.1406,5.1406,5.1406,5.1406,5.1406,5.1406,5.1406,5.1406,5.1406,5.1406,5.1406,5.1406,5.1406,5.1406,5.1406,5.1406,5.1406,5.1406,5.1406,5.1406,5.1295,5.1206,5.1206,5.1156,5.1183,5.1366,5.1406,5.1406,5.1406,5.1273,5.1206,5.1206,5.115,5.1103,5.1103,5.1164,5.1174,5.1108,5.1166,5.1172,5.1106,5.1103,5.1103,5.1103,5.1103,5.1103,5.1103,5.1103,5.1101,3.9072,3.9414,3.9792,3.9901,4.0148,4.0364,4.0364,4.0445,4.0496,4.0496,4.0954,4.1623,4.2508,4.3335,4.4162,4.5013,4.5417,4.5594,4.5594,4.6355,4.724,4.8126,4.8917,4.9815,5.0859,5.0797,5.074,5.0835,5.0743,5.0744,5.0839,5.0827,5.0827,5.0827,5.0918,5.0985,5.1039,5.102,5.1074,5.1164,5.125,5.1313,5.1342,5.1972,5.2266,5.2285,5.2871,5.3125,5.3125,5.3125,5.3125,5.3125,5.3125,5.3125,5.3125,5.3125,5.3125,5.2969,5.1797,5.1406,5.1406,5.1406,5.1406,5.1406,5.1406,5.1406,5.1406,5.1406,5.1406,5.1406,5.1406,5.1406,5.1406,5.1406,5.1406,5.1406,5.1406,5.1406,5.1366,5.1273,5.1268,5.1258,5.1213,5.1156,5.1135,5.1135,5.112,5.1122,5.1195,5.1202,5.1202,5.1202,5.1154,5.1135,5.1135,5.1117,5.1091,5.1091,5.1111,5.1116,5.1094,5.1114,5.1116,5.1091,5.1091,5.1091,5.1091,5.1091,5.1091,5.1111,5.1651,5.1853,3.9414,3.977,4.012,4.0213,4.0372,4.0496,4.0496,4.0496,4.0593,4.0896,4.1412,4.2158,4.3316,4.3951,4.459,4.5455,4.5594,4.562,4.5661,4.6671,4.7643,4.8296,4.9336,5.0306,5.1035,5.0929,5.0879,5.0959,5.0897,5.0879,5.0959,5.0966,5.0966,5.0966,5.1064,5.1113,5.1137,5.1137,5.1343,5.1738,5.1814,5.2031,5.2344,5.291,5.3164,5.3203,5.3769,5.4004,5.4004,5.4004,5.4004,5.4004,5.4004,5.4004,5.4004,5.4004,5.4004,5.3848,5.2715,5.2324,5.2324,5.2324,5.2324,5.2324,5.2324,5.2324,5.2324,5.2324,5.2324,5.2324,5.2324,5.2324,5.2324,5.2324,5.2324,5.2324,5.2324,5.2283,5.2233,5.2144,5.2095,5.2033,5.1996,5.1958,5.1903,5.1861,5.1579,5.1318,5.1118,5.1091,5.1091,5.1091,5.1067,5.1036,5.1036,5.0982,5.0969,5.0969,5.1004,5.101,5.095,5.1007,5.101,5.0969,5.0969,5.0969,5.0969,5.1253,5.1389,5.1408,5.2235,5.2577,4.0007,4.011,4.0177,4.0445,4.0496,4.0496,4.0496,4.0535,4.08,4.1639,4.1869,4.2408,4.4008,4.4348,4.4645,4.5477,4.5601,4.5661,4.579,4.7249,4.836,4.8487,5.0048,5.1096,5.111,5.1106,5.1103,5.111,5.1118,5.1094,5.1101,5.1101,5.1101,5.1101,5.1108,5.1145,5.1207,5.1246,5.1759,5.2695,5.2754,5.3203,5.4004,5.4043,5.4062,5.4062,5.4101,5.4121,5.4121,5.4121,5.4121,5.4121,5.4121,5.4121,5.4121,5.4121,5.4121,5.4121,5.4121,5.4062,5.4004,5.4004,5.4004,5.4004,5.4004,5.4004,5.4004,5.4004,5.4004,5.4004,5.4004,5.4004,5.4004,5.4004,5.4004,5.4004,5.3984,5.3888,5.3806,5.378,5.3678,5.3583,5.3583,5.3478,5.3352,5.3219,5.2505,5.1766,5.1209,5.111,5.1071,5.1071,5.0979,5.0894,5.0894,5.0764,5.0707,5.0707,5.0822,5.0827,5.0717,5.0826,5.0858,5.075,5.0765,5.0784,5.0822,5.1582,5.1962,5.1981,5.2851,5.3274,4.0007,4.026,4.0406,4.0481,4.0496,4.0496,4.0496,4.0993,4.1523,4.1754,4.2793,4.3797,4.422,4.4917,4.5499,4.5712,4.5783,4.5833,4.5867,4.7351,4.8491,4.8634,5.0098,5.1162,5.131,5.1224,5.1217,5.1313,5.1186,5.1114,5.1171,5.1174,5.1174,5.1174,5.128,5.1339,5.1344,5.1989,5.2459,5.2715,5.3359,5.3789,5.4023,5.4668,5.4961,5.5,5.5664,5.5937,5.5937,5.5937,5.5937,5.5937,5.5937,5.5937,5.5937,5.5937,5.5937,5.5937,5.5937,5.5098,5.4004,5.4004,5.4004,5.4004,5.4004,5.4004,5.4004,5.4004,5.4004,5.4004,5.4004,5.4004,5.4004,5.4004,5.4004,5.3964,5.3863,5.3822,5.3735,5.3548,5.3387,5.3289,5.3289,5.3262,5.3239,5.3208,5.3005,5.2569,5.1809,5.1175,5.0793,5.0793,5.076,5.0743,5.0743,5.0726,5.0707,5.0707,5.073,5.0735,5.0693,5.073,5.1019,5.1582,5.1582,5.1909,5.2568,5.2774,5.287,5.289,5.376,5.4164,4.0212,4.0381,4.0496,4.0496,4.0496,4.0593,4.0973,4.145,4.2004,4.2754,4.3643,4.4427,4.487,4.5422,4.5806,4.5836,4.5874,4.5918,4.5981,4.749,4.8635,4.8772,5.0236,5.1275,5.1386,5.1322,5.132,5.1387,5.1304,5.1244,5.1292,5.1294,5.1294,5.1294,5.1365,5.1582,5.1973,5.2461,5.3086,5.3848,5.4336,5.4765,5.5156,5.5644,5.5879,5.5898,5.6387,5.6601,5.6601,5.6601,5.6601,5.6601,5.6601,5.6601,5.6601,5.6601,5.6601,5.6601,5.6601,5.5957,5.5137,5.5137,5.5137,5.5137,5.5137,5.5137,5.5137,5.5137,5.5137,5.5137,5.5137,5.5137,5.5137,5.5137,5.5095,5.5022,5.4951,5.4822,5.4657,5.4444,5.4342,5.4299,5.4299,5.4299,5.4299,5.4299,5.3991,5.3587,5.3101,5.2318,5.1803,5.1803,5.1803,5.1803,5.1803,5.1803,5.1803,5.1803,5.1803,5.1803,5.1803,5.1803,5.201,5.2467,5.2467,5.2717,5.3197,5.3587,5.378,5.3799,5.4626,5.503,4.0489,4.0496,4.0496,4.0496,4.0593,4.0877,4.1639,4.1966,4.2543,4.3989,4.4397,4.4734,4.5631,4.5819,4.5847,4.5905,4.5934,4.5992,4.6114,4.7527,4.8635,4.8867,5.0293,5.1289,5.1387,5.1406,5.1406,5.1406,5.1406,5.1406,5.1406,5.1406,5.1406,5.1406,5.1406,5.1816,5.2695,5.2812,5.3691,5.5293,5.543,5.5879,5.6601,5.6601,5.6601,5.6601,5.6601,5.6601,5.6601,5.6601,5.6601,5.6601,5.6601,5.6601,5.6601,5.6601,5.6601,5.6601,5.6601,5.6601,5.6601,5.6601,5.6601,5.6601,5.6601,5.6601,5.6601,5.6601,5.6601,5.6601,5.6601,5.6601,5.6601,5.6581,5.6485,5.6385,5.6343,5.6093,5.5837,5.5712,5.5708,5.5708,5.5708,5.5708,5.5708,5.5708,5.5112,5.4664,5.4664,5.3818,5.3197,5.3197,5.3197,5.3197,5.3197,5.3197,5.3197,5.3197,5.3197,5.3197,5.3197,5.3197,5.3255,5.3371,5.3371,5.3433,5.353,5.4299,5.4664,5.4684,5.5381,5.5708,4.0445,4.0496,4.0496,4.0496,4.1046,4.16,4.1773,4.2874,4.3951,4.4239,4.4878,4.547,4.5747,4.585,4.5927,4.6042,4.617,4.6246,4.6268,4.7147,4.8066,4.8808,4.9785,5.0664,5.1348,5.1406,5.1406,5.1406,5.1406,5.1406,5.1406,5.1406,5.1406,5.1406,5.1406,5.1816,5.2695,5.3418,5.4297,5.5312,5.6035,5.6445,5.6601,5.6601,5.6601,5.6601,5.6601,5.6601,5.6601,5.6601,5.6601,5.6601,5.6601,5.6601,5.6601,5.6601,5.6601,5.6601,5.6601,5.6601,5.6601,5.6601,5.6601,5.6601,5.6601,5.6601,5.6601,5.6601,5.6601,5.6601,5.6601,5.6601,5.6561,5.6458,5.6419,5.6314,5.6052,5.5851,5.5728,5.5695,5.5708,5.5708,5.5708,5.5708,5.5708,5.5708,5.5574,5.5497,5.5497,5.4145,5.3197,5.3197,5.3197,5.3197,5.3197,5.3197,5.3197,5.3197,5.3197,5.3197,5.3197,5.3197,5.3549,5.426,5.426,5.4607,5.5261,5.542,5.5497,5.5497,5.5631,5.5708,4.0469,4.0496,4.0496,4.0496,4.1162,4.1927,4.2369,4.3412,4.4436,4.4878,4.5302,4.5643,4.5785,4.5853,4.5936,4.608,4.6202,4.6308,4.6308,4.7051,4.793,4.8808,4.9668,5.0527,5.1328,5.1406,5.1406,5.1406,5.1406,5.1406,5.1406,5.1406,5.1406,5.1406,5.1836,5.25,5.3379,5.4238,5.5117,5.5976,5.6406,5.6601,5.6601,5.6601,5.6601,5.6601,5.6601,5.6601,5.6601,5.6601,5.6601,5.6601,5.6601,5.6601,5.6601,5.6601,5.6601,5.6601,5.6601,5.6601,5.6601,5.6601,5.6601,5.6601,5.6601,5.6601,5.6601,5.6601,5.6601,5.6601,5.6601,5.6601,5.6561,5.6426,5.6277,5.6077,5.5857,5.5739,5.5708,5.5708,5.5708,5.5708,5.5708,5.5708,5.5708,5.5708,5.5708,5.5708,5.5708,5.4991,5.4491,5.4491,5.4491,5.4491,5.4491,5.4491,5.4491,5.4491,5.4491,5.4491,5.4491,5.4491,5.4703,5.5131,5.5126,5.5304,5.5708,5.5708,5.5708,5.5708,5.5708,5.5939,4.0496,4.0496,4.0535,4.0723,4.1431,4.2293,4.3162,4.3989,4.4763,4.5455,4.5594,4.5643,4.5785,4.5853,4.5936,4.608,4.6202,4.6308,4.6308,4.6894,4.7715,4.8769,4.9492,5.0312,5.1308,5.1406,5.1406,5.1406,5.1406,5.1406,5.1406,5.1406,5.1406,5.1406,5.2246,5.3125,5.3984,5.4863,5.5742,5.6601,5.6601,5.6601,5.6601,5.6601,5.6601,5.6601,5.6601,5.6601,5.6601,5.6601,5.6601,5.6601,5.6601,5.6601,5.6601,5.6601,5.6601,5.6601,5.6601,5.6601,5.6601,5.6601,5.6601,5.6601,5.6601,5.6601,5.6601,5.6601,5.6601,5.6601,5.6601,5.6581,5.6514,5.6342,5.6068,5.5839,5.5717,5.5708,5.5708,5.5708,5.5708,5.5708,5.5708,5.5708,5.5708,5.5708,5.5708,5.5708,5.5708,5.5708,5.5708,5.5708,5.5708,5.5708,5.5708,5.5708,5.5708,5.5708,5.5708,5.5708,5.5708,5.5708,5.5708,5.5708,5.5708,5.5708,5.5708,5.5708,5.5708,5.5708,5.5882,5.6343,4.0496,4.0496,4.0685,4.1485,4.2331,4.3181,4.3989,4.4859,4.5494,4.5575,4.5594,4.5643,4.5785,4.5853,4.5936,4.608,4.6202,4.6308,4.6308,4.6367,4.7031,4.8691,4.8965,4.9648,5.125,5.1406,5.1406,5.1406,5.1406,5.1406,5.1406,5.1406,5.1406,5.1406,5.2246,5.3125,5.3984,5.4863,5.5742,5.6601,5.6601,5.6601,5.6601,5.6601,5.6601,5.6601,5.6601,5.6601,0.0,5.6601,5.6601,5.6601,5.6601,5.6601,5.6601,5.6601,5.6601,5.6601,5.6601,5.6601,5.6601,5.6601,5.6601,5.6601,5.6601,5.6601,5.6601,5.6601,5.6601,5.6601,5.6601,5.6512,5.6342,5.6025,5.5834,5.5721,5.5695,5.5708,5.5708,5.5708,5.5708,5.5708,5.5708,5.5708,5.5708,5.5708,5.5708,5.5708,5.5708,5.5708,5.5708,5.5708,5.5708,5.5708,5.5708,5.5708,5.5708,5.5708,5.5708,5.5708,5.5708,5.5708,5.5708,5.5708,5.5708,5.5708,5.5708,5.5708,5.5708,5.5728,5.6516,5.6926,4.0496,4.0496,4.0704,4.1581,4.2466,4.3316,4.4124,4.4975,4.5594,4.5594,4.5594,4.5643,4.5785,4.5814,4.5894,4.6073,4.6145,4.6201,4.6289,4.6308,4.6953,4.8691,4.8906,4.9551,5.123,5.1406,5.1406,5.1406,5.1406,5.1406,5.1406,5.1406,5.1406,5.1406,5.2754,5.3652,5.4004,5.5371,5.6269,5.6601,5.6601,5.6601,5.6601,5.6601,5.6601,5.6601,5.6601,5.6601,0.0,5.6601,5.6601,5.6601,5.6601,5.6601,5.6601,5.6601,5.6601,5.6601,5.6601,5.6601,5.6601,5.6601,5.6601,5.6601,5.6601,5.6601,5.6601,5.6601,5.6601,5.6581,5.651,5.6299,5.6071,5.594,5.5803,5.5708,5.5708,5.5708,5.5708,5.5708,5.5708,5.5708,5.5708,5.5708,5.5708,5.5708,5.5708,5.5708,5.5708,5.5708,5.5708,5.5708,5.5708,5.5708,5.5708,5.5708,5.5708,5.5708,5.5708,5.5708,5.5708,5.5708,5.5708,5.5708,5.5708,5.5708,5.5708,5.5708,5.5978,5.6497,5.6843,5.7536,4.0496,4.0685,4.1089,4.1966,4.2816,4.3662,4.4494,4.5167,4.5594,4.5594,4.5594,4.5622,4.5714,4.5787,4.5883,4.6022,4.6112,4.6198,4.6289,4.6308,4.6953,4.8691,4.8906,4.9551,5.123,5.1406,5.1406,5.1406,5.1406,5.1406,5.1406,5.1406,5.1406,5.1406,5.3086,5.4004,5.4004,5.5723,5.6601,5.6601,5.6601,5.6601,5.6601,5.6601,5.6601,5.6601,5.6601,5.6601,0.0,5.6601,5.6601,5.6601,5.6601,5.6601,5.6601,5.6601,5.6601,5.6601,5.6601,5.6601,5.6601,5.6601,5.6601,5.6601,5.6601,5.6601,5.6601,5.6601,5.6561,5.649,5.6305,5.608,5.5884,5.5855,5.5765,5.5708,5.5708,5.5708,5.5708,5.5708,5.5708,5.5708,5.5708,5.5708,5.5708,5.5708,5.5708,5.5708,5.5708,5.5708,5.5708,5.5708,5.5708,5.5708,5.5708,5.5708,5.5708,5.5708,5.5708,5.5708,5.5708,5.5708,5.5708,5.5708,5.5708,5.5708,5.5708,5.5958,5.6401,5.7003,5.7517,5.8517,4.0496,4.1123,4.2004,4.2874,4.3682,4.4513,4.5379,4.5594,4.5594,4.5594,4.5594,4.5594,4.5594,4.5764,4.5899,4.5901,4.6119,4.6308,4.6308,4.6308,4.6953,4.8691,4.8906,4.9551,5.123,5.1406,5.1406,5.1406,5.1406,5.1406,5.1406,5.1406,5.1406,5.1406,5.3086,5.4004,5.4004,5.5723,5.6601,5.6601,5.6601,5.6601,5.6601,5.6601,5.6601,5.6601,5.6601,5.6601,0.0,5.6601,5.6601,5.6601,5.6601,5.6601,5.6601,5.6601,5.6601,5.6601,5.6601,5.6601,5.6601,5.6601,5.6601,5.6601,5.6601,5.6601,5.6601,5.6601,5.6491,5.6333,5.5991,5.5904,5.5866,5.5738,5.5708,5.5708,5.5708,5.5708,5.5708,5.5708,5.5708,5.5708,5.5708,5.5708,5.5708,5.5708,5.5708,5.5708,5.5708,5.5708,5.5708,5.5708,5.5708,5.5708,5.5708,5.5708,5.5708,5.5708,5.5708,5.5708,5.5708,5.5708,5.5708,5.5708,5.5708,5.5708,5.5708,5.6574,5.6983,5.7036,5.8704,5.9954,4.1239,4.1581,4.2139,4.3566,4.4105,4.4532,4.5398,4.5594,4.5594,4.5594,4.5594,4.5622,4.5726,4.579,4.5885,4.6,4.6113,4.6199,4.6289,4.6308,4.6953,4.8691,4.9902,5.082,5.1348,5.1406,5.1406,5.1406,5.1406,5.1406,5.1406,5.1406,5.1406,5.1406,5.3086,5.4004,5.4004,5.5723,5.6601,5.6601,5.6601,5.6601,5.6601,5.6601,5.6601,5.6601,5.6601,5.6601,5.6601,5.6601,5.6601,5.6601,5.6601,5.6601,5.6601,5.6601,5.6601,5.6601,5.6601,5.6601,5.6601,5.6601,5.6538,5.6459,5.6459,5.6459,5.6431,5.6343,5.6203,5.6039,5.5936,5.5824,5.5754,5.571,5.5708,5.5708,5.5708,5.5708,5.5708,5.5708,5.5708,5.5708,5.5708,5.5708,5.5708,5.5708,5.5708,5.5708,5.5708,5.5708,5.5708,5.5708,5.5708,5.5708,5.5708,5.5708,5.5708,5.5708,5.5708,5.5708,5.5708,5.5708,5.5708,5.5708,5.5708,5.5997,5.6593,5.6868,5.7594,5.8742,5.9858,6.0531,4.1658,4.2043,4.26,4.3951,4.4551,4.4936,4.5475,4.5594,4.5594,4.5594,4.5594,4.5637,4.5711,4.5775,4.5847,4.6008,4.6073,4.6146,4.6289,4.6308,4.6953,4.8691,5.0371,5.1406,5.1406,5.1406,5.1406,5.1406,5.1406,5.1406,5.1406,5.1406,5.1406,5.1406,5.3086,5.4004,5.4004,5.5723,5.6601,5.6601,5.6601,5.6601,5.6601,5.6601,5.6601,5.6601,5.6601,5.6601,0.0,5.6601,5.6601,5.6601,5.6601,5.6601,5.6601,5.6601,5.6601,5.6601,5.6601,5.6601,5.6601,5.6601,5.6512,5.6379,5.6247,5.6251,5.6281,5.613,5.5999,5.588,5.5833,5.5755,5.5708,5.5708,5.5708,5.5708,5.5708,5.5708,5.5708,5.5708,5.5708,5.5708,5.5708,5.5708,5.5708,5.5708,5.5708,5.5708,5.5708,5.5708,5.5708,5.5708,5.5708,5.5708,5.5708,5.5708,5.5708,5.5708,5.5708,5.5708,5.5708,5.5708,5.5708,5.5708,5.6016,5.6459,5.7003,5.7632,5.8652,5.9992,6.055,6.0806,0.0,4.2562,4.3374,4.4182,4.4994,4.5594,4.5594,4.5594,0.0,4.5594,4.5594,4.5594,4.5594,4.5703,4.5829,4.5883,4.6029,4.6169,4.6289,4.6406,4.709,4.8711,5.0371,5.1406,5.1406,5.1406,5.1406,5.1406,5.1406,5.1406,5.1406,5.1406,5.1406,5.1406,5.3027,5.3945,5.4004,5.5664,5.6543,5.6601,5.6601,5.6601,5.6601,5.6601,5.6601,5.6601,5.6601,5.6601,5.6601,5.6601,5.6601,5.6601,5.6601,5.6601,5.6601,5.6601,5.6601,5.6601,5.6601,5.6582,5.6581,5.656,5.6462,5.6301,5.5976,5.6021,5.6143,5.594,5.5895,5.5868,5.5733,5.5708,5.5708,5.5708,5.5708,5.5708,5.5708,5.5708,5.5708,5.5708,5.5708,5.5708,5.5708,5.5708,5.5708,5.5708,5.5708,5.5708,5.5708,5.5708,5.5708,5.5708,5.5708,5.5708,5.5708,5.5708,5.5708,5.5708,5.5708,5.5708,5.5708,5.5708,5.5728,5.5785,5.6689,5.717,5.717,5.88,6.0012,6.0806,6.0806,6.0806,4.3355,0.0,4.422,4.5071,4.5455,4.5594,0.0,4.5594,4.5594,4.5594,4.5594,4.5594,4.5594,4.5751,4.5886,4.5897,4.6108,4.6268,4.6308,4.7441,4.8437,4.8848,5.0371,5.1406,5.1406,5.1406,5.1406,5.1406,5.1406,5.1406,5.1406,5.1406,5.1406,5.1406,5.2441,5.332,5.3984,5.5078,5.5937,5.6601,5.6601,5.6601,5.6601,5.6601,5.6601,5.6601,5.6601,5.6601,5.6601,5.6601,5.6601,5.6601,5.6601,5.6601,5.6601,5.6601,5.6601,5.6601,5.6601,5.6537,5.6397,5.6158,5.6036,5.5976,5.5803,5.5842,5.5932,5.5798,5.5744,5.5748,5.5705,5.5708,5.5708,5.5708,5.5708,5.5708,5.5708,5.5708,5.5708,5.5708,5.5708,5.5708,5.5708,5.5708,5.5708,5.5708,5.5708,5.5708,5.5708,5.5708,5.5708,5.5708,5.5708,5.5708,5.5708,5.5708,5.5708,5.5708,5.5708,5.5708,5.5708,5.5708,5.6016,5.667,5.8146,5.8915,5.8915,5.9973,6.0589,6.0806,6.0806,6.0806,4.3819,4.4175,4.4513,4.5379,4.5594,4.5594,4.5594,4.5594,4.5594,4.5594,4.5594,4.5594,4.5594,4.574,4.5852,4.5892,4.6077,4.6225,4.6289,4.7793,4.8906,4.8906,5.0371,5.1406,5.1406,5.1406,5.1406,5.1406,5.1406,5.1406,5.1406,5.1406,5.1406,5.1406,5.1855,5.2715,5.3984,5.4863,5.5742,5.6601,5.6601,5.6601,5.6601,5.6601,5.6601,5.6601,5.6601,5.6601,5.6601,5.6601,5.6601,5.6601,5.6601,5.6601,5.6601,5.6601,5.6601,5.6582,5.6536,5.6421,5.6262,5.5984,5.59,5.5878,5.5734,5.5749,5.5793,5.5731,5.5708,5.5708,5.5708,5.5708,5.5708,5.5708,5.5708,5.5708,5.5708,5.5708,5.5708,5.5708,5.5708,5.5708,5.5708,5.5708,5.5708,5.5708,5.5708,5.5708,5.5708,5.5708,5.5708,5.5708,5.5708,5.5708,5.5708,5.5708,5.5708,5.5708,5.5708,5.5708,5.5708,5.6074,5.6882,5.8113,5.9031,5.9704,6.0108,6.0575,6.0806,6.0806,6.0806,6.0806,4.3955,4.4241,4.4686,4.5417,4.5594,4.5594,4.5594,4.5594,4.5594,4.5594,4.5594,4.5603,4.5637,4.5714,4.5823,4.5925,4.6042,4.6173,4.6289,4.7793,4.8906,4.8906,5.0371,5.1406,5.1406,5.1406,5.1406,5.1406,5.1406,5.1406,5.1406,5.1406,5.1406,5.1406,5.1406,5.2168,5.3789,5.4668,5.5547,5.6406,5.6543,5.6601,5.6601,5.6601,5.6601,5.6601,5.6601,0.0,5.6601,5.6601,5.6601,5.6601,5.6601,5.6601,5.6601,5.6601,5.6582,5.6559,5.6386,5.6253,5.6112,5.592,5.587,5.5851,5.5738,5.5708,5.5708,5.5708,5.5708,5.5708,5.5708,5.5708,5.5708,5.5708,5.5708,5.5708,5.5708,5.5708,5.5708,5.5708,5.5708,5.5708,5.5708,5.5708,5.5708,5.5708,5.5708,5.5708,5.5708,5.5708,5.5708,5.5708,5.5708,5.5708,5.5708,5.5708,5.5766,5.5882,5.5766,5.5766,5.5882,5.6843,5.8055,5.9473,5.9627,6.0069,6.0806,6.0806,6.0806,6.0806,6.0806,6.0806,4.471,4.515,4.5436,4.5575,4.5594,4.5594,4.5594,4.5594,4.5594,4.5594,4.5594,4.5631,4.5751,4.5783,4.5858,4.6033,4.6176,4.6288,4.6308,4.7793,4.8906,4.8906,5.0371,5.1406,5.1406,5.1406,5.1406,5.1406,5.1406,5.1406,5.1406,5.1406,5.1406,5.1406,5.1406,5.1875,5.2891,5.3769,5.4648,5.5508,5.625,5.6601,5.6601,5.6601,5.6601,5.6601,0.0,5.6601,5.6601,5.6601,5.6601,5.6601,5.6601,5.6601,5.6601,5.6601,5.6536,5.6387,5.609,5.5954,5.5916,5.5779,5.5733,5.5722,5.57,5.5708,5.5708,5.5708,5.5708,5.5708,5.5708,5.5708,5.5708,5.5708,5.5708,5.5708,5.5708,5.5708,5.5708,5.5708,5.5708,5.5708,5.5708,5.5708,5.5708,5.5708,5.5708,5.5708,5.5708,5.5708,5.5708,5.5708,5.5708,5.5708,5.5708,5.5708,5.6016,5.6747,5.6112,5.6035,5.6766,5.8286,5.9242,5.9492,6.0223,6.0671,6.0806,6.0806,6.0806,6.0806,6.0806,6.0806,4.4717,4.5217,4.5594,4.5594,4.5594,4.5594,4.5594,4.5594,4.5594,4.5594,4.5594,4.5643,4.5785,4.5835,4.5936,4.6171,4.6268,4.6308,4.6308,4.7793,4.8906,4.8906,5.0371,5.1406,5.1406,5.1406,5.1406,5.1406,5.1406,5.1406,5.1406,5.1406,5.1406,5.1406,5.1406,5.1582,5.1992,5.2851,5.3965,5.5293,5.5703,5.6133,5.6601,5.6601,5.6601,5.6601,0.0,5.6601,5.6601,5.6601,5.6601,5.6601,5.6601,5.6601,5.6582,5.6514,5.6348,5.611,5.5947,5.584,5.5774,5.5726,5.5708,5.5708,5.5708,5.5708,5.5708,5.5708,5.5708,5.5708,5.5708,5.5708,5.5708,5.5708,5.5708,5.5708,5.5708,5.5708,5.5708,5.5708,5.5708,5.5708,5.5708,5.5708,5.5708,5.5708,5.5708,5.5708,5.5708,5.5708,5.5708,5.5708,5.6112,5.6401,5.6401,5.6819,5.7069,5.7003,5.7074,5.7473,5.8325,5.9088,5.9723,6.0185,6.0589,6.0806,6.0806,6.0806,6.0806,6.0806,6.0806,6.0806,4.4593,4.5096,4.5594,4.5594,4.5594,4.5594,4.5594,4.5594,4.5594,4.5594,4.5594,4.5643,4.5785,4.5879,4.6005,4.6223,4.6289,4.6308,4.6308,4.7793,4.8906,4.8906,5.0371,5.1406,5.1406,5.1406,5.1406,5.1406,5.1406,5.1406,5.1406,5.1406,5.1406,5.1406,5.1406,5.1406,5.1406,5.2051,5.3164,5.4707,5.5098,5.5644,5.6308,5.6504,5.6601,5.6601,5.6601,5.6601,5.6601,5.6601,5.6601,5.6601,5.6601,5.6581,5.6537,5.6352,5.6122,5.5892,5.5861,5.5798,5.5708,5.5708,5.5708,5.5708,5.5708,5.5708,5.5708,5.5708,5.5708,5.5708,5.5708,5.5708,5.5708,5.5708,5.5708,5.5708,5.5708,5.5708,5.5708,5.5708,5.5708,5.5708,5.5708,5.5708,5.5708,5.5708,5.5862,5.5997,5.5997,5.6189,5.6299,5.6299,5.692,5.7305,5.7305,5.8088,5.83,5.7632,5.8204,5.8858,5.9473,5.9704,6.0127,6.0787,6.0806,6.0806,6.0806,6.0806,6.0806,6.0806,6.0806,6.0806,4.4593,4.5096,4.5594,4.5594,4.5594,4.5594,4.5594,4.5594,4.5594,4.5594,4.5594,4.5643,4.5785,4.5968,4.6085,4.6114,4.6223,4.6308,4.6308,4.7793,4.8906,4.8906,5.0371,5.1406,5.1406,5.1406,5.1406,5.1406,5.1406,5.1406,5.1406,5.1406,5.1406,5.1406,5.1406,5.1406,5.1406,5.1465,5.1953,5.291,5.4531,5.5332,5.543,5.623,5.6601,5.6601,5.6601,5.6601,5.6601,5.6601,5.6601,5.6601,5.6601,5.6515,5.638,5.6058,5.5924,5.5872,5.5764,5.5705,5.5708,5.5708,5.5708,5.5708,5.5708,5.5708,5.5708,5.5708,5.5708,5.5708,5.5708,5.5708,5.5708,5.5708,5.5708,5.5708,5.5708,5.5708,5.5708,5.5708,5.5708,5.5708,5.5708,5.5708,5.5708,5.5708,5.6382,5.6907,5.6907,5.7607,5.8107,5.8107,5.8165,5.8204,5.8204,5.8954,5.9396,5.9319,5.9377,5.9435,5.9492,6.0281,6.0748,6.0806,6.0806,6.0806,6.0806,6.0806,6.0806,6.0806,6.0806,6.0806,4.4593,4.5096,4.5594,4.5594,4.5594,4.5594,4.5594,4.5594,4.5594,4.5594,4.5594,4.5645,4.5825,4.6061,4.6224,4.6224,4.6268,4.6484,4.7031,4.8144,4.9101,4.9648,5.0703,5.1406,5.1406,5.1406,5.1406,5.1406,5.1406,5.1406,5.1406,5.1406,5.1406,5.1406,5.1406,5.1406,5.1406,5.1406,5.1562,5.1914,5.3105,5.4258,5.5312,5.5644,5.6094,5.6601,5.6601,5.6601,5.6601,5.6601,5.6601,5.6582,5.6512,5.6315,5.6077,5.5959,5.5851,5.5765,5.5726,5.5708,5.5708,5.5708,5.5708,5.5708,5.5708,5.5708,5.5708,5.5708,5.5708,5.5708,5.5708,5.5708,5.5708,5.5708,5.5708,5.5708,5.5708,5.5708,5.5708,5.5708,5.5708,5.5708,5.5708,5.6151,5.6516,5.6516,5.7247,5.7819,5.7819,5.8107,5.8294,5.8294,5.8742,5.9281,5.98,6.0127,6.03,6.03,6.03,6.03,6.03,6.0614,6.0806,6.0806,6.0806,6.0806,6.0806,6.0806,6.0806,6.0806,6.0806,6.0806,4.477,4.5166,4.5594,4.5594,4.5594,4.5594,4.5594,4.5594,4.5594,4.5594,4.5594,4.5669,4.5855,4.6046,4.62,4.6289,4.6308,4.6601,4.748,4.8359,4.9219,5.0098,5.0918,5.1406,5.1406,5.1406,5.1406,5.1406,5.1406,5.1406,5.1406,5.1406,5.1406,5.1406,5.1406,5.1406,5.1406,5.1406,5.1406,5.1406,5.1992,5.3066,5.4492,5.5058,5.5625,5.6191,5.6484,5.6601,5.6601,5.6601,5.6581,5.6514,5.6315,5.6105,5.5892,5.584,5.5784,5.5708,5.5708,5.5708,5.5708,5.5708,5.5708,5.5708,5.5708,5.5708,5.5708,5.5708,5.5708,5.5708,5.5708,5.5708,5.5708,5.5708,5.5708,5.5708,5.5708,5.5708,5.5708,5.5708,5.5708,5.5785,5.6055,5.6613,5.7093,5.7363,5.8127,5.8684,5.8684,5.8915,5.9088,5.9088,5.9588,6.0146,6.0748,6.0806,6.0806,6.0806,6.0806,6.0806,6.0806,6.0806,6.0806,6.0806,6.0806,6.0806,6.0806,6.0806,6.0806,6.0806,6.0806,6.0806,4.5096,4.5342,4.5594,4.5594,4.5594,4.5594,4.5594,4.5594,4.5594,4.5594,4.5594,4.5654,4.5855,4.5901,4.599,4.6267,4.6308,4.6601,4.748,4.8359,4.9238,5.0117,5.0918,5.1406,5.1406,5.1406,5.1406,5.1406,5.1406,5.1406,5.1406,5.1406,5.1406,5.1406,5.1406,5.1406,5.1406,5.1406,5.1406,5.1406,5.1406,5.1855,5.2754,5.4492,5.5273,5.5351,5.6211,5.6582,5.6601,5.6601,5.6514,5.6353,5.6032,5.5896,5.5891,5.5749,5.5708,5.5708,5.5708,5.5708,5.5708,5.5708,5.5708,5.5708,5.5708,5.5708,5.5708,5.5708,5.5708,5.5708,5.5708,5.5708,5.5708,5.5708,5.5708,5.5708,5.5708,5.5708,5.5708,5.5708,5.5708,5.5997,5.6843,5.7003,5.7324,5.8184,5.9006,5.9511,5.9511,6.0262,6.0806,6.0806,6.0806,6.0806,6.0806,6.0806,6.0806,6.0806,6.0806,6.0806,6.0806,6.0806,6.0806,6.0806,6.0806,6.0806,6.0806,6.0806,6.0806,6.0806,6.0806,6.0806,4.5096,4.5342,4.5594,4.5594,4.5594,4.5594,4.5594,4.5594,4.5594,4.5594,4.5712,4.5828,4.5888,4.6047,4.6201,4.6289,4.6308,4.6816,4.8301,4.873,4.9433,5.0879,5.125,5.1406,5.1406,5.1406,5.1406,5.1406,5.1406,5.1406,5.1406,5.1406,5.1406,5.1406,5.1318,5.1298,5.1406,5.1266,5.1266,5.1406,5.1297,5.1767,5.2715,5.3242,5.4141,5.5312,5.5566,5.5972,5.6454,5.6366,5.6213,5.6042,5.5947,5.5842,5.5759,5.5716,5.5708,5.5708,5.5708,5.5708,5.5708,5.5708,5.5708,5.5708,5.5708,5.5708,5.5708,5.5708,5.5708,5.5708,5.5708,5.5708,5.5708,5.5708,5.5708,5.5708,5.5708,5.5708,5.5708,5.5708,5.6209,5.6689,5.6964,5.7978,5.8858,5.9108,5.9877,6.0416,6.0416,6.0646,6.0806,6.0806,6.0806,6.0806,6.0806,6.0806,6.0806,6.0806,6.0806,6.0806,6.0806,6.0806,6.0806,6.0806,6.0806,6.0806,6.0806,6.0806,6.0806,6.0806,6.0806,6.0806,4.5302,4.5443,4.5594,4.5594,4.5594,4.5594,4.5594,4.5594,4.562,4.5669,4.577,4.5877,4.5969,4.6114,4.6246,4.6289,4.6308,4.6914,4.8652,4.8906,4.9512,5.1191,5.1406,5.1406,5.1406,5.1406,5.1406,5.1406,5.1406,5.1406,5.1406,5.1406,5.1406,5.1406,5.1269,5.1239,5.132,5.1163,5.1164,5.1277,5.1228,5.1513,5.2122,5.2519,5.3241,5.4211,5.486,5.5395,5.5827,5.6008,5.6014,5.5892,5.5842,5.5769,5.5708,5.5708,5.5708,5.5708,5.5708,5.5708,5.5708,5.5708,5.5708,5.5708,5.5708,5.5708,5.5708,5.5708,5.5708,5.5708,5.5708,5.5708,5.5708,5.5708,5.5708,5.5708,5.5708,5.5708,5.5708,5.5708,5.6401,5.7113,5.7459,5.8627,5.9627,5.9954,6.0454,6.0806,6.0806,6.0806,6.0806,6.0806,6.0806,6.0806,6.0806,6.0806,6.0806,6.0806,6.0806,6.0806,6.0806,6.0806,6.0806,6.0806,6.0806,6.0806,6.0806,6.0806,6.0806,6.0806,6.0806,6.0806,4.5594,4.5594,4.5594,4.5594,4.5607,4.5625,4.5625,4.5622,4.5665,4.5789,4.5806,4.5872,4.6068,4.6113,4.617,4.6289,4.6308,4.6875,4.8555,4.8848,4.9492,5.1094,5.1367,5.1406,5.1406,5.1406,5.1406,5.1406,5.1406,5.1406,5.1406,5.1406,5.1387,5.1386,5.1262,5.1194,5.1194,5.1107,5.1085,5.1091,5.1149,5.1187,5.1216,5.2141,5.2529,5.2577,5.4097,5.4799,5.4925,5.5536,5.5813,5.587,5.5744,5.5708,5.5708,5.5708,5.5708,5.5708,5.5708,5.5708,5.5708,5.5708,5.5708,5.5708,5.5708,5.5708,5.5708,5.5708,5.5708,5.5708,5.5708,5.5708,5.5708,5.5708,5.5708,5.5708,5.5708,5.5708,5.5708,5.5708,5.6478,5.7363,5.8165,5.9031,5.9896,6.0691,6.0806,6.0806,6.0806,6.0806,6.0806,6.0806,6.0806,6.0806,6.0806,6.0806,6.0806,6.0806,6.0806,6.0806,6.0806,6.0806,6.0806,6.0806,6.0806,6.0806,6.0806,6.0806,6.0806,6.0806,6.0806,6.0806,4.5594,4.5594,4.5594,4.5594,4.5684,4.5761,4.5761,4.5808,4.5834,4.5799,4.593,4.6054,4.6084,4.6197,4.6268,4.6308,4.6308,4.668,4.7734,4.8476,4.9297,5.0332,5.1016,5.1406,5.1406,5.1406,5.1406,5.1406,5.1406,5.1406,5.1406,5.1406,5.1345,5.1242,5.1169,5.1114,5.1114,5.0896,5.0897,5.1091,5.1011,5.1011,5.1135,5.1408,5.1811,5.2399,5.3327,5.4104,5.4745,5.4784,5.5175,5.5729,5.571,5.5708,5.5708,5.5708,5.5708,5.5708,5.5708,5.5708,5.5708,5.5708,5.5708,5.5708,5.5708,5.5708,5.5708,5.5708,5.5708,5.5708,5.5708,5.5708,5.5708,5.5708,5.5708,5.5708,5.5708,5.5708,5.5708,5.5708,5.6953,5.8088,5.828,5.9531,6.0569,6.0762,6.0806,6.0806,6.0806,6.0806,6.0806,6.0806,6.0806,6.0806,6.0806,6.0806,6.0806,6.0806,6.0806,6.0806,6.0806,6.0806,6.0806,6.0806,6.0806,6.0806,6.0806,6.0806,6.0806,6.0806,6.0806,6.0806,4.5594,4.5594,4.5594,4.5594,4.57,4.5799,4.5799,4.5896,4.5999,4.5944,4.6037,4.6117,4.6177,4.6247,4.6308,4.6308,4.6308,4.6601,4.748,4.8359,4.9219,5.0098,5.0918,5.1406,5.1406,5.1406,5.1406,5.1406,5.1406,5.1366,5.1318,5.1297,5.126,5.1167,5.1066,5.1007,5.1007,5.0793,5.0779,5.09,5.0893,5.0939,5.101,5.1032,5.126,5.1664,5.2384,5.2949,5.338,5.3725,5.4376,5.5131,5.5131,5.5362,5.5708,5.5708,5.5708,5.5708,5.5708,5.5708,5.5708,5.5708,5.5708,5.5708,5.5708,5.5708,5.5708,5.5708,5.5708,5.5708,5.5708,5.5708,5.5708,5.5708,5.5708,5.5708,5.5708,5.5708,5.5708,5.5708,5.7107,5.8294,5.8294,5.9685,6.0806,6.0806,6.0806,6.0806,6.0806,6.0806,6.0806,6.0806,6.0806,6.0806,6.0806,6.0806,6.0806,6.0806,6.0806,6.0806,6.0806,6.0806,6.0806,6.0806,6.0806,6.0806,6.0806,6.0806,6.0806,6.0806,6.0806,6.0806,4.5594,4.5594,4.5603,4.5622,4.5729,4.5811,4.5861,4.6006,4.6122,4.6122,4.6122,4.6173,4.6289,4.6308,4.6308,4.6308,4.6308,4.6543,4.7266,4.8262,4.918,4.9883,5.082,5.1406,5.1406,5.1406,5.1406,5.1406,5.1406,5.1344,5.1206,5.1202,5.1161,5.1061,5.0969,5.0894,5.0879,5.0752,5.0707,5.0693,5.0814,5.0875,5.0875,5.0875,5.0875,5.0906,5.1442,5.1774,5.1962,5.2678,5.3491,5.428,5.428,5.4761,5.5497,5.5497,5.5574,5.5708,5.5708,5.5708,5.5708,5.5708,5.5708,5.5708,5.5708,5.5708,5.5708,5.5708,5.5708,5.5708,5.5708,5.5708,5.5708,5.5708,5.5708,5.5708,5.5708,5.5708,5.5708,5.5708,5.7107,5.8396,5.8684,5.9877,6.0806,6.0806,6.0806,6.0806,6.0806,6.0806,6.0806,6.0806,6.0806,6.0806,6.0806,6.0806,6.0806,6.0806,6.0806,6.0806,6.0806,6.0806,6.0806,6.0806,6.0806,6.0806,6.0806,6.0806,6.0806,6.0806,6.0806,6.0806,4.5594,4.5594,4.5622,4.5743,4.5833,4.5923,4.6029,4.6171,4.6269,4.6269,4.6269,4.6289,4.6308,4.6308,4.6308,4.6308,4.6308,4.6348,4.6465,4.7871,4.8945,4.9062,5.0449,5.1406,5.1406,5.1406,5.1406,5.1406,5.1406,5.1344,5.1206,5.1202,5.1111,5.0939,5.0903,5.0844,5.0721,5.0707,5.0707,5.0707,5.0726,5.0721,5.0721,5.0721,5.0721,5.0736,5.0818,5.126,5.1904,5.2019,5.2582,5.3371,5.3371,5.3895,5.4664,5.4664,5.5112,5.5708,5.5708,5.5708,5.5708,5.5708,5.5708,5.5708,5.5708,5.5708,5.5708,5.5708,5.5708,5.5708,5.5708,5.5708,5.5708,5.5708,5.5708,5.5708,5.5708,5.5708,5.5708,5.5708,5.7107,5.8761,6.0223,6.0646,6.0806,6.0806,6.0806,6.0806,6.0806,6.0806,6.0806,6.0806,6.0806,6.0806,6.0806,6.0806,6.0806,6.0806,6.0806,6.0806,6.0806,6.0806,6.0806,6.0806,6.0806,6.0806,6.0806,6.0806,6.0806,6.0806,6.0806,6.0806,4.5685,4.5715,4.5743,4.5836,4.5931,4.6033,4.6083,4.6201,4.6308,4.6308,4.6308,4.6308,4.6308,4.6308,4.6308,4.6308,4.6308,4.6465,4.6953,4.8105,4.9082,4.957,5.0683,5.1406,5.1406,5.1406,5.1366,5.1295,5.1294,5.12,5.1042,5.1032,5.0949,5.078,5.0791,5.0761,5.0693,5.0707,5.0707,5.0707,5.0707,5.0707,5.0707,5.0707,5.0707,5.0707,5.0707,5.0899,5.1221,5.1221,5.1722,5.2467,5.2467,5.3005,5.3837,5.4318,5.4722,5.5088,5.5535,5.5708,5.5708,5.5708,5.5708,5.5708,5.5708,5.5708,5.5708,5.5708,5.5708,5.5708,5.5708,5.5708,5.5708,5.5708,5.5708,5.5708,5.5708,5.5708,5.5843,5.6324,5.7434,5.8684,5.9877,6.0473,6.0806,6.0806,6.0806,6.0806,6.0806,6.0806,6.0806,6.0806,6.0806,6.0806,6.0806,6.0806,6.0806,6.0806,6.0806,6.0806,6.0806,6.0806,6.0806,6.0806,6.0806,6.0806,6.0806,6.0806,6.0806,6.0806,6.0806,6.0806,4.5799,4.5823,4.5842,4.5935,4.6032,4.6113,4.6145,4.6225,4.6308,4.6308,4.6308,4.6308,4.6308,4.6308,4.6308,4.6308,4.6484,4.6855,4.7519,4.8535,4.9473,5.0117,5.0918,5.1406,5.1406,5.1366,5.1318,5.1206,5.1185,5.1098,5.0907,5.0908,5.0835,5.0697,5.0707,5.0707,5.0707,5.0707,5.0707,5.0707,5.0707,5.0707,5.0707,5.0707,5.0707,5.0707,5.0707,5.0707,5.0707,5.0707,5.1048,5.1601,5.1601,5.212,5.2947,5.3606,5.3972,5.428,5.5107,5.5401,5.5439,5.5631,5.5708,5.5708,5.5708,5.5708,5.5708,5.5708,5.5708,5.5708,5.5708,5.5708,5.5708,5.5708,5.5708,5.5708,5.5708,5.5708,5.5958,5.6824,5.7517,5.83,5.9319,6.0031,6.0531,6.0768,6.0806,6.0806,6.0806,6.0806,6.0806,6.0806,6.0806,6.0806,6.0806,6.0806,6.0806,6.0806,6.0806,6.0806,6.0806,6.0806,6.0806,6.0806,6.0806,6.0806,6.0806,6.0806,6.0806,6.0806,6.0806,6.0806,4.5877,4.589,4.5937,4.6068,4.6087,4.6122,4.6268,4.6289,4.6308,4.6308,4.6308,4.6308,4.6308,4.6308,4.6308,4.6308,4.6992,4.7558,4.7598,4.9062,5.0156,5.0195,5.0918,5.1406,5.1406,5.1293,5.1206,5.1202,5.1146,5.1059,5.0919,5.0908,5.0835,5.0697,5.0707,5.0707,5.0707,5.0707,5.0707,5.0707,5.0707,5.0707,5.0707,5.0707,5.0707,5.0707,5.0707,5.0707,5.0707,5.0707,5.0726,5.0765,5.0765,5.126,5.1962,5.2019,5.2563,5.339,5.426,5.4549,5.4684,5.5458,5.5708,5.5708,5.5708,5.5708,5.5708,5.5708,5.5708,5.5708,5.5708,5.5708,5.5708,5.5708,5.5708,5.5708,5.5708,5.5708,5.5958,5.6824,5.7036,5.7594,5.9223,5.955,5.9858,6.0691,6.0806,6.0806,6.0806,6.0806,6.0806,6.0806,6.0806,6.0806,6.0806,6.0806,6.0806,6.0806,6.0806,6.0806,6.0806,6.0806,6.0806,6.0806,6.0806,6.0806,6.0806,6.0806,6.0806,6.0806,6.0806,6.0806,4.6675,4.6855,4.7029,4.7723,4.7475,4.7086,4.7129,4.7129,4.7129,4.7129,4.7578,4.7969,4.7969,4.7519,4.7129,4.7129,4.7871,4.8633,4.9199,4.9805,5.0391,5.0918,5.1145,5.127,5.127,5.1193,5.1107,5.1003,5.0981,5.0907,5.0773,5.0764,5.0743,5.0693,5.0707,5.0707,5.0707,5.0707,5.0707,5.0707,5.0707,5.0707,5.0707,5.0707,5.0707,5.0707,5.0707,5.0707,5.0707,5.0707,5.0707,5.0707,5.0707,5.088,5.1183,5.1717,5.2101,5.2486,5.3351,5.403,5.4549,5.4838,5.5285,5.5708,5.5708,5.5708,5.5708,5.5708,5.5708,5.5708,5.5708,5.5708,5.5708,5.5708,5.5708,5.5708,5.5708,5.5708,5.5785,5.6112,5.6613,5.7363,5.8531,5.9165,5.98,6.0671,6.0806,6.0806,6.0806,6.0806,6.0806,6.0806,6.0806,6.0806,6.0806,6.0806,6.0806,6.0806,6.0806,6.0806,6.0806,6.0806,6.0806,6.0806,6.0806,6.0806,6.0806,6.0806,6.0806,6.0806,6.0806,6.0806,4.7704,4.7892,4.8053,4.873,4.8457,4.8047,4.8047,4.8047,4.8047,4.8047,4.8496,4.8906,4.8906,4.8672,4.8379,4.8086,4.8769,4.9531,5.0117,5.0389,5.0737,5.1264,5.1228,5.1164,5.1164,5.1084,5.0997,5.0919,5.0867,5.078,5.0697,5.0707,5.0707,5.0707,5.0707,5.0707,5.0707,5.0707,5.0707,5.0707,5.0707,5.0707,5.0707,5.0707,5.0707,5.0707,5.0707,5.0707,5.0707,5.0707,5.0707,5.0707,5.0707,5.0707,5.0765,5.1298,5.1505,5.162,5.2467,5.314,5.3722,5.4318,5.4857,5.5343,5.5612,5.5708,5.5708,5.5708,5.5708,5.5708,5.5708,5.5708,5.5708,5.5708,5.5708,5.5708,5.5708,5.5708,5.5708,5.5708,5.617,5.6843,5.7703,5.855,5.9396,6.0242,6.0614,6.0806,6.0806,6.0806,6.0806,6.0806,6.0806,6.0806,6.0806,6.0806,6.0806,6.0806,6.0806,6.0806,6.0806,6.0641,6.0565,6.0565,6.0411,6.0331,6.0331,6.0641,6.0806,6.08,6.0634,6.0565,0.0,0.0,0.0,4.8965,4.8965,4.8945,4.8945,4.8945,4.8945,4.8945,4.8965,4.8965,4.8965,4.9668,4.9961,4.9101,4.9687,5.0234,5.0234,5.0785,5.1202,5.1202,5.1143,5.1086,5.1086,5.0969,5.0882,5.0882,5.0764,5.0707,5.0707,5.0707,5.0707,5.0707,5.0707,5.0707,5.0707,5.0707,5.0707,5.0707,5.0707,5.0707,5.0707,5.0707,5.0707,5.0707,5.0707,5.0707,5.0707,5.0707,5.0707,5.0707,5.0707,5.0707,5.0707,5.0707,5.0707,5.0803,5.1582,5.1885,5.2178,5.3876,5.4453,5.4645,5.5439,5.5689,5.5708,5.5708,5.5708,5.5708,5.5708,5.5708,5.5708,5.5708,5.5708,5.5708,5.5708,5.5708,5.5708,5.5708,5.5708,5.5978,5.6843,5.7703,5.8544,5.9377,6.0223,6.0762,6.0806,6.0806,6.0806,6.0806,6.0806,6.0806,6.0806,6.0806,6.0806,6.0806,6.0794,6.0788,6.0788,6.0331,6.0069,6.0069,5.9636,5.9389,5.9398,6.0298,6.0757,6.0752,6.0285,6.0069,4.9668,0.0,0.0,0.0,0.0,0.0,4.9844,4.9844,4.9844,4.9844,5.0293,5.0703,5.0703,5.0918,5.0996,5.0742,5.0918,5.1074,5.1074,5.1136,5.1202,5.1202,5.1052,5.0966,5.0966,5.0827,5.0752,5.0752,5.0731,5.0707,5.0707,5.0707,5.0707,5.0707,5.0707,5.0707,5.0707,5.0707,5.0707,5.0707,5.0707,5.0707,5.0707,5.0707,5.0707,5.0707,5.0707,5.0707,5.0707,5.0707,5.0707,5.0707,5.0707,5.0707,5.0707,5.0707,5.0707,5.0726,5.0957,5.1414,5.1981,5.2467,5.3472,5.453,5.4761,5.5247,5.5708,5.5708,5.5708,5.5708,5.5708,5.5708,5.5708,5.5708,5.5708,5.5708,5.5708,5.5708,5.5708,5.5708,5.5708,5.5978,5.6843,5.7209,5.7844,5.9281,5.9704,6.0089,6.0723,6.0806,6.0806,6.0806,6.0806,6.0806,6.0806,6.0806,6.0806,6.0806,6.0482,6.0285,6.0285,5.9828,5.9584,5.9584,5.9477,5.9389,5.9389,5.9661,5.98,5.9781,5.9652,5.9584,5.0566,5.0703,5.0801,5.1289,0.0,0.0,5.0703,5.0703,5.0703,5.0703,5.1074,5.1406,5.1406,5.1406,5.1386,5.1322,5.132,5.132,5.132,5.1222,5.1138,5.1075,5.0917,5.0818,5.0818,5.0753,5.0707,5.0707,5.0707,5.0707,5.0707,5.0707,5.0707,5.0707,5.0707,5.0707,5.0707,5.0707,5.0707,5.0707,5.0707,5.0707,5.0707,5.0707,5.0707,5.0707,5.0707,5.0707,5.0707,5.0707,5.0707,5.0707,5.0707,5.0707,5.0707,5.0707,5.0707,5.0707,5.0707,5.1015,5.1447,5.1793,5.2582,5.3549,5.428,5.4818,5.5266,5.5612,5.5708,5.5708,5.5708,5.5708,5.5708,5.5708,5.5708,5.5708,5.5708,5.5708,5.5708,5.5708,5.5708,5.5862,5.6362,5.6766,5.744,5.88,5.93,5.9819,6.0691,6.0806,6.0714,6.054,6.0502,6.0502,6.0502,6.0502,6.0502,6.0502,6.025,6.0018,5.9823,5.9373,5.9112,5.9112,5.8923,5.8815,5.8815,5.9222,5.9293,5.9112,5.9302,5.9303,5.1406,5.1406,5.1406,5.1406,5.1406,0.0,5.1406,5.1406,5.1406,5.1406,5.1406,5.1406,5.1406,5.1406,5.1365,5.124,5.1207,5.12,5.1192,5.1111,5.1022,5.0911,5.0778,5.0707,5.0707,5.0707,5.0707,5.0707,5.0707,5.0707,5.0707,5.0707,5.0707,5.0707,5.0707,5.0707,5.0707,5.0707,5.0707,5.0707,5.0707,5.0707,5.0707,5.0707,5.0707,5.0707,5.0707,5.0707,5.0707,5.0707,5.0707,5.0707,5.0707,5.0707,5.0707,5.0707,5.0707,5.0707,5.0707,5.0707,5.0822,5.1524,5.1832,5.2197,5.3741,5.4357,5.4664,5.5478,5.5708,5.5708,5.5708,5.5708,5.5708,5.5708,5.5708,5.5708,5.5708,5.5708,5.5708,5.5708,5.5708,5.5708,5.5708,5.6343,5.7151,5.803,5.8858,5.9654,6.0465,6.0657,6.0546,6.0069,6.0025,6.0025,6.0025,6.0025,6.0025,6.0025,5.9962,5.9757,5.9337,5.8874,5.8621,5.8621,5.8224,5.7997,5.8008,5.8835,5.9028,5.8632,5.9047,5.9018,0.0,0.0,0.0,0.0,5.1406,0.0,5.1406,5.1406,5.1406,5.1406,5.1406,5.1406,5.1406,5.1406,5.1387,5.1366,5.1269,5.1183,5.1122,5.1011,5.0932,5.0893,5.0778,5.0707,5.0707,5.0707,5.0707,5.0707,5.0707,5.0707,5.0707,5.0707,5.0707,5.0707,5.0707,5.0707,5.0707,5.0707,5.0707,5.0707,5.0707,5.0707,5.0707,5.0707,5.0707,5.0707,5.0707,5.0707,5.0707,5.0707,5.0707,5.0707,5.0707,5.0707,5.0707,5.0707,5.0707,5.0707,5.0707,5.0707,5.0726,5.088,5.1375,5.1962,5.2294,5.3395,5.4664,5.5478,5.5708,5.5708,5.5708,5.5708,5.5708,5.5708,5.5708,5.5708,5.5708,5.5708,5.5708,5.5708,5.5708,5.5708,5.5708,5.5843,5.6247,5.7113,5.7973,5.8688,5.9136,5.979,6.0055,5.9595,5.9545,5.9545,5.9545,5.9545,5.9545,5.9545,5.9167,5.8923,5.8835,5.8394,5.8142,5.8142,5.8047,5.7997,5.7997,5.8179,5.8235,5.8142,5.8227,5.8216,0.0,0.0,0.0,5.1406,0.0,0.0,0.0,5.1406,5.1406,5.1406,5.1406,5.1386,5.1319,5.1297,5.1264,5.1175,5.1096,5.1028,5.0918,5.0908,5.0871,5.0805,5.0744,5.0707,5.0707,5.0707,5.0707,5.0707,5.0707,5.0707,5.0707,5.0707,5.0707,5.0707,5.0707,5.0707,5.0707,5.0707,5.0707,5.0707,5.0707,5.0707,5.0707,5.0707,5.0707,5.0707,5.0707,5.0707,5.0707,5.0707,5.0707,5.0707,5.0707,5.0707,5.0707,5.0707,5.0707,5.0707,5.0707,5.0707,5.0707,5.0707,5.0976,5.1375,5.1774,5.3121,5.4664,5.5478,5.5708,5.5708,5.5708,5.5708,5.5708,5.5708,5.5708,5.5708,5.5708,5.5535,5.5405,5.5405,5.5231,5.5224,5.5635,5.5524,5.5765,5.6846,5.7546,5.8157,5.8718,5.9353,5.9559,5.9103,5.9047,5.9047,5.9047,5.9047,5.9047,5.9047,5.8825,5.8591,5.8362,5.8119,5.7997,5.7997,5.7997,5.7997,5.7997,5.7997,5.7997,5.7997,5.7997,5.7997,0.0,0.0,0.0,0.0,0.0,5.1406,0.0,0.0,0.0,5.1406,5.1406,5.1365,5.1214,5.1202,5.1099,5.0746,5.0817,5.0794,5.0536,5.069,5.0826,5.0712,5.0707,5.0707,5.0707,5.0707,5.0707,5.0707,5.0707,5.0707,5.0707,5.0707,5.0707,5.0707,5.0707,5.0707,5.0707,5.0707,5.0707,5.0707,5.0707,5.0707,5.0707,5.0707,5.0707,5.0707,5.0707,5.0707,5.0707,5.0707,5.0707,5.0707,5.0707,5.0707,5.0707,5.0707,5.0707,5.0707,5.0707,5.0707,5.0707,5.0707,5.0707,5.0842,5.1659,5.3005,5.4414,5.5247,5.5574,5.5708,5.5708,5.5708,5.5708,5.5708,5.5708,5.5673,5.5594,5.5325,5.5068,5.5,5.4648,5.4602,5.5337,5.5199,5.5336,5.6362,5.707,5.7676,5.8228,5.8852,5.9084,5.8621,5.8578,5.8578,5.8578,5.8578,5.8578,5.8578,5.8578,5.8386,5.802,5.7997,5.7997,5.7997,5.7997,5.7997,5.7997,5.7997,5.7997,5.7997,5.7997,5.7997,0.0,0.0,0.0,0.0,5.1406,0.0,0.0,0.0,5.1406,5.1406,0.0,5.1365,5.1214,0.0,0.0,5.0055,5.0477,5.061,4.9837,5.0308,5.0721,5.0693,5.0707,5.0707,5.0707,5.0707,5.0707,5.0707,5.0707,5.0707,5.0707,5.0707,5.0707,5.0707,5.0707,5.0707,5.0707,5.0707,5.0707,5.0707,5.0707,5.0707,5.0707,5.0707,5.0707,5.0707,5.0707,5.0707,5.0707,5.0707,5.0707,5.0707,5.0707,5.0707,5.0707,5.0707,5.0707,5.0707,5.0707,5.0707,5.0707,5.0707,5.0707,5.0842,5.1659,5.2582,5.353,5.4395,5.5151,5.5708,5.5708,5.5708,5.5708,5.5708,5.5708,5.5599,5.5256,5.514,5.4993,5.4651,5.4196,5.4039,5.4547,5.4605,5.4609,5.4757,5.6034,5.6863,5.6538,5.7834,5.8601,5.813,5.8081,5.8081,5.8081,5.8081,5.8081,5.8081,5.8081,5.8058,5.8008,5.7997,5.7997,5.7997,5.7997,5.7997,5.7997,5.7997,5.7997,5.7997,5.7997,5.7997,0.0,0.0,0.0,0.0,0.0,0.0,5.1386,0.0,5.1406,0.0,0.0,0.0,0.0,0.0,0.0,0.0,5.0575,5.0666,5.028,5.0504,5.0707,5.0707,5.0707,5.0707,5.0707,5.0707,5.0707,5.0707,5.0707,5.0707,5.0707,5.0707,5.0707,5.0707,5.0707,5.0707,5.0707,5.0707,5.0707,5.0707,5.0707,5.0707,5.0707,5.0707,5.0707,5.0707,5.0707,5.0707,5.0707,5.0707,5.0707,5.0707,5.0707,5.0707,5.0707,5.0707,5.0707,5.0707,5.0707,5.0707,5.0707,5.0707,5.0707,5.0842,5.1659,5.2159,5.2736,5.4107,5.4741,5.505,5.5296,5.5343,5.5294,5.5055,5.5,5.4959,5.4801,5.4536,5.4303,5.4127,5.3749,5.3524,5.371,5.3943,5.4187,5.4463,5.5636,5.6416,5.6235,5.742,5.8224,5.8031,5.7997,5.7997,5.7997,5.7997,5.7997,5.7997,5.7997,5.7997,5.7997,5.7997,5.7997,5.7997,5.7997,5.7997,5.7997,5.7997,5.7997,5.7997,5.7997,5.7997,5.1386,0.0,0.0,0.0,0.0,0.0,0.0,0.0,0.0,0.0,0.0,0.0,0.0,0.0,0.0,0.0,0.0,5.0611,5.038,5.0553,5.0707,5.0707,5.0707,5.0707,5.0707,5.0707,5.0707,5.0707,5.0707,5.0707,5.0707,5.0707,5.0707,5.0707,5.0707,5.0707,5.0707,5.0707,5.0707,5.0707,5.0707,5.0707,5.0707,5.0707,5.0707,5.0707,5.0707,5.0707,5.0707,5.0707,5.0707,5.0707,5.0707,5.0707,5.0707,5.0707,5.0707,5.0707,5.0707,5.0707,5.0707,5.0707,5.0707,5.0803,5.1395,5.1736,5.2144,5.3305,5.3955,5.4361,5.4527,5.4754,5.4855,5.4574,5.4503,5.4452,5.433,5.4039,5.3768,5.3663,5.3392,5.3196,5.3196,5.3434,5.3739,5.4085,5.5211,5.6044,5.6044,5.7195,5.7997,5.7997,5.7997,5.7997,5.7997,5.7997,5.7997,5.7997,5.7997,5.7997,5.7997,5.7997,5.7997,5.7997,5.7997,5.7997,5.7997,5.7997,5.7997,5.7997,5.7997,5.7997,0.0,0.0,0.0,5.1366,0.0,0.0,0.0,0.0,5.1406,0.0,0.0,0.0,0.0,0.0,0.0,0.0,0.0,0.0,0.0,5.0168,5.0707,5.0707,5.0707,5.0707,5.0707,5.0707,5.0707,5.0707,5.0707,5.0707,5.0707,5.0707,5.0707,5.0707,5.0707,5.0707,5.0707,5.0707,5.0707,5.0707,5.0707,5.0707,5.0707,5.0707,5.0707,5.0707,5.0707,5.0707,5.0707,5.0707,5.0707,5.0707,5.0707,5.0707,5.0707,5.0707,5.0707,5.0707,5.0707,5.0707,5.0707,5.0707,5.0707,5.0707,5.0726,5.1279,5.1834,5.1504,5.2571,5.3738,5.3358,5.3885,5.4519,5.4503,5.4503,5.439,5.3914,5.3814,5.3673,5.3285,5.3206,5.3196,5.3196,5.3206,5.3227,5.3248,5.4608,5.5625,5.5625,5.6998,5.7997,5.7997,5.7997,5.7997,5.7997,5.7997,5.7997,5.7997,5.7997,5.7997,5.7997,5.7997,5.7997,5.7997,5.7997,5.7997,5.7997,5.7997,5.7997,5.7997,5.7997,5.7997,0.0,0.0,5.1045,5.1228,0.0,0.0,0.0,0.0,0.0,0.0,0.0,0.0,0.0,0.0,0.0,0.0,0.0,0.0,0.0,5.0515,5.0707,5.0707,5.0707,5.0707,5.0707,5.0707,5.0707,5.0707,5.0707,5.0707,5.0707,5.0707,5.0707,5.0707,5.0707,5.0707,5.0707,5.0707,5.0707,5.0707,5.0707,5.0707,5.0707,5.0707,5.0707,5.0707,5.0707,5.0707,5.0707,5.0707,5.0707,5.0707,5.0707,5.0707,5.0707,5.0707,5.0707,5.0707,5.0707,5.0707,5.0707,5.0707,5.0707,5.0658,5.0375,5.0486,5.0741,5.0915,5.1753,5.2635,5.2771,5.3412,5.3969,5.3701,5.3633,5.3602,5.3442,5.3402,5.3359,5.3238,5.3196,5.3196,5.3196,5.3196,5.3196,5.3196,5.4564,5.5603,5.5603,5.6987,5.7997,5.7997,5.7997,5.7997,5.7997,5.7997,5.7997,5.7997,5.7997,5.7997,5.7997,5.7997,5.7997,5.7997,5.7997,5.7997,5.7997,5.7997,5.7997,5.7997,5.7997,5.7997,5.1098,5.1004,0.0,5.1121,5.113,0.0,5.1291,0.0,5.1307,0.0,0.0,0.0,0.0,0.0,0.0,0.0,0.0,0.0,0.0,5.0707,5.0707,5.0707,5.0707,5.0707,5.0707,5.0707,5.0707,5.0707,5.0707,5.0707,0.0,5.0707,5.0707,5.0707,5.0707,5.0707,5.0707,5.0707,5.0707,5.0707,5.0707,5.0707,5.0707,5.0707,5.0707,5.0707,5.0707,5.0707,5.0707,5.0707,5.0707,5.0707,5.0707,5.0614,5.0499,5.0653,5.0609,5.0488,5.0488,5.0399,5.0272,5.0272,5.0272,5.0212,4.9962,4.9891,4.9921,5.0082,5.0693,5.1426,5.1853,5.2557,5.3173,5.3188,5.3196,5.3196,5.3196,5.3196,5.3196,5.3196,5.3196,5.3196,5.3196,5.3196,5.3196,5.3196,5.4564,5.5603,5.5603,5.6987,5.7997,5.7997,5.7997,5.7997,5.7997,5.7997,5.7997,5.7997,5.7997,5.7997,5.7997,5.7997,5.7997,5.7997,5.7997,5.7997,5.7997,5.7997,5.7997,5.7997,5.829,5.8437]}]]